<?xml version="1.0" encoding="UTF-8" standalone="no" ?>
<gpx xmlns="http://www.topografix.com/GPX/1/1" xmlns:xsi="http://www.w3.org/2001/XMLSchema-instance" xsi:schemaLocation="http://www.topografix.com/GPX/1/1 http://www.topografix.com/GPX/1/1/gpx.xsd" version="1.1" creator="VisuGPX - https://www.visugpx.com">
  <metadata>
    <name>CYCLO gap-jarjayes-valserre-piegut -venterol-tallard-neffes</name>
    <desc><![CDATA[Au menu : la sentinelle et la rude montée à Piegut pour ce joli tour avec de beaux panoramas]]></desc>
  </metadata>
  <trk>
    <name><![CDATA[N°  gap / Jarjayes/Valserre/Piegut/Venterol/Tallard/Neffes]]></name>
    <trkseg>
      <trkpt lat="44.55885" lon="6.07463">
        <ele>744.203125</ele>
      </trkpt>
      <trkpt lat="44.55885" lon="6.07517">
        <ele>741.2929688</ele>
      </trkpt>
      <trkpt lat="44.55873" lon="6.07563">
        <ele>739.640625</ele>
      </trkpt>
      <trkpt lat="44.55866" lon="6.07609">
        <ele>738.9023438</ele>
      </trkpt>
      <trkpt lat="44.55854" lon="6.07655">
        <ele>737.5117188</ele>
      </trkpt>
      <trkpt lat="44.55841" lon="6.07709">
        <ele>737.015625</ele>
      </trkpt>
      <trkpt lat="44.55835" lon="6.07763">
        <ele>735.8359375</ele>
      </trkpt>
      <trkpt lat="44.55803" lon="6.07793">
        <ele>734.65625</ele>
      </trkpt>
      <trkpt lat="44.55766" lon="6.07801">
        <ele>732.546875</ele>
      </trkpt>
      <trkpt lat="44.55734" lon="6.07816">
        <ele>731.3984375</ele>
      </trkpt>
      <trkpt lat="44.55696" lon="6.07824">
        <ele>730.8085938</ele>
      </trkpt>
      <trkpt lat="44.55671" lon="6.07847">
        <ele>729.9179688</ele>
      </trkpt>
      <trkpt lat="44.55652" lon="6.07901">
        <ele>729.0507813</ele>
      </trkpt>
      <trkpt lat="44.55634" lon="6.07932">
        <ele>727.671875</ele>
      </trkpt>
      <trkpt lat="44.55608" lon="6.07955">
        <ele>727.3632813</ele>
      </trkpt>
      <trkpt lat="44.55571" lon="6.07955">
        <ele>728.5039063</ele>
      </trkpt>
      <trkpt lat="44.55533" lon="6.07955">
        <ele>732.484375</ele>
      </trkpt>
      <trkpt lat="44.55489" lon="6.07955">
        <ele>740.4023438</ele>
      </trkpt>
      <trkpt lat="44.55451" lon="6.07947">
        <ele>745.6796875</ele>
      </trkpt>
      <trkpt lat="44.55414" lon="6.07932">
        <ele>749.015625</ele>
      </trkpt>
      <trkpt lat="44.55376" lon="6.07916">
        <ele>751.1953125</ele>
      </trkpt>
      <trkpt lat="44.55344" lon="6.07901">
        <ele>750.0976563</ele>
      </trkpt>
      <trkpt lat="44.55307" lon="6.07893">
        <ele>748.8046875</ele>
      </trkpt>
      <trkpt lat="44.55269" lon="6.07878">
        <ele>745.6796875</ele>
      </trkpt>
      <trkpt lat="44.55237" lon="6.07862">
        <ele>744.25</ele>
      </trkpt>
      <trkpt lat="44.552" lon="6.07847">
        <ele>744.484375</ele>
      </trkpt>
      <trkpt lat="44.55162" lon="6.07839">
        <ele>746.0976563</ele>
      </trkpt>
      <trkpt lat="44.55124" lon="6.07832">
        <ele>747.9296875</ele>
      </trkpt>
      <trkpt lat="44.55087" lon="6.07832">
        <ele>751.1132813</ele>
      </trkpt>
      <trkpt lat="44.55043" lon="6.07832">
        <ele>755.7226563</ele>
      </trkpt>
      <trkpt lat="44.54998" lon="6.07832">
        <ele>759.9023438</ele>
      </trkpt>
      <trkpt lat="44.54961" lon="6.07839">
        <ele>766.4921875</ele>
      </trkpt>
      <trkpt lat="44.54929" lon="6.07862">
        <ele>773.796875</ele>
      </trkpt>
      <trkpt lat="44.54904" lon="6.07893">
        <ele>779.4335938</ele>
      </trkpt>
      <trkpt lat="44.54879" lon="6.07916">
        <ele>785.375</ele>
      </trkpt>
      <trkpt lat="44.54841" lon="6.07908">
        <ele>786.3554688</ele>
      </trkpt>
      <trkpt lat="44.54816" lon="6.07878">
        <ele>782.2578125</ele>
      </trkpt>
      <trkpt lat="44.54785" lon="6.07847">
        <ele>779.1210938</ele>
      </trkpt>
      <trkpt lat="44.54766" lon="6.07816">
        <ele>775.9140625</ele>
      </trkpt>
      <trkpt lat="44.54747" lon="6.07778">
        <ele>771.2773438</ele>
      </trkpt>
      <trkpt lat="44.54728" lon="6.07755">
        <ele>770.4726563</ele>
      </trkpt>
      <trkpt lat="44.54796" lon="6.07741">
        <ele>772.5566406</ele>
        <time>2014-05-04T08:50:47Z</time>
      </trkpt>
      <trkpt lat="44.5473" lon="6.07757">
        <ele>775.4404297</ele>
        <time>2014-05-04T08:51:07Z</time>
      </trkpt>
      <trkpt lat="44.54695" lon="6.07753">
        <ele>776.8825684</ele>
        <time>2014-05-04T08:51:23Z</time>
      </trkpt>
      <trkpt lat="44.54644" lon="6.07736">
        <ele>778.8051758</ele>
        <time>2014-05-04T08:51:48Z</time>
      </trkpt>
      <trkpt lat="44.54625" lon="6.07742">
        <ele>781.689209</ele>
        <time>2014-05-04T08:52:00Z</time>
      </trkpt>
      <trkpt lat="44.54623" lon="6.07742">
        <ele>781.689209</ele>
        <time>2014-05-04T08:52:01Z</time>
      </trkpt>
      <trkpt lat="44.54616" lon="6.07739">
        <ele>783.1311035</ele>
        <time>2014-05-04T08:52:06Z</time>
      </trkpt>
      <trkpt lat="44.54589" lon="6.07749">
        <ele>785.5344238</ele>
        <time>2014-05-04T08:52:21Z</time>
      </trkpt>
      <trkpt lat="44.54575" lon="6.07758">
        <ele>784.5732422</ele>
        <time>2014-05-04T08:52:29Z</time>
      </trkpt>
      <trkpt lat="44.54537" lon="6.07785">
        <ele>787.4570313</ele>
        <time>2014-05-04T08:52:51Z</time>
      </trkpt>
      <trkpt lat="44.54527" lon="6.07792">
        <ele>789.3796387</ele>
        <time>2014-05-04T08:52:57Z</time>
      </trkpt>
      <trkpt lat="44.54503" lon="6.07838">
        <ele>793.2248535</ele>
        <time>2014-05-04T08:53:19Z</time>
      </trkpt>
      <trkpt lat="44.54503" lon="6.0784">
        <ele>793.2248535</ele>
        <time>2014-05-04T08:53:20Z</time>
      </trkpt>
      <trkpt lat="44.54512" lon="6.07912">
        <ele>795.1474609</ele>
        <time>2014-05-04T08:53:46Z</time>
      </trkpt>
      <trkpt lat="44.54529" lon="6.07981">
        <ele>794.1862793</ele>
        <time>2014-05-04T08:54:04Z</time>
      </trkpt>
      <trkpt lat="44.54543" lon="6.08042">
        <ele>793.7055664</ele>
        <time>2014-05-04T08:54:15Z</time>
      </trkpt>
      <trkpt lat="44.54547" lon="6.08073">
        <ele>792.7443848</ele>
        <time>2014-05-04T08:54:20Z</time>
      </trkpt>
      <trkpt lat="44.54559" lon="6.08179">
        <ele>788.418457</ele>
        <time>2014-05-04T08:54:34Z</time>
      </trkpt>
      <trkpt lat="44.54561" lon="6.08188">
        <ele>788.418457</ele>
        <time>2014-05-04T08:54:35Z</time>
      </trkpt>
      <trkpt lat="44.54575" lon="6.08255">
        <ele>786.0151367</ele>
        <time>2014-05-04T08:54:42Z</time>
      </trkpt>
      <trkpt lat="44.54584" lon="6.08301">
        <ele>784.5732422</ele>
        <time>2014-05-04T08:54:46Z</time>
      </trkpt>
      <trkpt lat="44.54601" lon="6.0838">
        <ele>781.689209</ele>
        <time>2014-05-04T08:54:53Z</time>
      </trkpt>
      <trkpt lat="44.54604" lon="6.08392">
        <ele>781.689209</ele>
        <time>2014-05-04T08:54:54Z</time>
      </trkpt>
      <trkpt lat="44.54613" lon="6.08435">
        <ele>779.2856445</ele>
        <time>2014-05-04T08:54:58Z</time>
      </trkpt>
      <trkpt lat="44.54619" lon="6.08464">
        <ele>776.8825684</ele>
        <time>2014-05-04T08:55:01Z</time>
      </trkpt>
      <trkpt lat="44.54621" lon="6.08487">
        <ele>776.4018555</ele>
        <time>2014-05-04T08:55:03Z</time>
      </trkpt>
      <trkpt lat="44.54618" lon="6.08538">
        <ele>774.9599609</ele>
        <time>2014-05-04T08:55:08Z</time>
      </trkpt>
      <trkpt lat="44.54602" lon="6.08585">
        <ele>771.5952148</ele>
        <time>2014-05-04T08:55:14Z</time>
      </trkpt>
      <trkpt lat="44.54571" lon="6.08632">
        <ele>772.5566406</ele>
        <time>2014-05-04T08:55:27Z</time>
      </trkpt>
      <trkpt lat="44.54552" lon="6.08659">
        <ele>775.4404297</ele>
        <time>2014-05-04T08:55:45Z</time>
      </trkpt>
      <trkpt lat="44.54531" lon="6.08699">
        <ele>777.84375</ele>
        <time>2014-05-04T08:56:04Z</time>
      </trkpt>
      <trkpt lat="44.54517" lon="6.08761">
        <ele>780.2473145</ele>
        <time>2014-05-04T08:56:24Z</time>
      </trkpt>
      <trkpt lat="44.54511" lon="6.08813">
        <ele>781.689209</ele>
        <time>2014-05-04T08:56:42Z</time>
      </trkpt>
      <trkpt lat="44.54503" lon="6.08867">
        <ele>783.6118164</ele>
        <time>2014-05-04T08:57:00Z</time>
      </trkpt>
      <trkpt lat="44.54495" lon="6.08923">
        <ele>786.0151367</ele>
        <time>2014-05-04T08:57:19Z</time>
      </trkpt>
      <trkpt lat="44.54488" lon="6.08992">
        <ele>787.9377441</ele>
        <time>2014-05-04T08:57:42Z</time>
      </trkpt>
      <trkpt lat="44.54484" lon="6.0902">
        <ele>786.4958496</ele>
        <time>2014-05-04T08:57:52Z</time>
      </trkpt>
      <trkpt lat="44.54477" lon="6.0906">
        <ele>789.8603516</ele>
        <time>2014-05-04T08:58:05Z</time>
      </trkpt>
      <trkpt lat="44.54469" lon="6.09118">
        <ele>791.3022461</ele>
        <time>2014-05-04T08:58:26Z</time>
      </trkpt>
      <trkpt lat="44.54445" lon="6.09144">
        <ele>793.2248535</ele>
        <time>2014-05-04T08:58:42Z</time>
      </trkpt>
      <trkpt lat="44.54418" lon="6.09127">
        <ele>795.1474609</ele>
        <time>2014-05-04T08:58:59Z</time>
      </trkpt>
      <trkpt lat="44.54411" lon="6.09107">
        <ele>797.5510254</ele>
        <time>2014-05-04T08:59:08Z</time>
      </trkpt>
      <trkpt lat="44.54374" lon="6.09071">
        <ele>798.9929199</ele>
        <time>2014-05-04T08:59:28Z</time>
      </trkpt>
      <trkpt lat="44.54335" lon="6.09053">
        <ele>801.8769531</ele>
        <time>2014-05-04T08:59:47Z</time>
      </trkpt>
      <trkpt lat="44.54294" lon="6.09039">
        <ele>803.7995605</ele>
        <time>2014-05-04T09:00:08Z</time>
      </trkpt>
      <trkpt lat="44.54249" lon="6.09027">
        <ele>806.6833496</ele>
        <time>2014-05-04T09:00:31Z</time>
      </trkpt>
      <trkpt lat="44.54215" lon="6.09037">
        <ele>808.605957</ele>
        <time>2014-05-04T09:00:48Z</time>
      </trkpt>
      <trkpt lat="44.54174" lon="6.09061">
        <ele>811.0092773</ele>
        <time>2014-05-04T09:01:10Z</time>
      </trkpt>
      <trkpt lat="44.54136" lon="6.09083">
        <ele>814.3740234</ele>
        <time>2014-05-04T09:01:31Z</time>
      </trkpt>
      <trkpt lat="44.54099" lon="6.091">
        <ele>815.8161621</ele>
        <time>2014-05-04T09:01:50Z</time>
      </trkpt>
      <trkpt lat="44.54059" lon="6.09105">
        <ele>818.6999512</ele>
        <time>2014-05-04T09:02:11Z</time>
      </trkpt>
      <trkpt lat="44.54013" lon="6.09071">
        <ele>821.1032715</ele>
        <time>2014-05-04T09:02:35Z</time>
      </trkpt>
      <trkpt lat="44.53961" lon="6.0905">
        <ele>823.5065918</ele>
        <time>2014-05-04T09:03:01Z</time>
      </trkpt>
      <trkpt lat="44.53908" lon="6.09036">
        <ele>826.8710938</ele>
        <time>2014-05-04T09:03:27Z</time>
      </trkpt>
      <trkpt lat="44.53872" lon="6.09018">
        <ele>829.2744141</ele>
        <time>2014-05-04T09:03:49Z</time>
      </trkpt>
      <trkpt lat="44.53866" lon="6.09013">
        <ele>829.2744141</ele>
        <time>2014-05-04T09:03:53Z</time>
      </trkpt>
      <trkpt lat="44.53863" lon="6.09013">
        <ele>829.755127</ele>
        <time>2014-05-04T09:03:55Z</time>
      </trkpt>
      <trkpt lat="44.53825" lon="6.09">
        <ele>831.6777344</ele>
        <time>2014-05-04T09:04:12Z</time>
      </trkpt>
      <trkpt lat="44.53768" lon="6.08994">
        <ele>834.5617676</ele>
        <time>2014-05-04T09:04:39Z</time>
      </trkpt>
      <trkpt lat="44.5372" lon="6.08997">
        <ele>837.4455566</ele>
        <time>2014-05-04T09:05:04Z</time>
      </trkpt>
      <trkpt lat="44.53686" lon="6.09021">
        <ele>839.3681641</ele>
        <time>2014-05-04T09:05:22Z</time>
      </trkpt>
      <trkpt lat="44.53642" lon="6.09053">
        <ele>839.848877</ele>
        <time>2014-05-04T09:05:41Z</time>
      </trkpt>
      <trkpt lat="44.53589" lon="6.09087">
        <ele>840.3295898</ele>
        <time>2014-05-04T09:06:01Z</time>
      </trkpt>
      <trkpt lat="44.53534" lon="6.09128">
        <ele>840.8100586</ele>
        <time>2014-05-04T09:06:21Z</time>
      </trkpt>
      <trkpt lat="44.53471" lon="6.09192">
        <ele>841.7714844</ele>
        <time>2014-05-04T09:06:46Z</time>
      </trkpt>
      <trkpt lat="44.53423" lon="6.09238">
        <ele>842.7329102</ele>
        <time>2014-05-04T09:07:06Z</time>
      </trkpt>
      <trkpt lat="44.53351" lon="6.0927">
        <ele>842.7329102</ele>
        <time>2014-05-04T09:07:28Z</time>
      </trkpt>
      <trkpt lat="44.53312" lon="6.093">
        <ele>840.3295898</ele>
        <time>2014-05-04T09:07:39Z</time>
      </trkpt>
      <trkpt lat="44.53298" lon="6.09359">
        <ele>837.9262695</ele>
        <time>2014-05-04T09:07:47Z</time>
      </trkpt>
      <trkpt lat="44.53298" lon="6.09377">
        <ele>836.9648438</ele>
        <time>2014-05-04T09:07:49Z</time>
      </trkpt>
      <trkpt lat="44.53303" lon="6.09446">
        <ele>835.0424805</ele>
        <time>2014-05-04T09:07:56Z</time>
      </trkpt>
      <trkpt lat="44.53308" lon="6.09474">
        <ele>833.6003418</ele>
        <time>2014-05-04T09:07:59Z</time>
      </trkpt>
      <trkpt lat="44.53312" lon="6.09492">
        <ele>832.1584473</ele>
        <time>2014-05-04T09:08:01Z</time>
      </trkpt>
      <trkpt lat="44.53314" lon="6.095">
        <ele>832.6391602</ele>
        <time>2014-05-04T09:08:02Z</time>
      </trkpt>
      <trkpt lat="44.53311" lon="6.0953">
        <ele>829.755127</ele>
        <time>2014-05-04T09:08:06Z</time>
      </trkpt>
      <trkpt lat="44.5329" lon="6.09529">
        <ele>829.755127</ele>
        <time>2014-05-04T09:08:10Z</time>
      </trkpt>
      <trkpt lat="44.53277" lon="6.09529">
        <ele>828.7939453</ele>
        <time>2014-05-04T09:08:12Z</time>
      </trkpt>
      <trkpt lat="44.53255" lon="6.09549">
        <ele>827.8322754</ele>
        <time>2014-05-04T09:08:16Z</time>
      </trkpt>
      <trkpt lat="44.53244" lon="6.09563">
        <ele>826.8710938</ele>
        <time>2014-05-04T09:08:18Z</time>
      </trkpt>
      <trkpt lat="44.53235" lon="6.09619">
        <ele>824.4677734</ele>
        <time>2014-05-04T09:08:24Z</time>
      </trkpt>
      <trkpt lat="44.53234" lon="6.09637">
        <ele>823.5065918</ele>
        <time>2014-05-04T09:08:26Z</time>
      </trkpt>
      <trkpt lat="44.53226" lon="6.09656">
        <ele>822.545166</ele>
        <time>2014-05-04T09:08:29Z</time>
      </trkpt>
      <trkpt lat="44.53216" lon="6.09672">
        <ele>823.5065918</ele>
        <time>2014-05-04T09:08:32Z</time>
      </trkpt>
      <trkpt lat="44.53203" lon="6.0966">
        <ele>822.545166</ele>
        <time>2014-05-04T09:08:34Z</time>
      </trkpt>
      <trkpt lat="44.53198" lon="6.09632">
        <ele>824.9484863</ele>
        <time>2014-05-04T09:08:41Z</time>
      </trkpt>
      <trkpt lat="44.53176" lon="6.09561">
        <ele>828.3132324</ele>
        <time>2014-05-04T09:09:02Z</time>
      </trkpt>
      <trkpt lat="44.53138" lon="6.09508">
        <ele>829.2744141</ele>
        <time>2014-05-04T09:09:26Z</time>
      </trkpt>
      <trkpt lat="44.53121" lon="6.09497">
        <ele>830.7165527</ele>
        <time>2014-05-04T09:09:35Z</time>
      </trkpt>
      <trkpt lat="44.53083" lon="6.09493">
        <ele>832.1584473</ele>
        <time>2014-05-04T09:09:52Z</time>
      </trkpt>
      <trkpt lat="44.53072" lon="6.09537">
        <ele>833.1196289</ele>
        <time>2014-05-04T09:10:07Z</time>
      </trkpt>
      <trkpt lat="44.53054" lon="6.09591">
        <ele>834.5617676</ele>
        <time>2014-05-04T09:10:26Z</time>
      </trkpt>
      <trkpt lat="44.53019" lon="6.0964">
        <ele>836.484375</ele>
        <time>2014-05-04T09:10:48Z</time>
      </trkpt>
      <trkpt lat="44.52979" lon="6.0965">
        <ele>838.8876953</ele>
        <time>2014-05-04T09:11:06Z</time>
      </trkpt>
      <trkpt lat="44.52939" lon="6.09613">
        <ele>841.7714844</ele>
        <time>2014-05-04T09:11:28Z</time>
      </trkpt>
      <trkpt lat="44.52905" lon="6.09573">
        <ele>845.1362305</ele>
        <time>2014-05-04T09:11:49Z</time>
      </trkpt>
      <trkpt lat="44.52874" lon="6.096">
        <ele>845.6169434</ele>
        <time>2014-05-04T09:12:05Z</time>
      </trkpt>
      <trkpt lat="44.5282" lon="6.09638">
        <ele>847.5395508</ele>
        <time>2014-05-04T09:12:28Z</time>
      </trkpt>
      <trkpt lat="44.52773" lon="6.09675">
        <ele>847.0588379</ele>
        <time>2014-05-04T09:12:48Z</time>
      </trkpt>
      <trkpt lat="44.52734" lon="6.09707">
        <ele>847.5395508</ele>
        <time>2014-05-04T09:13:03Z</time>
      </trkpt>
      <trkpt lat="44.52703" lon="6.09722">
        <ele>849.4621582</ele>
        <time>2014-05-04T09:13:16Z</time>
      </trkpt>
      <trkpt lat="44.52645" lon="6.09745">
        <ele>851.8654785</ele>
        <time>2014-05-04T09:13:41Z</time>
      </trkpt>
      <trkpt lat="44.52593" lon="6.09767">
        <ele>855.2299805</ele>
        <time>2014-05-04T09:14:06Z</time>
      </trkpt>
      <trkpt lat="44.52591" lon="6.09769">
        <ele>855.2299805</ele>
        <time>2014-05-04T09:14:07Z</time>
      </trkpt>
      <trkpt lat="44.52581" lon="6.09823">
        <ele>856.671875</ele>
        <time>2014-05-04T09:14:25Z</time>
      </trkpt>
      <trkpt lat="44.52579" lon="6.0989">
        <ele>859.0751953</ele>
        <time>2014-05-04T09:14:48Z</time>
      </trkpt>
      <trkpt lat="44.52591" lon="6.09941">
        <ele>860.9980469</ele>
        <time>2014-05-04T09:15:06Z</time>
      </trkpt>
      <trkpt lat="44.52597" lon="6.10017">
        <ele>863.4013672</ele>
        <time>2014-05-04T09:15:31Z</time>
      </trkpt>
      <trkpt lat="44.52592" lon="6.10084">
        <ele>865.3239746</ele>
        <time>2014-05-04T09:15:53Z</time>
      </trkpt>
      <trkpt lat="44.52581" lon="6.10144">
        <ele>867.246582</ele>
        <time>2014-05-04T09:16:14Z</time>
      </trkpt>
      <trkpt lat="44.52562" lon="6.10185">
        <ele>868.6884766</ele>
        <time>2014-05-04T09:16:32Z</time>
      </trkpt>
      <trkpt lat="44.52536" lon="6.10183">
        <ele>868.6884766</ele>
        <time>2014-05-04T09:16:46Z</time>
      </trkpt>
      <trkpt lat="44.52534" lon="6.10165">
        <ele>869.6499023</ele>
        <time>2014-05-04T09:16:52Z</time>
      </trkpt>
      <trkpt lat="44.52539" lon="6.10081">
        <ele>872.0529785</ele>
        <time>2014-05-04T09:17:17Z</time>
      </trkpt>
      <trkpt lat="44.52527" lon="6.10024">
        <ele>874.9370117</ele>
        <time>2014-05-04T09:17:36Z</time>
      </trkpt>
      <trkpt lat="44.52497" lon="6.0997">
        <ele>878.3017578</ele>
        <time>2014-05-04T09:17:57Z</time>
      </trkpt>
      <trkpt lat="44.52455" lon="6.09926">
        <ele>880.7050781</ele>
        <time>2014-05-04T09:18:22Z</time>
      </trkpt>
      <trkpt lat="44.52411" lon="6.09911">
        <ele>883.5888672</ele>
        <time>2014-05-04T09:18:43Z</time>
      </trkpt>
      <trkpt lat="44.52375" lon="6.09921">
        <ele>886.9533691</ele>
        <time>2014-05-04T09:19:02Z</time>
      </trkpt>
      <trkpt lat="44.52333" lon="6.09936">
        <ele>889.8374023</ele>
        <time>2014-05-04T09:19:22Z</time>
      </trkpt>
      <trkpt lat="44.52297" lon="6.0995">
        <ele>893.2021484</ele>
        <time>2014-05-04T09:19:39Z</time>
      </trkpt>
      <trkpt lat="44.5225" lon="6.09978">
        <ele>896.0861816</ele>
        <time>2014-05-04T09:20:04Z</time>
      </trkpt>
      <trkpt lat="44.52205" lon="6.09975">
        <ele>898.9699707</ele>
        <time>2014-05-04T09:20:25Z</time>
      </trkpt>
      <trkpt lat="44.52165" lon="6.09966">
        <ele>900.8925781</ele>
        <time>2014-05-04T09:20:44Z</time>
      </trkpt>
      <trkpt lat="44.52113" lon="6.09953">
        <ele>904.2573242</ele>
        <time>2014-05-04T09:21:09Z</time>
      </trkpt>
      <trkpt lat="44.52078" lon="6.09945">
        <ele>907.1411133</ele>
        <time>2014-05-04T09:21:26Z</time>
      </trkpt>
      <trkpt lat="44.52039" lon="6.0994">
        <ele>909.5446777</ele>
        <time>2014-05-04T09:21:46Z</time>
      </trkpt>
      <trkpt lat="44.52008" lon="6.09959">
        <ele>910.9865723</ele>
        <time>2014-05-04T09:22:03Z</time>
      </trkpt>
      <trkpt lat="44.51971" lon="6.09954">
        <ele>913.8703613</ele>
        <time>2014-05-04T09:22:22Z</time>
      </trkpt>
      <trkpt lat="44.51939" lon="6.09939">
        <ele>916.7543945</ele>
        <time>2014-05-04T09:22:37Z</time>
      </trkpt>
      <trkpt lat="44.51901" lon="6.0993">
        <ele>920.1188965</ele>
        <time>2014-05-04T09:22:56Z</time>
      </trkpt>
      <trkpt lat="44.51888" lon="6.09967">
        <ele>921.560791</ele>
        <time>2014-05-04T09:23:11Z</time>
      </trkpt>
      <trkpt lat="44.51886" lon="6.10023">
        <ele>924.4450684</ele>
        <time>2014-05-04T09:23:30Z</time>
      </trkpt>
      <trkpt lat="44.51866" lon="6.10068">
        <ele>927.8095703</ele>
        <time>2014-05-04T09:23:49Z</time>
      </trkpt>
      <trkpt lat="44.51855" lon="6.10126">
        <ele>931.1743164</ele>
        <time>2014-05-04T09:24:10Z</time>
      </trkpt>
      <trkpt lat="44.5186" lon="6.10187">
        <ele>932.6162109</ele>
        <time>2014-05-04T09:24:32Z</time>
      </trkpt>
      <trkpt lat="44.51836" lon="6.10223">
        <ele>934.0581055</ele>
        <time>2014-05-04T09:24:49Z</time>
      </trkpt>
      <trkpt lat="44.51806" lon="6.10223">
        <ele>934.5388184</ele>
        <time>2014-05-04T09:25:05Z</time>
      </trkpt>
      <trkpt lat="44.51788" lon="6.1017">
        <ele>936.4614258</ele>
        <time>2014-05-04T09:25:25Z</time>
      </trkpt>
      <trkpt lat="44.51779" lon="6.10129">
        <ele>939.8259277</ele>
        <time>2014-05-04T09:25:43Z</time>
      </trkpt>
      <trkpt lat="44.51762" lon="6.10081">
        <ele>942.7102051</ele>
        <time>2014-05-04T09:26:01Z</time>
      </trkpt>
      <trkpt lat="44.51736" lon="6.10037">
        <ele>944.6325684</ele>
        <time>2014-05-04T09:26:19Z</time>
      </trkpt>
      <trkpt lat="44.51698" lon="6.1002">
        <ele>946.5554199</ele>
        <time>2014-05-04T09:26:39Z</time>
      </trkpt>
      <trkpt lat="44.51663" lon="6.09995">
        <ele>949.439209</ele>
        <time>2014-05-04T09:26:58Z</time>
      </trkpt>
      <trkpt lat="44.51632" lon="6.09975">
        <ele>952.322998</ele>
        <time>2014-05-04T09:27:15Z</time>
      </trkpt>
      <trkpt lat="44.51584" lon="6.0996">
        <ele>955.2070313</ele>
        <time>2014-05-04T09:27:39Z</time>
      </trkpt>
      <trkpt lat="44.51543" lon="6.09957">
        <ele>957.6105957</ele>
        <time>2014-05-04T09:27:59Z</time>
      </trkpt>
      <trkpt lat="44.51497" lon="6.09949">
        <ele>960.9750977</ele>
        <time>2014-05-04T09:28:22Z</time>
      </trkpt>
      <trkpt lat="44.51455" lon="6.09957">
        <ele>963.8588867</ele>
        <time>2014-05-04T09:28:44Z</time>
      </trkpt>
      <trkpt lat="44.51418" lon="6.09968">
        <ele>966.7429199</ele>
        <time>2014-05-04T09:29:04Z</time>
      </trkpt>
      <trkpt lat="44.51379" lon="6.09995">
        <ele>969.6269531</ele>
        <time>2014-05-04T09:29:25Z</time>
      </trkpt>
      <trkpt lat="44.51345" lon="6.10023">
        <ele>972.0302734</ele>
        <time>2014-05-04T09:29:46Z</time>
      </trkpt>
      <trkpt lat="44.51308" lon="6.10055">
        <ele>974.9143066</ele>
        <time>2014-05-04T09:30:08Z</time>
      </trkpt>
      <trkpt lat="44.51276" lon="6.10107">
        <ele>976.8369141</ele>
        <time>2014-05-04T09:30:31Z</time>
      </trkpt>
      <trkpt lat="44.51247" lon="6.10171">
        <ele>976.8369141</ele>
        <time>2014-05-04T09:30:49Z</time>
      </trkpt>
      <trkpt lat="44.51187" lon="6.10244">
        <ele>975.3947754</ele>
        <time>2014-05-04T09:31:12Z</time>
      </trkpt>
      <trkpt lat="44.51162" lon="6.10267">
        <ele>975.3947754</ele>
        <time>2014-05-04T09:31:19Z</time>
      </trkpt>
      <trkpt lat="44.51118" lon="6.10333">
        <ele>972.9916992</ele>
        <time>2014-05-04T09:31:29Z</time>
      </trkpt>
      <trkpt lat="44.51107" lon="6.1035">
        <ele>970.5881348</ele>
        <time>2014-05-04T09:31:31Z</time>
      </trkpt>
      <trkpt lat="44.51079" lon="6.10391">
        <ele>968.1848145</ele>
        <time>2014-05-04T09:31:36Z</time>
      </trkpt>
      <trkpt lat="44.51074" lon="6.10399">
        <ele>967.7041016</ele>
        <time>2014-05-04T09:31:37Z</time>
      </trkpt>
      <trkpt lat="44.51058" lon="6.10444">
        <ele>965.3010254</ele>
        <time>2014-05-04T09:31:42Z</time>
      </trkpt>
      <trkpt lat="44.51056" lon="6.10466">
        <ele>965.7817383</ele>
        <time>2014-05-04T09:31:44Z</time>
      </trkpt>
      <trkpt lat="44.51056" lon="6.10503">
        <ele>963.378418</ele>
        <time>2014-05-04T09:31:47Z</time>
      </trkpt>
      <trkpt lat="44.51058" lon="6.10529">
        <ele>961.4558105</ele>
        <time>2014-05-04T09:31:49Z</time>
      </trkpt>
      <trkpt lat="44.51059" lon="6.10565">
        <ele>959.5332031</ele>
        <time>2014-05-04T09:31:52Z</time>
      </trkpt>
      <trkpt lat="44.5106" lon="6.10586">
        <ele>959.0524902</ele>
        <time>2014-05-04T09:31:54Z</time>
      </trkpt>
      <trkpt lat="44.51058" lon="6.10606">
        <ele>958.0913086</ele>
        <time>2014-05-04T09:31:56Z</time>
      </trkpt>
      <trkpt lat="44.51052" lon="6.10634">
        <ele>955.6877441</ele>
        <time>2014-05-04T09:31:59Z</time>
      </trkpt>
      <trkpt lat="44.51034" lon="6.1067">
        <ele>954.2458496</ele>
        <time>2014-05-04T09:32:03Z</time>
      </trkpt>
      <trkpt lat="44.51016" lon="6.10699">
        <ele>952.8037109</ele>
        <time>2014-05-04T09:32:06Z</time>
      </trkpt>
      <trkpt lat="44.50977" lon="6.10763">
        <ele>948.9584961</ele>
        <time>2014-05-04T09:32:14Z</time>
      </trkpt>
      <trkpt lat="44.50973" lon="6.1077">
        <ele>948.9584961</ele>
        <time>2014-05-04T09:32:15Z</time>
      </trkpt>
      <trkpt lat="44.50965" lon="6.10782">
        <ele>947.0358887</ele>
        <time>2014-05-04T09:32:17Z</time>
      </trkpt>
      <trkpt lat="44.50937" lon="6.10825">
        <ele>945.1132813</ele>
        <time>2014-05-04T09:32:24Z</time>
      </trkpt>
      <trkpt lat="44.50922" lon="6.10845">
        <ele>942.7102051</ele>
        <time>2014-05-04T09:32:27Z</time>
      </trkpt>
      <trkpt lat="44.50891" lon="6.1088">
        <ele>939.8259277</ele>
        <time>2014-05-04T09:32:37Z</time>
      </trkpt>
      <trkpt lat="44.50847" lon="6.10898">
        <ele>938.3840332</ele>
        <time>2014-05-04T09:32:50Z</time>
      </trkpt>
      <trkpt lat="44.5076" lon="6.10921">
        <ele>937.9033203</ele>
        <time>2014-05-04T09:33:07Z</time>
      </trkpt>
      <trkpt lat="44.50663" lon="6.10952">
        <ele>935.9807129</ele>
        <time>2014-05-04T09:33:29Z</time>
      </trkpt>
      <trkpt lat="44.50611" lon="6.10968">
        <ele>933.0966797</ele>
        <time>2014-05-04T09:33:40Z</time>
      </trkpt>
      <trkpt lat="44.50544" lon="6.10989">
        <ele>930.6936035</ele>
        <time>2014-05-04T09:33:55Z</time>
      </trkpt>
      <trkpt lat="44.5047" lon="6.11011">
        <ele>929.7321777</ele>
        <time>2014-05-04T09:34:15Z</time>
      </trkpt>
      <trkpt lat="44.5046" lon="6.11014">
        <ele>928.7709961</ele>
        <time>2014-05-04T09:34:17Z</time>
      </trkpt>
      <trkpt lat="44.50445" lon="6.11022">
        <ele>928.7709961</ele>
        <time>2014-05-04T09:34:20Z</time>
      </trkpt>
      <trkpt lat="44.50431" lon="6.11047">
        <ele>927.3291016</ele>
        <time>2014-05-04T09:34:24Z</time>
      </trkpt>
      <trkpt lat="44.50419" lon="6.11085">
        <ele>925.8869629</ele>
        <time>2014-05-04T09:34:28Z</time>
      </trkpt>
      <trkpt lat="44.50407" lon="6.11113">
        <ele>924.4450684</ele>
        <time>2014-05-04T09:34:31Z</time>
      </trkpt>
      <trkpt lat="44.50399" lon="6.11127">
        <ele>923.4836426</ele>
        <time>2014-05-04T09:34:33Z</time>
      </trkpt>
      <trkpt lat="44.50381" lon="6.11144">
        <ele>922.0415039</ele>
        <time>2014-05-04T09:34:36Z</time>
      </trkpt>
      <trkpt lat="44.50366" lon="6.1115">
        <ele>920.1188965</ele>
        <time>2014-05-04T09:34:38Z</time>
      </trkpt>
      <trkpt lat="44.5029" lon="6.11158">
        <ele>915.7932129</ele>
        <time>2014-05-04T09:34:46Z</time>
      </trkpt>
      <trkpt lat="44.50269" lon="6.11156">
        <ele>915.3125</ele>
        <time>2014-05-04T09:34:48Z</time>
      </trkpt>
      <trkpt lat="44.50237" lon="6.1115">
        <ele>911.947998</ele>
        <time>2014-05-04T09:34:51Z</time>
      </trkpt>
      <trkpt lat="44.50226" lon="6.11148">
        <ele>911.947998</ele>
        <time>2014-05-04T09:34:52Z</time>
      </trkpt>
      <trkpt lat="44.50201" lon="6.11143">
        <ele>910.0251465</ele>
        <time>2014-05-04T09:34:55Z</time>
      </trkpt>
      <trkpt lat="44.50185" lon="6.11139">
        <ele>908.583252</ele>
        <time>2014-05-04T09:34:57Z</time>
      </trkpt>
      <trkpt lat="44.50161" lon="6.11136">
        <ele>907.1411133</ele>
        <time>2014-05-04T09:35:00Z</time>
      </trkpt>
      <trkpt lat="44.50104" lon="6.11148">
        <ele>903.2958984</ele>
        <time>2014-05-04T09:35:08Z</time>
      </trkpt>
      <trkpt lat="44.50067" lon="6.11144">
        <ele>900.8925781</ele>
        <time>2014-05-04T09:35:13Z</time>
      </trkpt>
      <trkpt lat="44.50046" lon="6.11142">
        <ele>899.4506836</ele>
        <time>2014-05-04T09:35:16Z</time>
      </trkpt>
      <trkpt lat="44.50024" lon="6.11139">
        <ele>897.5280762</ele>
        <time>2014-05-04T09:35:19Z</time>
      </trkpt>
      <trkpt lat="44.49987" lon="6.11158">
        <ele>895.1247559</ele>
        <time>2014-05-04T09:35:25Z</time>
      </trkpt>
      <trkpt lat="44.49988" lon="6.11203">
        <ele>892.2409668</ele>
        <time>2014-05-04T09:35:31Z</time>
      </trkpt>
      <trkpt lat="44.49993" lon="6.1121">
        <ele>892.2409668</ele>
        <time>2014-05-04T09:35:32Z</time>
      </trkpt>
      <trkpt lat="44.50031" lon="6.1126">
        <ele>888.8762207</ele>
        <time>2014-05-04T09:35:39Z</time>
      </trkpt>
      <trkpt lat="44.50044" lon="6.11286">
        <ele>887.434082</ele>
        <time>2014-05-04T09:35:43Z</time>
      </trkpt>
      <trkpt lat="44.5004" lon="6.11298">
        <ele>885.5114746</ele>
        <time>2014-05-04T09:35:45Z</time>
      </trkpt>
      <trkpt lat="44.50017" lon="6.1131">
        <ele>885.0310059</ele>
        <time>2014-05-04T09:35:48Z</time>
      </trkpt>
      <trkpt lat="44.50001" lon="6.11314">
        <ele>883.5888672</ele>
        <time>2014-05-04T09:35:50Z</time>
      </trkpt>
      <trkpt lat="44.49932" lon="6.11324">
        <ele>879.2629395</ele>
        <time>2014-05-04T09:35:58Z</time>
      </trkpt>
      <trkpt lat="44.49916" lon="6.11332">
        <ele>877.8210449</ele>
        <time>2014-05-04T09:36:00Z</time>
      </trkpt>
      <trkpt lat="44.49885" lon="6.11345">
        <ele>875.4174805</ele>
        <time>2014-05-04T09:36:04Z</time>
      </trkpt>
      <trkpt lat="44.49848" lon="6.1137">
        <ele>873.4951172</ele>
        <time>2014-05-04T09:36:09Z</time>
      </trkpt>
      <trkpt lat="44.49806" lon="6.11417">
        <ele>869.6499023</ele>
        <time>2014-05-04T09:36:15Z</time>
      </trkpt>
      <trkpt lat="44.49785" lon="6.11429">
        <ele>868.2077637</ele>
        <time>2014-05-04T09:36:18Z</time>
      </trkpt>
      <trkpt lat="44.49778" lon="6.1143">
        <ele>866.7658691</ele>
        <time>2014-05-04T09:36:19Z</time>
      </trkpt>
      <trkpt lat="44.49765" lon="6.1143">
        <ele>866.2851563</ele>
        <time>2014-05-04T09:36:21Z</time>
      </trkpt>
      <trkpt lat="44.49737" lon="6.11471">
        <ele>864.8432617</ele>
        <time>2014-05-04T09:36:28Z</time>
      </trkpt>
      <trkpt lat="44.49738" lon="6.11482">
        <ele>864.3625488</ele>
        <time>2014-05-04T09:36:29Z</time>
      </trkpt>
      <trkpt lat="44.49741" lon="6.11518">
        <ele>861.9594727</ele>
        <time>2014-05-04T09:36:32Z</time>
      </trkpt>
      <trkpt lat="44.49744" lon="6.11569">
        <ele>860.0366211</ele>
        <time>2014-05-04T09:36:37Z</time>
      </trkpt>
      <trkpt lat="44.49732" lon="6.11595">
        <ele>857.6333008</ele>
        <time>2014-05-04T09:36:41Z</time>
      </trkpt>
      <trkpt lat="44.49716" lon="6.11591">
        <ele>856.1911621</ele>
        <time>2014-05-04T09:36:44Z</time>
      </trkpt>
      <trkpt lat="44.49704" lon="6.1157">
        <ele>855.2299805</ele>
        <time>2014-05-04T09:36:47Z</time>
      </trkpt>
      <trkpt lat="44.49695" lon="6.11554">
        <ele>854.2687988</ele>
        <time>2014-05-04T09:36:49Z</time>
      </trkpt>
      <trkpt lat="44.49668" lon="6.11532">
        <ele>852.8266602</ele>
        <time>2014-05-04T09:36:53Z</time>
      </trkpt>
      <trkpt lat="44.49659" lon="6.11529">
        <ele>851.8654785</ele>
        <time>2014-05-04T09:36:54Z</time>
      </trkpt>
      <trkpt lat="44.49611" lon="6.11515">
        <ele>848.0202637</ele>
        <time>2014-05-04T09:36:59Z</time>
      </trkpt>
      <trkpt lat="44.49601" lon="6.11511">
        <ele>848.0202637</ele>
        <time>2014-05-04T09:37:00Z</time>
      </trkpt>
      <trkpt lat="44.49585" lon="6.115">
        <ele>846.0976563</ele>
        <time>2014-05-04T09:37:02Z</time>
      </trkpt>
      <trkpt lat="44.49572" lon="6.11485">
        <ele>844.6555176</ele>
        <time>2014-05-04T09:37:04Z</time>
      </trkpt>
      <trkpt lat="44.49561" lon="6.11465">
        <ele>843.2133789</ele>
        <time>2014-05-04T09:37:06Z</time>
      </trkpt>
      <trkpt lat="44.49549" lon="6.11444">
        <ele>842.7329102</ele>
        <time>2014-05-04T09:37:08Z</time>
      </trkpt>
      <trkpt lat="44.49526" lon="6.11417">
        <ele>841.2907715</ele>
        <time>2014-05-04T09:37:11Z</time>
      </trkpt>
      <trkpt lat="44.49518" lon="6.1141">
        <ele>839.848877</ele>
        <time>2014-05-04T09:37:12Z</time>
      </trkpt>
      <trkpt lat="44.49501" lon="6.11398">
        <ele>838.8876953</ele>
        <time>2014-05-04T09:37:14Z</time>
      </trkpt>
      <trkpt lat="44.49484" lon="6.11387">
        <ele>836.9648438</ele>
        <time>2014-05-04T09:37:16Z</time>
      </trkpt>
      <trkpt lat="44.49447" lon="6.11366">
        <ele>834.5617676</ele>
        <time>2014-05-04T09:37:21Z</time>
      </trkpt>
      <trkpt lat="44.49429" lon="6.11358">
        <ele>833.1196289</ele>
        <time>2014-05-04T09:37:24Z</time>
      </trkpt>
      <trkpt lat="44.49397" lon="6.11386">
        <ele>830.2358398</ele>
        <time>2014-05-04T09:37:32Z</time>
      </trkpt>
      <trkpt lat="44.49401" lon="6.11415">
        <ele>828.7939453</ele>
        <time>2014-05-04T09:37:35Z</time>
      </trkpt>
      <trkpt lat="44.49412" lon="6.11457">
        <ele>827.8322754</ele>
        <time>2014-05-04T09:37:39Z</time>
      </trkpt>
      <trkpt lat="44.49413" lon="6.11504">
        <ele>825.4289551</ele>
        <time>2014-05-04T09:37:43Z</time>
      </trkpt>
      <trkpt lat="44.49408" lon="6.11538">
        <ele>823.5065918</ele>
        <time>2014-05-04T09:37:46Z</time>
      </trkpt>
      <trkpt lat="44.49407" lon="6.11548">
        <ele>823.0258789</ele>
        <time>2014-05-04T09:37:47Z</time>
      </trkpt>
      <trkpt lat="44.49392" lon="6.11575">
        <ele>821.1032715</ele>
        <time>2014-05-04T09:37:51Z</time>
      </trkpt>
      <trkpt lat="44.49363" lon="6.11565">
        <ele>820.1418457</ele>
        <time>2014-05-04T09:37:57Z</time>
      </trkpt>
      <trkpt lat="44.4936" lon="6.11541">
        <ele>818.6999512</ele>
        <time>2014-05-04T09:38:00Z</time>
      </trkpt>
      <trkpt lat="44.49367" lon="6.11514">
        <ele>818.2192383</ele>
        <time>2014-05-04T09:38:03Z</time>
      </trkpt>
      <trkpt lat="44.49374" lon="6.11496">
        <ele>817.2580566</ele>
        <time>2014-05-04T09:38:05Z</time>
      </trkpt>
      <trkpt lat="44.4937" lon="6.11438">
        <ele>814.8547363</ele>
        <time>2014-05-04T09:38:11Z</time>
      </trkpt>
      <trkpt lat="44.49343" lon="6.11372">
        <ele>811.9707031</ele>
        <time>2014-05-04T09:38:18Z</time>
      </trkpt>
      <trkpt lat="44.49336" lon="6.11339">
        <ele>810.5285645</ele>
        <time>2014-05-04T09:38:21Z</time>
      </trkpt>
      <trkpt lat="44.49325" lon="6.11288">
        <ele>807.6447754</ele>
        <time>2014-05-04T09:38:26Z</time>
      </trkpt>
      <trkpt lat="44.49323" lon="6.1128">
        <ele>807.1640625</ele>
        <time>2014-05-04T09:38:27Z</time>
      </trkpt>
      <trkpt lat="44.49321" lon="6.11271">
        <ele>807.1640625</ele>
        <time>2014-05-04T09:38:28Z</time>
      </trkpt>
      <trkpt lat="44.49336" lon="6.1122">
        <ele>804.7607422</ele>
        <time>2014-05-04T09:38:36Z</time>
      </trkpt>
      <trkpt lat="44.49342" lon="6.11216">
        <ele>804.7607422</ele>
        <time>2014-05-04T09:38:37Z</time>
      </trkpt>
      <trkpt lat="44.49373" lon="6.11197">
        <ele>803.3188477</ele>
        <time>2014-05-04T09:38:42Z</time>
      </trkpt>
      <trkpt lat="44.49418" lon="6.11164">
        <ele>801.3962402</ele>
        <time>2014-05-04T09:38:49Z</time>
      </trkpt>
      <trkpt lat="44.49422" lon="6.11102">
        <ele>798.512207</ele>
        <time>2014-05-04T09:38:56Z</time>
      </trkpt>
      <trkpt lat="44.49412" lon="6.11089">
        <ele>797.0703125</ele>
        <time>2014-05-04T09:38:58Z</time>
      </trkpt>
      <trkpt lat="44.49406" lon="6.11086">
        <ele>796.5898438</ele>
        <time>2014-05-04T09:38:59Z</time>
      </trkpt>
      <trkpt lat="44.49376" lon="6.11072">
        <ele>794.666748</ele>
        <time>2014-05-04T09:39:03Z</time>
      </trkpt>
      <trkpt lat="44.49363" lon="6.11058">
        <ele>792.7443848</ele>
        <time>2014-05-04T09:39:05Z</time>
      </trkpt>
      <trkpt lat="44.49349" lon="6.1103">
        <ele>790.8215332</ele>
        <time>2014-05-04T09:39:08Z</time>
      </trkpt>
      <trkpt lat="44.49341" lon="6.11011">
        <ele>791.3022461</ele>
        <time>2014-05-04T09:39:10Z</time>
      </trkpt>
      <trkpt lat="44.49297" lon="6.11">
        <ele>788.418457</ele>
        <time>2014-05-04T09:39:17Z</time>
      </trkpt>
      <trkpt lat="44.49282" lon="6.1101">
        <ele>787.4570313</ele>
        <time>2014-05-04T09:39:19Z</time>
      </trkpt>
      <trkpt lat="44.49266" lon="6.11021">
        <ele>785.5344238</ele>
        <time>2014-05-04T09:39:21Z</time>
      </trkpt>
      <trkpt lat="44.49241" lon="6.11036">
        <ele>784.0925293</ele>
        <time>2014-05-04T09:39:24Z</time>
      </trkpt>
      <trkpt lat="44.49225" lon="6.1104">
        <ele>782.1699219</ele>
        <time>2014-05-04T09:39:26Z</time>
      </trkpt>
      <trkpt lat="44.49191" lon="6.11029">
        <ele>780.2473145</ele>
        <time>2014-05-04T09:39:30Z</time>
      </trkpt>
      <trkpt lat="44.49169" lon="6.11012">
        <ele>777.3632813</ele>
        <time>2014-05-04T09:39:33Z</time>
      </trkpt>
      <trkpt lat="44.49142" lon="6.10992">
        <ele>775.9211426</ele>
        <time>2014-05-04T09:39:37Z</time>
      </trkpt>
      <trkpt lat="44.49112" lon="6.1099">
        <ele>773.9985352</ele>
        <time>2014-05-04T09:39:42Z</time>
      </trkpt>
      <trkpt lat="44.49105" lon="6.10994">
        <ele>773.5180664</ele>
        <time>2014-05-04T09:39:43Z</time>
      </trkpt>
      <trkpt lat="44.49085" lon="6.1101">
        <ele>773.0373535</ele>
        <time>2014-05-04T09:39:46Z</time>
      </trkpt>
      <trkpt lat="44.4907" lon="6.11025">
        <ele>770.6340332</ele>
        <time>2014-05-04T09:39:48Z</time>
      </trkpt>
      <trkpt lat="44.49049" lon="6.11083">
        <ele>767.2695313</ele>
        <time>2014-05-04T09:39:55Z</time>
      </trkpt>
      <trkpt lat="44.4905" lon="6.11092">
        <ele>767.2695313</ele>
        <time>2014-05-04T09:39:56Z</time>
      </trkpt>
      <trkpt lat="44.49051" lon="6.11103">
        <ele>767.2695313</ele>
        <time>2014-05-04T09:39:57Z</time>
      </trkpt>
      <trkpt lat="44.49063" lon="6.11168">
        <ele>764.385498</ele>
        <time>2014-05-04T09:40:03Z</time>
      </trkpt>
      <trkpt lat="44.49074" lon="6.11207">
        <ele>762.4626465</ele>
        <time>2014-05-04T09:40:07Z</time>
      </trkpt>
      <trkpt lat="44.49088" lon="6.11242">
        <ele>760.5400391</ele>
        <time>2014-05-04T09:40:11Z</time>
      </trkpt>
      <trkpt lat="44.49109" lon="6.11259">
        <ele>759.0981445</ele>
        <time>2014-05-04T09:40:14Z</time>
      </trkpt>
      <trkpt lat="44.49126" lon="6.11279">
        <ele>757.65625</ele>
        <time>2014-05-04T09:40:17Z</time>
      </trkpt>
      <trkpt lat="44.4913" lon="6.11285">
        <ele>756.6948242</ele>
        <time>2014-05-04T09:40:18Z</time>
      </trkpt>
      <trkpt lat="44.49124" lon="6.11327">
        <ele>754.291748</ele>
        <time>2014-05-04T09:40:25Z</time>
      </trkpt>
      <trkpt lat="44.4911" lon="6.11323">
        <ele>752.8496094</ele>
        <time>2014-05-04T09:40:28Z</time>
      </trkpt>
      <trkpt lat="44.49106" lon="6.11316">
        <ele>752.3688965</ele>
        <time>2014-05-04T09:40:29Z</time>
      </trkpt>
      <trkpt lat="44.49097" lon="6.11306">
        <ele>751.4077148</ele>
        <time>2014-05-04T09:40:31Z</time>
      </trkpt>
      <trkpt lat="44.49065" lon="6.11304">
        <ele>749.9658203</ele>
        <time>2014-05-04T09:40:35Z</time>
      </trkpt>
      <trkpt lat="44.49028" lon="6.11308">
        <ele>746.6010742</ele>
        <time>2014-05-04T09:40:39Z</time>
      </trkpt>
      <trkpt lat="44.4902" lon="6.11309">
        <ele>746.6010742</ele>
        <time>2014-05-04T09:40:40Z</time>
      </trkpt>
      <trkpt lat="44.49014" lon="6.11311">
        <ele>745.6396484</ele>
        <time>2014-05-04T09:40:41Z</time>
      </trkpt>
      <trkpt lat="44.48992" lon="6.11346">
        <ele>743.717041</ele>
        <time>2014-05-04T09:40:47Z</time>
      </trkpt>
      <trkpt lat="44.49005" lon="6.11393">
        <ele>740.8330078</ele>
        <time>2014-05-04T09:40:52Z</time>
      </trkpt>
      <trkpt lat="44.49039" lon="6.11479">
        <ele>736.987793</ele>
        <time>2014-05-04T09:41:00Z</time>
      </trkpt>
      <trkpt lat="44.49043" lon="6.11488">
        <ele>736.987793</ele>
        <time>2014-05-04T09:41:01Z</time>
      </trkpt>
      <trkpt lat="44.4905" lon="6.11507">
        <ele>736.0266113</ele>
        <time>2014-05-04T09:41:03Z</time>
      </trkpt>
      <trkpt lat="44.49075" lon="6.11563">
        <ele>732.6621094</ele>
        <time>2014-05-04T09:41:09Z</time>
      </trkpt>
      <trkpt lat="44.4908" lon="6.11572">
        <ele>732.6621094</ele>
        <time>2014-05-04T09:41:10Z</time>
      </trkpt>
      <trkpt lat="44.4912" lon="6.11627">
        <ele>729.2971191</ele>
        <time>2014-05-04T09:41:17Z</time>
      </trkpt>
      <trkpt lat="44.49146" lon="6.11654">
        <ele>727.3747559</ele>
        <time>2014-05-04T09:41:21Z</time>
      </trkpt>
      <trkpt lat="44.49164" lon="6.11671">
        <ele>724.9714355</ele>
        <time>2014-05-04T09:41:24Z</time>
      </trkpt>
      <trkpt lat="44.49181" lon="6.11689">
        <ele>724.0100098</ele>
        <time>2014-05-04T09:41:27Z</time>
      </trkpt>
      <trkpt lat="44.49195" lon="6.11712">
        <ele>722.0874023</ele>
        <time>2014-05-04T09:41:30Z</time>
      </trkpt>
      <trkpt lat="44.49195" lon="6.11775">
        <ele>721.1262207</ele>
        <time>2014-05-04T09:41:35Z</time>
      </trkpt>
      <trkpt lat="44.49198" lon="6.11814">
        <ele>718.2421875</ele>
        <time>2014-05-04T09:41:38Z</time>
      </trkpt>
      <trkpt lat="44.49202" lon="6.11848">
        <ele>714.8774414</ele>
        <time>2014-05-04T09:41:41Z</time>
      </trkpt>
      <trkpt lat="44.49203" lon="6.11859">
        <ele>714.8774414</ele>
        <time>2014-05-04T09:41:42Z</time>
      </trkpt>
      <trkpt lat="44.49206" lon="6.11881">
        <ele>712.954834</ele>
        <time>2014-05-04T09:41:44Z</time>
      </trkpt>
      <trkpt lat="44.49211" lon="6.11915">
        <ele>711.5129395</ele>
        <time>2014-05-04T09:41:47Z</time>
      </trkpt>
      <trkpt lat="44.49222" lon="6.11956">
        <ele>711.0322266</ele>
        <time>2014-05-04T09:41:51Z</time>
      </trkpt>
      <trkpt lat="44.49225" lon="6.11989">
        <ele>707.6677246</ele>
        <time>2014-05-04T09:41:54Z</time>
      </trkpt>
      <trkpt lat="44.49231" lon="6.12057">
        <ele>704.3032227</ele>
        <time>2014-05-04T09:42:00Z</time>
      </trkpt>
      <trkpt lat="44.49232" lon="6.1207">
        <ele>704.3032227</ele>
        <time>2014-05-04T09:42:01Z</time>
      </trkpt>
      <trkpt lat="44.49235" lon="6.12094">
        <ele>702.861084</ele>
        <time>2014-05-04T09:42:03Z</time>
      </trkpt>
      <trkpt lat="44.49244" lon="6.12152">
        <ele>700.4580078</ele>
        <time>2014-05-04T09:42:08Z</time>
      </trkpt>
      <trkpt lat="44.49246" lon="6.12175">
        <ele>698.5349121</ele>
        <time>2014-05-04T09:42:10Z</time>
      </trkpt>
      <trkpt lat="44.49245" lon="6.12232">
        <ele>696.1318359</ele>
        <time>2014-05-04T09:42:16Z</time>
      </trkpt>
      <trkpt lat="44.49241" lon="6.12245">
        <ele>695.1704102</ele>
        <time>2014-05-04T09:42:18Z</time>
      </trkpt>
      <trkpt lat="44.49228" lon="6.12261">
        <ele>692.767334</ele>
        <time>2014-05-04T09:42:22Z</time>
      </trkpt>
      <trkpt lat="44.49221" lon="6.12266">
        <ele>691.8059082</ele>
        <time>2014-05-04T09:42:33Z</time>
      </trkpt>
      <trkpt lat="44.49221" lon="6.12266">
        <ele>690.3640137</ele>
        <time>2014-05-04T09:42:44Z</time>
      </trkpt>
      <trkpt lat="44.49221" lon="6.12266">
        <ele>692.2866211</ele>
        <time>2014-05-04T09:42:47Z</time>
      </trkpt>
      <trkpt lat="44.49218" lon="6.12268">
        <ele>691.8059082</ele>
        <time>2014-05-04T09:43:09Z</time>
      </trkpt>
      <trkpt lat="44.49212" lon="6.12285">
        <ele>691.3251953</ele>
        <time>2014-05-04T09:43:13Z</time>
      </trkpt>
      <trkpt lat="44.49205" lon="6.12302">
        <ele>690.8444824</ele>
        <time>2014-05-04T09:43:16Z</time>
      </trkpt>
      <trkpt lat="44.49184" lon="6.12337">
        <ele>689.4025879</ele>
        <time>2014-05-04T09:43:22Z</time>
      </trkpt>
      <trkpt lat="44.49154" lon="6.12373">
        <ele>688.4414063</ele>
        <time>2014-05-04T09:43:28Z</time>
      </trkpt>
      <trkpt lat="44.49122" lon="6.12421">
        <ele>686.0380859</ele>
        <time>2014-05-04T09:43:34Z</time>
      </trkpt>
      <trkpt lat="44.49104" lon="6.12482">
        <ele>683.1538086</ele>
        <time>2014-05-04T09:43:40Z</time>
      </trkpt>
      <trkpt lat="44.49102" lon="6.12508">
        <ele>683.1538086</ele>
        <time>2014-05-04T09:43:42Z</time>
      </trkpt>
      <trkpt lat="44.49104" lon="6.12541">
        <ele>681.7119141</ele>
        <time>2014-05-04T09:43:45Z</time>
      </trkpt>
      <trkpt lat="44.49108" lon="6.12561">
        <ele>680.2700195</ele>
        <time>2014-05-04T09:43:47Z</time>
      </trkpt>
      <trkpt lat="44.49117" lon="6.12591">
        <ele>677.8666992</ele>
        <time>2014-05-04T09:43:50Z</time>
      </trkpt>
      <trkpt lat="44.4912" lon="6.126">
        <ele>677.8666992</ele>
        <time>2014-05-04T09:43:51Z</time>
      </trkpt>
      <trkpt lat="44.49124" lon="6.12617">
        <ele>677.8666992</ele>
        <time>2014-05-04T09:43:53Z</time>
      </trkpt>
      <trkpt lat="44.49127" lon="6.12655">
        <ele>674.5021973</ele>
        <time>2014-05-04T09:43:58Z</time>
      </trkpt>
      <trkpt lat="44.49124" lon="6.12664">
        <ele>674.5021973</ele>
        <time>2014-05-04T09:43:59Z</time>
      </trkpt>
      <trkpt lat="44.49108" lon="6.12702">
        <ele>671.6181641</ele>
        <time>2014-05-04T09:44:03Z</time>
      </trkpt>
      <trkpt lat="44.49088" lon="6.12743">
        <ele>671.1376953</ele>
        <time>2014-05-04T09:44:08Z</time>
      </trkpt>
      <trkpt lat="44.49079" lon="6.12754">
        <ele>669.6958008</ele>
        <time>2014-05-04T09:44:10Z</time>
      </trkpt>
      <trkpt lat="44.49068" lon="6.12768">
        <ele>669.2150879</ele>
        <time>2014-05-04T09:44:13Z</time>
      </trkpt>
      <trkpt lat="44.49044" lon="6.12827">
        <ele>669.6958008</ele>
        <time>2014-05-04T09:44:26Z</time>
      </trkpt>
      <trkpt lat="44.49039" lon="6.12854">
        <ele>671.6181641</ele>
        <time>2014-05-04T09:44:34Z</time>
      </trkpt>
      <trkpt lat="44.4904" lon="6.12883">
        <ele>671.6181641</ele>
        <time>2014-05-04T09:44:43Z</time>
      </trkpt>
      <trkpt lat="44.49032" lon="6.12895">
        <ele>675.4633789</ele>
        <time>2014-05-04T09:44:50Z</time>
      </trkpt>
      <trkpt lat="44.49031" lon="6.12893">
        <ele>675.4633789</ele>
        <time>2014-05-04T09:44:51Z</time>
      </trkpt>
      <trkpt lat="44.49004" lon="6.12859">
        <ele>677.8666992</ele>
        <time>2014-05-04T09:45:05Z</time>
      </trkpt>
      <trkpt lat="44.48993" lon="6.12848">
        <ele>679.3085938</ele>
        <time>2014-05-04T09:45:11Z</time>
      </trkpt>
      <trkpt lat="44.48978" lon="6.12815">
        <ele>680.7507324</ele>
        <time>2014-05-04T09:45:24Z</time>
      </trkpt>
      <trkpt lat="44.48956" lon="6.12802">
        <ele>680.7507324</ele>
        <time>2014-05-04T09:45:33Z</time>
      </trkpt>
      <trkpt lat="44.48914" lon="6.12773">
        <ele>679.7893066</ele>
        <time>2014-05-04T09:45:46Z</time>
      </trkpt>
      <trkpt lat="44.48883" lon="6.12747">
        <ele>680.2700195</ele>
        <time>2014-05-04T09:45:58Z</time>
      </trkpt>
      <trkpt lat="44.48853" lon="6.12716">
        <ele>681.2314453</ele>
        <time>2014-05-04T09:46:12Z</time>
      </trkpt>
      <trkpt lat="44.48829" lon="6.12691">
        <ele>681.7119141</ele>
        <time>2014-05-04T09:46:22Z</time>
      </trkpt>
      <trkpt lat="44.48823" lon="6.12682">
        <ele>681.2314453</ele>
        <time>2014-05-04T09:46:26Z</time>
      </trkpt>
      <trkpt lat="44.488" lon="6.12645">
        <ele>682.6733398</ele>
        <time>2014-05-04T09:46:43Z</time>
      </trkpt>
      <trkpt lat="44.48788" lon="6.12621">
        <ele>681.2314453</ele>
        <time>2014-05-04T09:46:49Z</time>
      </trkpt>
      <trkpt lat="44.48786" lon="6.12598">
        <ele>679.7893066</ele>
        <time>2014-05-04T09:46:54Z</time>
      </trkpt>
      <trkpt lat="44.48785" lon="6.12573">
        <ele>678.3474121</ele>
        <time>2014-05-04T09:46:58Z</time>
      </trkpt>
      <trkpt lat="44.48776" lon="6.1252">
        <ele>674.9829102</ele>
        <time>2014-05-04T09:47:05Z</time>
      </trkpt>
      <trkpt lat="44.48771" lon="6.12494">
        <ele>673.0603027</ele>
        <time>2014-05-04T09:47:09Z</time>
      </trkpt>
      <trkpt lat="44.48767" lon="6.12472">
        <ele>671.1376953</ele>
        <time>2014-05-04T09:47:12Z</time>
      </trkpt>
      <trkpt lat="44.48759" lon="6.12448">
        <ele>670.6569824</ele>
        <time>2014-05-04T09:47:15Z</time>
      </trkpt>
      <trkpt lat="44.4872" lon="6.12373">
        <ele>670.1762695</ele>
        <time>2014-05-04T09:47:26Z</time>
      </trkpt>
      <trkpt lat="44.48695" lon="6.12306">
        <ele>670.6569824</ele>
        <time>2014-05-04T09:47:38Z</time>
      </trkpt>
      <trkpt lat="44.48675" lon="6.12257">
        <ele>670.1762695</ele>
        <time>2014-05-04T09:47:48Z</time>
      </trkpt>
      <trkpt lat="44.48661" lon="6.122">
        <ele>667.2922363</ele>
        <time>2014-05-04T09:47:58Z</time>
      </trkpt>
      <trkpt lat="44.48659" lon="6.12188">
        <ele>667.2922363</ele>
        <time>2014-05-04T09:48:00Z</time>
      </trkpt>
      <trkpt lat="44.48626" lon="6.12037">
        <ele>665.3696289</ele>
        <time>2014-05-04T09:48:15Z</time>
      </trkpt>
      <trkpt lat="44.48623" lon="6.11979">
        <ele>665.8503418</ele>
        <time>2014-05-04T09:48:22Z</time>
      </trkpt>
      <trkpt lat="44.48621" lon="6.11913">
        <ele>666.3308105</ele>
        <time>2014-05-04T09:48:33Z</time>
      </trkpt>
      <trkpt lat="44.4862" lon="6.11908">
        <ele>666.3308105</ele>
        <time>2014-05-04T09:48:34Z</time>
      </trkpt>
      <trkpt lat="44.48592" lon="6.1185">
        <ele>666.3308105</ele>
        <time>2014-05-04T09:48:45Z</time>
      </trkpt>
      <trkpt lat="44.4857" lon="6.11791">
        <ele>666.8115234</ele>
        <time>2014-05-04T09:48:56Z</time>
      </trkpt>
      <trkpt lat="44.48534" lon="6.11738">
        <ele>667.7727051</ele>
        <time>2014-05-04T09:49:09Z</time>
      </trkpt>
      <trkpt lat="44.48513" lon="6.11694">
        <ele>668.2536621</ele>
        <time>2014-05-04T09:49:20Z</time>
      </trkpt>
      <trkpt lat="44.4849" lon="6.11632">
        <ele>669.2150879</ele>
        <time>2014-05-04T09:49:33Z</time>
      </trkpt>
      <trkpt lat="44.48457" lon="6.11565">
        <ele>669.2150879</ele>
        <time>2014-05-04T09:49:45Z</time>
      </trkpt>
      <trkpt lat="44.48453" lon="6.1156">
        <ele>669.2150879</ele>
        <time>2014-05-04T09:49:46Z</time>
      </trkpt>
      <trkpt lat="44.48436" lon="6.11534">
        <ele>669.2150879</ele>
        <time>2014-05-04T09:49:51Z</time>
      </trkpt>
      <trkpt lat="44.48405" lon="6.11466">
        <ele>669.6958008</ele>
        <time>2014-05-04T09:50:04Z</time>
      </trkpt>
      <trkpt lat="44.48372" lon="6.1141">
        <ele>670.6569824</ele>
        <time>2014-05-04T09:50:17Z</time>
      </trkpt>
      <trkpt lat="44.48335" lon="6.11343">
        <ele>671.1376953</ele>
        <time>2014-05-04T09:50:32Z</time>
      </trkpt>
      <trkpt lat="44.48324" lon="6.11324">
        <ele>671.6181641</ele>
        <time>2014-05-04T09:50:36Z</time>
      </trkpt>
      <trkpt lat="44.48267" lon="6.11262">
        <ele>671.1376953</ele>
        <time>2014-05-04T09:50:54Z</time>
      </trkpt>
      <trkpt lat="44.48178" lon="6.11169">
        <ele>668.2536621</ele>
        <time>2014-05-04T09:51:15Z</time>
      </trkpt>
      <trkpt lat="44.4816" lon="6.11143">
        <ele>666.3308105</ele>
        <time>2014-05-04T09:51:19Z</time>
      </trkpt>
      <trkpt lat="44.48107" lon="6.11123">
        <ele>662.9663086</ele>
        <time>2014-05-04T09:51:27Z</time>
      </trkpt>
      <trkpt lat="44.48098" lon="6.11125">
        <ele>662.9663086</ele>
        <time>2014-05-04T09:51:28Z</time>
      </trkpt>
      <trkpt lat="44.48055" lon="6.11142">
        <ele>660.0822754</ele>
        <time>2014-05-04T09:51:33Z</time>
      </trkpt>
      <trkpt lat="44.47972" lon="6.11167">
        <ele>657.6791992</ele>
        <time>2014-05-04T09:51:43Z</time>
      </trkpt>
      <trkpt lat="44.47911" lon="6.11145">
        <ele>655.2758789</ele>
        <time>2014-05-04T09:51:51Z</time>
      </trkpt>
      <trkpt lat="44.47861" lon="6.1113">
        <ele>650.949707</ele>
        <time>2014-05-04T09:51:57Z</time>
      </trkpt>
      <trkpt lat="44.47853" lon="6.11128">
        <ele>650.949707</ele>
        <time>2014-05-04T09:51:58Z</time>
      </trkpt>
      <trkpt lat="44.4782" lon="6.1112">
        <ele>648.065918</ele>
        <time>2014-05-04T09:52:02Z</time>
      </trkpt>
      <trkpt lat="44.47813" lon="6.11118">
        <ele>648.065918</ele>
        <time>2014-05-04T09:52:03Z</time>
      </trkpt>
      <trkpt lat="44.47787" lon="6.11102">
        <ele>646.6240234</ele>
        <time>2014-05-04T09:52:07Z</time>
      </trkpt>
      <trkpt lat="44.47769" lon="6.11081">
        <ele>643.7399902</ele>
        <time>2014-05-04T09:52:10Z</time>
      </trkpt>
      <trkpt lat="44.47749" lon="6.11061">
        <ele>640.3754883</ele>
        <time>2014-05-04T09:52:13Z</time>
      </trkpt>
      <trkpt lat="44.47742" lon="6.11054">
        <ele>640.3754883</ele>
        <time>2014-05-04T09:52:14Z</time>
      </trkpt>
      <trkpt lat="44.4773" lon="6.11041">
        <ele>637.4914551</ele>
        <time>2014-05-04T09:52:16Z</time>
      </trkpt>
      <trkpt lat="44.47724" lon="6.11035">
        <ele>637.4914551</ele>
        <time>2014-05-04T09:52:17Z</time>
      </trkpt>
      <trkpt lat="44.47693" lon="6.11003">
        <ele>632.6848145</ele>
        <time>2014-05-04T09:52:23Z</time>
      </trkpt>
      <trkpt lat="44.47689" lon="6.10998">
        <ele>632.6848145</ele>
        <time>2014-05-04T09:52:24Z</time>
      </trkpt>
      <trkpt lat="44.47669" lon="6.10981">
        <ele>630.2814941</ele>
        <time>2014-05-04T09:52:33Z</time>
      </trkpt>
      <trkpt lat="44.47669" lon="6.10981">
        <ele>629.3200684</ele>
        <time>2014-05-04T09:52:36Z</time>
      </trkpt>
      <trkpt lat="44.47655" lon="6.11005">
        <ele>629.3200684</ele>
        <time>2014-05-04T09:52:44Z</time>
      </trkpt>
      <trkpt lat="44.4765" lon="6.11029">
        <ele>627.8781738</ele>
        <time>2014-05-04T09:52:47Z</time>
      </trkpt>
      <trkpt lat="44.47632" lon="6.11098">
        <ele>625.4748535</ele>
        <time>2014-05-04T09:52:54Z</time>
      </trkpt>
      <trkpt lat="44.47625" lon="6.1113">
        <ele>623.5524902</ele>
        <time>2014-05-04T09:52:58Z</time>
      </trkpt>
      <trkpt lat="44.47621" lon="6.11151">
        <ele>622.1103516</ele>
        <time>2014-05-04T09:53:01Z</time>
      </trkpt>
      <trkpt lat="44.47603" lon="6.11179">
        <ele>620.668457</ele>
        <time>2014-05-04T09:53:07Z</time>
      </trkpt>
      <trkpt lat="44.47583" lon="6.11184">
        <ele>620.668457</ele>
        <time>2014-05-04T09:53:11Z</time>
      </trkpt>
      <trkpt lat="44.47531" lon="6.11193">
        <ele>619.7070313</ele>
        <time>2014-05-04T09:53:21Z</time>
      </trkpt>
      <trkpt lat="44.47481" lon="6.11198">
        <ele>621.1491699</ele>
        <time>2014-05-04T09:53:35Z</time>
      </trkpt>
      <trkpt lat="44.47473" lon="6.11199">
        <ele>621.6296387</ele>
        <time>2014-05-04T09:53:39Z</time>
      </trkpt>
      <trkpt lat="44.47466" lon="6.11192">
        <ele>622.1103516</ele>
        <time>2014-05-04T09:53:53Z</time>
      </trkpt>
      <trkpt lat="44.47468" lon="6.11188">
        <ele>622.1103516</ele>
        <time>2014-05-04T09:54:09Z</time>
      </trkpt>
      <trkpt lat="44.47468" lon="6.11185">
        <ele>622.1103516</ele>
        <time>2014-05-04T09:54:30Z</time>
      </trkpt>
      <trkpt lat="44.47468" lon="6.11187">
        <ele>621.6296387</ele>
        <time>2014-05-04T09:55:54Z</time>
      </trkpt>
      <trkpt lat="44.47469" lon="6.11189">
        <ele>621.6296387</ele>
        <time>2014-05-04T09:56:17Z</time>
      </trkpt>
      <trkpt lat="44.47469" lon="6.11189">
        <ele>623.0717773</ele>
        <time>2014-05-04T09:56:41Z</time>
      </trkpt>
      <trkpt lat="44.47469" lon="6.11189">
        <ele>624.032959</ele>
        <time>2014-05-04T09:56:54Z</time>
      </trkpt>
      <trkpt lat="44.47467" lon="6.11199">
        <ele>624.9943848</ele>
        <time>2014-05-04T09:58:00Z</time>
      </trkpt>
      <trkpt lat="44.47466" lon="6.11198">
        <ele>624.5136719</ele>
        <time>2014-05-04T09:58:07Z</time>
      </trkpt>
      <trkpt lat="44.47463" lon="6.112">
        <ele>623.0717773</ele>
        <time>2014-05-04T09:58:09Z</time>
      </trkpt>
      <trkpt lat="44.47462" lon="6.112">
        <ele>624.032959</ele>
        <time>2014-05-04T09:58:29Z</time>
      </trkpt>
      <trkpt lat="44.47465" lon="6.11215">
        <ele>623.5524902</ele>
        <time>2014-05-04T09:58:35Z</time>
      </trkpt>
      <trkpt lat="44.47466" lon="6.11203">
        <ele>623.5524902</ele>
        <time>2014-05-04T09:58:43Z</time>
      </trkpt>
      <trkpt lat="44.47461" lon="6.11201">
        <ele>623.5524902</ele>
        <time>2014-05-04T09:58:46Z</time>
      </trkpt>
      <trkpt lat="44.47444" lon="6.11204">
        <ele>625.9555664</ele>
        <time>2014-05-04T09:58:55Z</time>
      </trkpt>
      <trkpt lat="44.47395" lon="6.11216">
        <ele>629.3200684</ele>
        <time>2014-05-04T09:59:21Z</time>
      </trkpt>
      <trkpt lat="44.47392" lon="6.11216">
        <ele>630.2814941</ele>
        <time>2014-05-04T09:59:23Z</time>
      </trkpt>
      <trkpt lat="44.47365" lon="6.11221">
        <ele>634.126709</ele>
        <time>2014-05-04T09:59:38Z</time>
      </trkpt>
      <trkpt lat="44.47334" lon="6.11226">
        <ele>637.4914551</ele>
        <time>2014-05-04T09:59:56Z</time>
      </trkpt>
      <trkpt lat="44.47332" lon="6.11226">
        <ele>637.4914551</ele>
        <time>2014-05-04T09:59:57Z</time>
      </trkpt>
      <trkpt lat="44.47315" lon="6.11227">
        <ele>639.4140625</ele>
        <time>2014-05-04T10:00:07Z</time>
      </trkpt>
      <trkpt lat="44.47288" lon="6.11229">
        <ele>642.2980957</ele>
        <time>2014-05-04T10:00:22Z</time>
      </trkpt>
      <trkpt lat="44.47254" lon="6.11233">
        <ele>645.6625977</ele>
        <time>2014-05-04T10:00:42Z</time>
      </trkpt>
      <trkpt lat="44.47251" lon="6.11234">
        <ele>642.7788086</ele>
        <time>2014-05-04T10:00:44Z</time>
      </trkpt>
      <trkpt lat="44.47229" lon="6.11238">
        <ele>645.6625977</ele>
        <time>2014-05-04T10:00:56Z</time>
      </trkpt>
      <trkpt lat="44.47203" lon="6.11245">
        <ele>648.5463867</ele>
        <time>2014-05-04T10:01:11Z</time>
      </trkpt>
      <trkpt lat="44.47158" lon="6.11256">
        <ele>650.949707</ele>
        <time>2014-05-04T10:01:36Z</time>
      </trkpt>
      <trkpt lat="44.47147" lon="6.11258">
        <ele>652.8725586</ele>
        <time>2014-05-04T10:01:42Z</time>
      </trkpt>
      <trkpt lat="44.47132" lon="6.11258">
        <ele>655.2758789</ele>
        <time>2014-05-04T10:01:51Z</time>
      </trkpt>
      <trkpt lat="44.47119" lon="6.11259">
        <ele>656.7177734</ele>
        <time>2014-05-04T10:01:58Z</time>
      </trkpt>
      <trkpt lat="44.4708" lon="6.11258">
        <ele>656.7177734</ele>
        <time>2014-05-04T10:02:19Z</time>
      </trkpt>
      <trkpt lat="44.47068" lon="6.11258">
        <ele>659.1210938</ele>
        <time>2014-05-04T10:02:25Z</time>
      </trkpt>
      <trkpt lat="44.47024" lon="6.11266">
        <ele>662.9663086</ele>
        <time>2014-05-04T10:02:48Z</time>
      </trkpt>
      <trkpt lat="44.46996" lon="6.11273">
        <ele>665.3696289</ele>
        <time>2014-05-04T10:03:03Z</time>
      </trkpt>
      <trkpt lat="44.4696" lon="6.11286">
        <ele>668.734375</ele>
        <time>2014-05-04T10:03:24Z</time>
      </trkpt>
      <trkpt lat="44.46931" lon="6.11298">
        <ele>671.6181641</ele>
        <time>2014-05-04T10:03:41Z</time>
      </trkpt>
      <trkpt lat="44.46927" lon="6.11299">
        <ele>672.098877</ele>
        <time>2014-05-04T10:03:43Z</time>
      </trkpt>
      <trkpt lat="44.46933" lon="6.11334">
        <ele>672.5795898</ele>
        <time>2014-05-04T10:03:55Z</time>
      </trkpt>
      <trkpt lat="44.46944" lon="6.11379">
        <ele>674.0214844</ele>
        <time>2014-05-04T10:04:11Z</time>
      </trkpt>
      <trkpt lat="44.46948" lon="6.11433">
        <ele>675.4633789</ele>
        <time>2014-05-04T10:04:31Z</time>
      </trkpt>
      <trkpt lat="44.46939" lon="6.11464">
        <ele>676.9055176</ele>
        <time>2014-05-04T10:04:43Z</time>
      </trkpt>
      <trkpt lat="44.46936" lon="6.11505">
        <ele>677.8666992</ele>
        <time>2014-05-04T10:04:56Z</time>
      </trkpt>
      <trkpt lat="44.46938" lon="6.11537">
        <ele>678.828125</ele>
        <time>2014-05-04T10:05:07Z</time>
      </trkpt>
      <trkpt lat="44.46937" lon="6.11548">
        <ele>678.828125</ele>
        <time>2014-05-04T10:05:11Z</time>
      </trkpt>
      <trkpt lat="44.46923" lon="6.11575">
        <ele>680.7507324</ele>
        <time>2014-05-04T10:05:25Z</time>
      </trkpt>
      <trkpt lat="44.46911" lon="6.11585">
        <ele>682.6733398</ele>
        <time>2014-05-04T10:05:34Z</time>
      </trkpt>
      <trkpt lat="44.46908" lon="6.11588">
        <ele>683.1538086</ele>
        <time>2014-05-04T10:05:36Z</time>
      </trkpt>
      <trkpt lat="44.46906" lon="6.11589">
        <ele>683.1538086</ele>
        <time>2014-05-04T10:05:38Z</time>
      </trkpt>
      <trkpt lat="44.4689" lon="6.11619">
        <ele>685.557373</ele>
        <time>2014-05-04T10:05:53Z</time>
      </trkpt>
      <trkpt lat="44.46872" lon="6.11653">
        <ele>688.4414063</ele>
        <time>2014-05-04T10:06:09Z</time>
      </trkpt>
      <trkpt lat="44.46848" lon="6.11698">
        <ele>691.8059082</ele>
        <time>2014-05-04T10:06:32Z</time>
      </trkpt>
      <trkpt lat="44.4682" lon="6.11739">
        <ele>693.7285156</ele>
        <time>2014-05-04T10:06:52Z</time>
      </trkpt>
      <trkpt lat="44.46787" lon="6.11788">
        <ele>695.1704102</ele>
        <time>2014-05-04T10:07:13Z</time>
      </trkpt>
      <trkpt lat="44.46751" lon="6.11842">
        <ele>696.6125488</ele>
        <time>2014-05-04T10:07:38Z</time>
      </trkpt>
      <trkpt lat="44.46718" lon="6.11882">
        <ele>698.0544434</ele>
        <time>2014-05-04T10:07:58Z</time>
      </trkpt>
      <trkpt lat="44.46696" lon="6.11913">
        <ele>699.015625</ele>
        <time>2014-05-04T10:08:13Z</time>
      </trkpt>
      <trkpt lat="44.46666" lon="6.11952">
        <ele>700.4580078</ele>
        <time>2014-05-04T10:08:32Z</time>
      </trkpt>
      <trkpt lat="44.46635" lon="6.1198">
        <ele>701.8999023</ele>
        <time>2014-05-04T10:08:50Z</time>
      </trkpt>
      <trkpt lat="44.46605" lon="6.12003">
        <ele>703.3417969</ele>
        <time>2014-05-04T10:09:06Z</time>
      </trkpt>
      <trkpt lat="44.46581" lon="6.12013">
        <ele>704.3032227</ele>
        <time>2014-05-04T10:09:19Z</time>
      </trkpt>
      <trkpt lat="44.46572" lon="6.12014">
        <ele>705.2644043</ele>
        <time>2014-05-04T10:09:24Z</time>
      </trkpt>
      <trkpt lat="44.46566" lon="6.12015">
        <ele>706.2255859</ele>
        <time>2014-05-04T10:09:28Z</time>
      </trkpt>
      <trkpt lat="44.46559" lon="6.12013">
        <ele>706.2255859</ele>
        <time>2014-05-04T10:09:45Z</time>
      </trkpt>
      <trkpt lat="44.46558" lon="6.12015">
        <ele>705.7451172</ele>
        <time>2014-05-04T10:11:50Z</time>
      </trkpt>
      <trkpt lat="44.46556" lon="6.12018">
        <ele>705.2644043</ele>
        <time>2014-05-04T10:11:52Z</time>
      </trkpt>
      <trkpt lat="44.46554" lon="6.12022">
        <ele>705.7451172</ele>
        <time>2014-05-04T10:11:54Z</time>
      </trkpt>
      <trkpt lat="44.46551" lon="6.12025">
        <ele>706.2255859</ele>
        <time>2014-05-04T10:11:57Z</time>
      </trkpt>
      <trkpt lat="44.46541" lon="6.12035">
        <ele>708.1484375</ele>
        <time>2014-05-04T10:12:04Z</time>
      </trkpt>
      <trkpt lat="44.46532" lon="6.12051">
        <ele>710.5515137</ele>
        <time>2014-05-04T10:12:11Z</time>
      </trkpt>
      <trkpt lat="44.4653" lon="6.12055">
        <ele>709.1096191</ele>
        <time>2014-05-04T10:12:13Z</time>
      </trkpt>
      <trkpt lat="44.46523" lon="6.12066">
        <ele>708.6289063</ele>
        <time>2014-05-04T10:12:20Z</time>
      </trkpt>
      <trkpt lat="44.46518" lon="6.12078">
        <ele>711.0322266</ele>
        <time>2014-05-04T10:12:25Z</time>
      </trkpt>
      <trkpt lat="44.46504" lon="6.12109">
        <ele>712.4741211</ele>
        <time>2014-05-04T10:12:41Z</time>
      </trkpt>
      <trkpt lat="44.46498" lon="6.12114">
        <ele>713.9160156</ele>
        <time>2014-05-04T10:12:45Z</time>
      </trkpt>
      <trkpt lat="44.46493" lon="6.12114">
        <ele>714.3967285</ele>
        <time>2014-05-04T10:12:48Z</time>
      </trkpt>
      <trkpt lat="44.46492" lon="6.1211">
        <ele>714.8774414</ele>
        <time>2014-05-04T10:12:51Z</time>
      </trkpt>
      <trkpt lat="44.46491" lon="6.12099">
        <ele>715.8388672</ele>
        <time>2014-05-04T10:12:57Z</time>
      </trkpt>
      <trkpt lat="44.46496" lon="6.12079">
        <ele>718.2421875</ele>
        <time>2014-05-04T10:13:15Z</time>
      </trkpt>
      <trkpt lat="44.46505" lon="6.12069">
        <ele>718.7229004</ele>
        <time>2014-05-04T10:13:21Z</time>
      </trkpt>
      <trkpt lat="44.46509" lon="6.12044">
        <ele>722.5681152</ele>
        <time>2014-05-04T10:13:34Z</time>
      </trkpt>
      <trkpt lat="44.4651" lon="6.12036">
        <ele>723.0488281</ele>
        <time>2014-05-04T10:13:38Z</time>
      </trkpt>
      <trkpt lat="44.46508" lon="6.12002">
        <ele>725.4519043</ele>
        <time>2014-05-04T10:13:56Z</time>
      </trkpt>
      <trkpt lat="44.46508" lon="6.1199">
        <ele>725.9326172</ele>
        <time>2014-05-04T10:14:05Z</time>
      </trkpt>
      <trkpt lat="44.46511" lon="6.11974">
        <ele>727.3747559</ele>
        <time>2014-05-04T10:14:16Z</time>
      </trkpt>
      <trkpt lat="44.4653" lon="6.11937">
        <ele>730.7392578</ele>
        <time>2014-05-04T10:14:38Z</time>
      </trkpt>
      <trkpt lat="44.46537" lon="6.11926">
        <ele>731.2199707</ele>
        <time>2014-05-04T10:14:44Z</time>
      </trkpt>
      <trkpt lat="44.46545" lon="6.11914">
        <ele>731.7004395</ele>
        <time>2014-05-04T10:14:53Z</time>
      </trkpt>
      <trkpt lat="44.46562" lon="6.11902">
        <ele>733.1425781</ele>
        <time>2014-05-04T10:15:04Z</time>
      </trkpt>
      <trkpt lat="44.46565" lon="6.11896">
        <ele>734.1040039</ele>
        <time>2014-05-04T10:15:09Z</time>
      </trkpt>
      <trkpt lat="44.46572" lon="6.11891">
        <ele>734.5847168</ele>
        <time>2014-05-04T10:15:13Z</time>
      </trkpt>
      <trkpt lat="44.46579" lon="6.11884">
        <ele>735.0654297</ele>
        <time>2014-05-04T10:15:18Z</time>
      </trkpt>
      <trkpt lat="44.46582" lon="6.11881">
        <ele>735.5458984</ele>
        <time>2014-05-04T10:15:20Z</time>
      </trkpt>
      <trkpt lat="44.466" lon="6.11844">
        <ele>738.4299316</ele>
        <time>2014-05-04T10:15:39Z</time>
      </trkpt>
      <trkpt lat="44.46604" lon="6.11835">
        <ele>738.9106445</ele>
        <time>2014-05-04T10:15:43Z</time>
      </trkpt>
      <trkpt lat="44.46603" lon="6.11826">
        <ele>739.3911133</ele>
        <time>2014-05-04T10:15:47Z</time>
      </trkpt>
      <trkpt lat="44.46603" lon="6.11782">
        <ele>742.2751465</ele>
        <time>2014-05-04T10:16:06Z</time>
      </trkpt>
      <trkpt lat="44.46615" lon="6.11731">
        <ele>744.6782227</ele>
        <time>2014-05-04T10:16:28Z</time>
      </trkpt>
      <trkpt lat="44.46608" lon="6.11716">
        <ele>745.6396484</ele>
        <time>2014-05-04T10:16:35Z</time>
      </trkpt>
      <trkpt lat="44.46601" lon="6.11718">
        <ele>746.1203613</ele>
        <time>2014-05-04T10:16:40Z</time>
      </trkpt>
      <trkpt lat="44.46584" lon="6.11755">
        <ele>748.0432129</ele>
        <time>2014-05-04T10:16:58Z</time>
      </trkpt>
      <trkpt lat="44.46569" lon="6.11778">
        <ele>749.4851074</ele>
        <time>2014-05-04T10:17:12Z</time>
      </trkpt>
      <trkpt lat="44.46555" lon="6.11795">
        <ele>751.4077148</ele>
        <time>2014-05-04T10:17:22Z</time>
      </trkpt>
      <trkpt lat="44.46551" lon="6.11799">
        <ele>751.8884277</ele>
        <time>2014-05-04T10:17:25Z</time>
      </trkpt>
      <trkpt lat="44.4653" lon="6.11824">
        <ele>753.3303223</ele>
        <time>2014-05-04T10:17:41Z</time>
      </trkpt>
      <trkpt lat="44.46524" lon="6.11838">
        <ele>754.291748</ele>
        <time>2014-05-04T10:17:47Z</time>
      </trkpt>
      <trkpt lat="44.4652" lon="6.11841">
        <ele>754.291748</ele>
        <time>2014-05-04T10:17:50Z</time>
      </trkpt>
      <trkpt lat="44.4651" lon="6.11834">
        <ele>756.2141113</ele>
        <time>2014-05-04T10:18:00Z</time>
      </trkpt>
      <trkpt lat="44.46512" lon="6.11823">
        <ele>756.6948242</ele>
        <time>2014-05-04T10:18:04Z</time>
      </trkpt>
      <trkpt lat="44.46518" lon="6.1181">
        <ele>756.6948242</ele>
        <time>2014-05-04T10:18:10Z</time>
      </trkpt>
      <trkpt lat="44.46519" lon="6.11805">
        <ele>757.1755371</ele>
        <time>2014-05-04T10:18:13Z</time>
      </trkpt>
      <trkpt lat="44.46536" lon="6.11767">
        <ele>759.5788574</ele>
        <time>2014-05-04T10:18:32Z</time>
      </trkpt>
      <trkpt lat="44.46551" lon="6.1173">
        <ele>761.5014648</ele>
        <time>2014-05-04T10:18:51Z</time>
      </trkpt>
      <trkpt lat="44.46553" lon="6.11719">
        <ele>762.4626465</ele>
        <time>2014-05-04T10:18:56Z</time>
      </trkpt>
      <trkpt lat="44.46552" lon="6.11715">
        <ele>762.4626465</ele>
        <time>2014-05-04T10:18:58Z</time>
      </trkpt>
      <trkpt lat="44.46544" lon="6.11707">
        <ele>763.4240723</ele>
        <time>2014-05-04T10:19:04Z</time>
      </trkpt>
      <trkpt lat="44.46541" lon="6.11708">
        <ele>763.4240723</ele>
        <time>2014-05-04T10:19:06Z</time>
      </trkpt>
      <trkpt lat="44.46533" lon="6.11719">
        <ele>764.385498</ele>
        <time>2014-05-04T10:19:13Z</time>
      </trkpt>
      <trkpt lat="44.46531" lon="6.11724">
        <ele>764.385498</ele>
        <time>2014-05-04T10:19:16Z</time>
      </trkpt>
      <trkpt lat="44.46517" lon="6.11747">
        <ele>766.3081055</ele>
        <time>2014-05-04T10:19:30Z</time>
      </trkpt>
      <trkpt lat="44.46516" lon="6.11748">
        <ele>766.3081055</ele>
        <time>2014-05-04T10:19:31Z</time>
      </trkpt>
      <trkpt lat="44.46511" lon="6.11759">
        <ele>767.2695313</ele>
        <time>2014-05-04T10:19:37Z</time>
      </trkpt>
      <trkpt lat="44.46501" lon="6.11774">
        <ele>768.2307129</ele>
        <time>2014-05-04T10:19:47Z</time>
      </trkpt>
      <trkpt lat="44.46498" lon="6.1178">
        <ele>768.7114258</ele>
        <time>2014-05-04T10:19:50Z</time>
      </trkpt>
      <trkpt lat="44.46489" lon="6.11795">
        <ele>769.6728516</ele>
        <time>2014-05-04T10:20:00Z</time>
      </trkpt>
      <trkpt lat="44.46487" lon="6.11797">
        <ele>769.6728516</ele>
        <time>2014-05-04T10:20:01Z</time>
      </trkpt>
      <trkpt lat="44.46478" lon="6.11817">
        <ele>772.0759277</ele>
        <time>2014-05-04T10:20:12Z</time>
      </trkpt>
      <trkpt lat="44.46465" lon="6.11849">
        <ele>773.5180664</ele>
        <time>2014-05-04T10:20:29Z</time>
      </trkpt>
      <trkpt lat="44.46456" lon="6.11865">
        <ele>774.9599609</ele>
        <time>2014-05-04T10:20:37Z</time>
      </trkpt>
      <trkpt lat="44.46451" lon="6.11873">
        <ele>775.4404297</ele>
        <time>2014-05-04T10:20:41Z</time>
      </trkpt>
      <trkpt lat="44.46439" lon="6.11892">
        <ele>776.4018555</ele>
        <time>2014-05-04T10:20:53Z</time>
      </trkpt>
      <trkpt lat="44.4643" lon="6.11928">
        <ele>778.3244629</ele>
        <time>2014-05-04T10:21:09Z</time>
      </trkpt>
      <trkpt lat="44.46423" lon="6.11962">
        <ele>780.2473145</ele>
        <time>2014-05-04T10:21:24Z</time>
      </trkpt>
      <trkpt lat="44.46414" lon="6.11994">
        <ele>782.1699219</ele>
        <time>2014-05-04T10:21:42Z</time>
      </trkpt>
      <trkpt lat="44.46418" lon="6.12008">
        <ele>783.1311035</ele>
        <time>2014-05-04T10:21:48Z</time>
      </trkpt>
      <trkpt lat="44.46417" lon="6.12025">
        <ele>784.5732422</ele>
        <time>2014-05-04T10:21:59Z</time>
      </trkpt>
      <trkpt lat="44.46415" lon="6.12027">
        <ele>785.5344238</ele>
        <time>2014-05-04T10:22:01Z</time>
      </trkpt>
      <trkpt lat="44.4641" lon="6.12034">
        <ele>785.5344238</ele>
        <time>2014-05-04T10:22:05Z</time>
      </trkpt>
      <trkpt lat="44.464" lon="6.12048">
        <ele>786.4958496</ele>
        <time>2014-05-04T10:22:14Z</time>
      </trkpt>
      <trkpt lat="44.46393" lon="6.12055">
        <ele>787.4570313</ele>
        <time>2014-05-04T10:22:19Z</time>
      </trkpt>
      <trkpt lat="44.46383" lon="6.12078">
        <ele>788.8991699</ele>
        <time>2014-05-04T10:22:32Z</time>
      </trkpt>
      <trkpt lat="44.4637" lon="6.1211">
        <ele>790.3410645</ele>
        <time>2014-05-04T10:22:49Z</time>
      </trkpt>
      <trkpt lat="44.46369" lon="6.12111">
        <ele>790.3410645</ele>
        <time>2014-05-04T10:22:50Z</time>
      </trkpt>
      <trkpt lat="44.46361" lon="6.12133">
        <ele>791.3022461</ele>
        <time>2014-05-04T10:23:02Z</time>
      </trkpt>
      <trkpt lat="44.46357" lon="6.12149">
        <ele>792.7443848</ele>
        <time>2014-05-04T10:23:10Z</time>
      </trkpt>
      <trkpt lat="44.46336" lon="6.12179">
        <ele>794.666748</ele>
        <time>2014-05-04T10:23:28Z</time>
      </trkpt>
      <trkpt lat="44.46327" lon="6.12185">
        <ele>795.6281738</ele>
        <time>2014-05-04T10:23:35Z</time>
      </trkpt>
      <trkpt lat="44.46322" lon="6.12192">
        <ele>796.1091309</ele>
        <time>2014-05-04T10:23:40Z</time>
      </trkpt>
      <trkpt lat="44.46291" lon="6.12214">
        <ele>798.0317383</ele>
        <time>2014-05-04T10:24:00Z</time>
      </trkpt>
      <trkpt lat="44.46281" lon="6.12219">
        <ele>798.0317383</ele>
        <time>2014-05-04T10:24:06Z</time>
      </trkpt>
      <trkpt lat="44.46265" lon="6.12232">
        <ele>798.512207</ele>
        <time>2014-05-04T10:24:15Z</time>
      </trkpt>
      <trkpt lat="44.46261" lon="6.12237">
        <ele>798.512207</ele>
        <time>2014-05-04T10:24:18Z</time>
      </trkpt>
      <trkpt lat="44.46238" lon="6.12251">
        <ele>799.9543457</ele>
        <time>2014-05-04T10:24:32Z</time>
      </trkpt>
      <trkpt lat="44.46218" lon="6.12257">
        <ele>802.3574219</ele>
        <time>2014-05-04T10:24:45Z</time>
      </trkpt>
      <trkpt lat="44.4621" lon="6.12255">
        <ele>803.3188477</ele>
        <time>2014-05-04T10:24:49Z</time>
      </trkpt>
      <trkpt lat="44.46189" lon="6.12245">
        <ele>806.2026367</ele>
        <time>2014-05-04T10:25:04Z</time>
      </trkpt>
      <trkpt lat="44.46173" lon="6.12219">
        <ele>808.1254883</ele>
        <time>2014-05-04T10:25:19Z</time>
      </trkpt>
      <trkpt lat="44.46159" lon="6.12203">
        <ele>810.0478516</ele>
        <time>2014-05-04T10:25:32Z</time>
      </trkpt>
      <trkpt lat="44.46152" lon="6.12197">
        <ele>810.5285645</ele>
        <time>2014-05-04T10:25:39Z</time>
      </trkpt>
      <trkpt lat="44.46134" lon="6.12186">
        <ele>813.4128418</ele>
        <time>2014-05-04T10:25:55Z</time>
      </trkpt>
      <trkpt lat="44.46117" lon="6.12181">
        <ele>815.3354492</ele>
        <time>2014-05-04T10:26:08Z</time>
      </trkpt>
      <trkpt lat="44.46099" lon="6.1217">
        <ele>817.7385254</ele>
        <time>2014-05-04T10:26:23Z</time>
      </trkpt>
      <trkpt lat="44.46082" lon="6.1214">
        <ele>819.661377</ele>
        <time>2014-05-04T10:26:38Z</time>
      </trkpt>
      <trkpt lat="44.46078" lon="6.12134">
        <ele>820.1418457</ele>
        <time>2014-05-04T10:26:42Z</time>
      </trkpt>
      <trkpt lat="44.46062" lon="6.12115">
        <ele>822.545166</ele>
        <time>2014-05-04T10:26:57Z</time>
      </trkpt>
      <trkpt lat="44.46054" lon="6.12109">
        <ele>823.5065918</ele>
        <time>2014-05-04T10:27:03Z</time>
      </trkpt>
      <trkpt lat="44.4605" lon="6.1211">
        <ele>824.4677734</ele>
        <time>2014-05-04T10:27:06Z</time>
      </trkpt>
      <trkpt lat="44.46047" lon="6.12111">
        <ele>824.9484863</ele>
        <time>2014-05-04T10:27:08Z</time>
      </trkpt>
      <trkpt lat="44.46043" lon="6.12118">
        <ele>825.4289551</ele>
        <time>2014-05-04T10:27:11Z</time>
      </trkpt>
      <trkpt lat="44.46042" lon="6.12125">
        <ele>825.909668</ele>
        <time>2014-05-04T10:27:15Z</time>
      </trkpt>
      <trkpt lat="44.46048" lon="6.12164">
        <ele>828.7939453</ele>
        <time>2014-05-04T10:27:33Z</time>
      </trkpt>
      <trkpt lat="44.46052" lon="6.12171">
        <ele>828.7939453</ele>
        <time>2014-05-04T10:27:37Z</time>
      </trkpt>
      <trkpt lat="44.46053" lon="6.12178">
        <ele>828.7939453</ele>
        <time>2014-05-04T10:27:40Z</time>
      </trkpt>
      <trkpt lat="44.46069" lon="6.12217">
        <ele>832.1584473</ele>
        <time>2014-05-04T10:28:00Z</time>
      </trkpt>
      <trkpt lat="44.46077" lon="6.12237">
        <ele>834.0810547</ele>
        <time>2014-05-04T10:28:13Z</time>
      </trkpt>
      <trkpt lat="44.46076" lon="6.12254">
        <ele>836.0036621</ele>
        <time>2014-05-04T10:28:22Z</time>
      </trkpt>
      <trkpt lat="44.46073" lon="6.12255">
        <ele>836.484375</ele>
        <time>2014-05-04T10:28:26Z</time>
      </trkpt>
      <trkpt lat="44.46061" lon="6.12254">
        <ele>838.4069824</ele>
        <time>2014-05-04T10:28:35Z</time>
      </trkpt>
      <trkpt lat="44.46044" lon="6.12231">
        <ele>839.848877</ele>
        <time>2014-05-04T10:28:52Z</time>
      </trkpt>
      <trkpt lat="44.46038" lon="6.12208">
        <ele>842.2521973</ele>
        <time>2014-05-04T10:29:04Z</time>
      </trkpt>
      <trkpt lat="44.4604" lon="6.12202">
        <ele>842.7329102</ele>
        <time>2014-05-04T10:29:08Z</time>
      </trkpt>
      <trkpt lat="44.46039" lon="6.12198">
        <ele>843.2133789</ele>
        <time>2014-05-04T10:29:10Z</time>
      </trkpt>
      <trkpt lat="44.46039" lon="6.12193">
        <ele>843.2133789</ele>
        <time>2014-05-04T10:29:12Z</time>
      </trkpt>
      <trkpt lat="44.46038" lon="6.12188">
        <ele>844.1750488</ele>
        <time>2014-05-04T10:29:14Z</time>
      </trkpt>
      <trkpt lat="44.46035" lon="6.12183">
        <ele>844.1750488</ele>
        <time>2014-05-04T10:29:16Z</time>
      </trkpt>
      <trkpt lat="44.4603" lon="6.12175">
        <ele>845.1362305</ele>
        <time>2014-05-04T10:29:21Z</time>
      </trkpt>
      <trkpt lat="44.46021" lon="6.1218">
        <ele>846.5783691</ele>
        <time>2014-05-04T10:29:28Z</time>
      </trkpt>
      <trkpt lat="44.46013" lon="6.12209">
        <ele>848.9814453</ele>
        <time>2014-05-04T10:29:44Z</time>
      </trkpt>
      <trkpt lat="44.46014" lon="6.12252">
        <ele>850.9040527</ele>
        <time>2014-05-04T10:30:04Z</time>
      </trkpt>
      <trkpt lat="44.46016" lon="6.12278">
        <ele>853.307373</ele>
        <time>2014-05-04T10:30:17Z</time>
      </trkpt>
      <trkpt lat="44.46018" lon="6.12281">
        <ele>854.2687988</ele>
        <time>2014-05-04T10:30:19Z</time>
      </trkpt>
      <trkpt lat="44.46019" lon="6.1229">
        <ele>854.7492676</ele>
        <time>2014-05-04T10:30:23Z</time>
      </trkpt>
      <trkpt lat="44.46029" lon="6.12325">
        <ele>856.671875</ele>
        <time>2014-05-04T10:30:41Z</time>
      </trkpt>
      <trkpt lat="44.4603" lon="6.12328">
        <ele>857.6333008</ele>
        <time>2014-05-04T10:30:43Z</time>
      </trkpt>
      <trkpt lat="44.46035" lon="6.12336">
        <ele>858.1140137</ele>
        <time>2014-05-04T10:30:48Z</time>
      </trkpt>
      <trkpt lat="44.46036" lon="6.12339">
        <ele>858.5944824</ele>
        <time>2014-05-04T10:30:50Z</time>
      </trkpt>
      <trkpt lat="44.46039" lon="6.12341">
        <ele>859.0751953</ele>
        <time>2014-05-04T10:30:52Z</time>
      </trkpt>
      <trkpt lat="44.46049" lon="6.12358">
        <ele>860.517334</ele>
        <time>2014-05-04T10:31:03Z</time>
      </trkpt>
      <trkpt lat="44.46058" lon="6.12376">
        <ele>861.9594727</ele>
        <time>2014-05-04T10:31:13Z</time>
      </trkpt>
      <trkpt lat="44.4606" lon="6.12384">
        <ele>862.4399414</ele>
        <time>2014-05-04T10:31:17Z</time>
      </trkpt>
      <trkpt lat="44.46065" lon="6.12414">
        <ele>865.8046875</ele>
        <time>2014-05-04T10:31:37Z</time>
      </trkpt>
      <trkpt lat="44.46065" lon="6.12414">
        <ele>866.7658691</ele>
        <time>2014-05-04T10:31:59Z</time>
      </trkpt>
      <trkpt lat="44.46065" lon="6.12414">
        <ele>865.3239746</ele>
        <time>2014-05-04T10:32:01Z</time>
      </trkpt>
      <trkpt lat="44.46065" lon="6.12414">
        <ele>868.2077637</ele>
        <time>2014-05-04T10:33:13Z</time>
      </trkpt>
      <trkpt lat="44.46065" lon="6.12414">
        <ele>866.2851563</ele>
        <time>2014-05-04T10:33:15Z</time>
      </trkpt>
      <trkpt lat="44.46065" lon="6.12414">
        <ele>868.2077637</ele>
        <time>2014-05-04T10:33:18Z</time>
      </trkpt>
      <trkpt lat="44.46065" lon="6.12414">
        <ele>866.7658691</ele>
        <time>2014-05-04T10:33:20Z</time>
      </trkpt>
      <trkpt lat="44.46056" lon="6.12441">
        <ele>869.6499023</ele>
        <time>2014-05-04T10:34:19Z</time>
      </trkpt>
      <trkpt lat="44.46045" lon="6.12469">
        <ele>872.0529785</ele>
        <time>2014-05-04T10:34:35Z</time>
      </trkpt>
      <trkpt lat="44.46045" lon="6.12472">
        <ele>872.5336914</ele>
        <time>2014-05-04T10:34:37Z</time>
      </trkpt>
      <trkpt lat="44.46045" lon="6.12474">
        <ele>873.0144043</ele>
        <time>2014-05-04T10:34:38Z</time>
      </trkpt>
      <trkpt lat="44.46045" lon="6.12478">
        <ele>872.5336914</ele>
        <time>2014-05-04T10:34:40Z</time>
      </trkpt>
      <trkpt lat="44.46044" lon="6.12487">
        <ele>873.0144043</ele>
        <time>2014-05-04T10:34:43Z</time>
      </trkpt>
      <trkpt lat="44.46042" lon="6.12506">
        <ele>873.9755859</ele>
        <time>2014-05-04T10:34:52Z</time>
      </trkpt>
      <trkpt lat="44.46039" lon="6.12509">
        <ele>874.9370117</ele>
        <time>2014-05-04T10:34:54Z</time>
      </trkpt>
      <trkpt lat="44.4604" lon="6.12517">
        <ele>875.4174805</ele>
        <time>2014-05-04T10:34:58Z</time>
      </trkpt>
      <trkpt lat="44.46039" lon="6.12546">
        <ele>879.2629395</ele>
        <time>2014-05-04T10:35:13Z</time>
      </trkpt>
      <trkpt lat="44.46037" lon="6.1256">
        <ele>878.7824707</ele>
        <time>2014-05-04T10:35:20Z</time>
      </trkpt>
      <trkpt lat="44.46032" lon="6.12557">
        <ele>881.185791</ele>
        <time>2014-05-04T10:35:28Z</time>
      </trkpt>
      <trkpt lat="44.46031" lon="6.12552">
        <ele>881.185791</ele>
        <time>2014-05-04T10:35:30Z</time>
      </trkpt>
      <trkpt lat="44.46028" lon="6.12513">
        <ele>882.1469727</ele>
        <time>2014-05-04T10:35:46Z</time>
      </trkpt>
      <trkpt lat="44.46027" lon="6.125">
        <ele>883.1081543</ele>
        <time>2014-05-04T10:35:52Z</time>
      </trkpt>
      <trkpt lat="44.46027" lon="6.12493">
        <ele>884.550293</ele>
        <time>2014-05-04T10:35:56Z</time>
      </trkpt>
      <trkpt lat="44.46027" lon="6.12474">
        <ele>884.550293</ele>
        <time>2014-05-04T10:36:04Z</time>
      </trkpt>
      <trkpt lat="44.46027" lon="6.1246">
        <ele>885.0310059</ele>
        <time>2014-05-04T10:36:10Z</time>
      </trkpt>
      <trkpt lat="44.46026" lon="6.1242">
        <ele>887.434082</ele>
        <time>2014-05-04T10:36:27Z</time>
      </trkpt>
      <trkpt lat="44.46024" lon="6.12415">
        <ele>887.9147949</ele>
        <time>2014-05-04T10:36:30Z</time>
      </trkpt>
      <trkpt lat="44.46022" lon="6.12407">
        <ele>889.8374023</ele>
        <time>2014-05-04T10:36:35Z</time>
      </trkpt>
      <trkpt lat="44.46016" lon="6.12399">
        <ele>890.798584</ele>
        <time>2014-05-04T10:36:41Z</time>
      </trkpt>
      <trkpt lat="44.46013" lon="6.12395">
        <ele>891.7600098</ele>
        <time>2014-05-04T10:36:44Z</time>
      </trkpt>
      <trkpt lat="44.46006" lon="6.1239">
        <ele>893.2021484</ele>
        <time>2014-05-04T10:36:49Z</time>
      </trkpt>
      <trkpt lat="44.45996" lon="6.12382">
        <ele>895.1247559</ele>
        <time>2014-05-04T10:36:57Z</time>
      </trkpt>
      <trkpt lat="44.45977" lon="6.1237">
        <ele>897.5280762</ele>
        <time>2014-05-04T10:37:13Z</time>
      </trkpt>
      <trkpt lat="44.45967" lon="6.12365">
        <ele>899.4506836</ele>
        <time>2014-05-04T10:37:21Z</time>
      </trkpt>
      <trkpt lat="44.45963" lon="6.12363">
        <ele>899.9313965</ele>
        <time>2014-05-04T10:37:23Z</time>
      </trkpt>
      <trkpt lat="44.4596" lon="6.12361">
        <ele>899.4506836</ele>
        <time>2014-05-04T10:37:26Z</time>
      </trkpt>
      <trkpt lat="44.45937" lon="6.12358">
        <ele>902.3344727</ele>
        <time>2014-05-04T10:37:42Z</time>
      </trkpt>
      <trkpt lat="44.45906" lon="6.12334">
        <ele>905.2185059</ele>
        <time>2014-05-04T10:38:04Z</time>
      </trkpt>
      <trkpt lat="44.45899" lon="6.12322">
        <ele>906.1796875</ele>
        <time>2014-05-04T10:38:12Z</time>
      </trkpt>
      <trkpt lat="44.45891" lon="6.12319">
        <ele>907.6218262</ele>
        <time>2014-05-04T10:38:18Z</time>
      </trkpt>
      <trkpt lat="44.45884" lon="6.12323">
        <ele>908.1027832</ele>
        <time>2014-05-04T10:38:23Z</time>
      </trkpt>
      <trkpt lat="44.45889" lon="6.12358">
        <ele>910.5058594</ele>
        <time>2014-05-04T10:38:39Z</time>
      </trkpt>
      <trkpt lat="44.45901" lon="6.12376">
        <ele>911.4672852</ele>
        <time>2014-05-04T10:38:49Z</time>
      </trkpt>
      <trkpt lat="44.45929" lon="6.12398">
        <ele>914.3510742</ele>
        <time>2014-05-04T10:39:09Z</time>
      </trkpt>
      <trkpt lat="44.45944" lon="6.1241">
        <ele>915.3125</ele>
        <time>2014-05-04T10:39:19Z</time>
      </trkpt>
      <trkpt lat="44.45949" lon="6.12411">
        <ele>915.7932129</ele>
        <time>2014-05-04T10:39:22Z</time>
      </trkpt>
      <trkpt lat="44.45964" lon="6.12442">
        <ele>919.1577148</ele>
        <time>2014-05-04T10:39:39Z</time>
      </trkpt>
      <trkpt lat="44.4596" lon="6.1247">
        <ele>920.5996094</ele>
        <time>2014-05-04T10:39:54Z</time>
      </trkpt>
      <trkpt lat="44.45944" lon="6.12491">
        <ele>923.4836426</ele>
        <time>2014-05-04T10:40:09Z</time>
      </trkpt>
      <trkpt lat="44.45932" lon="6.12528">
        <ele>925.8869629</ele>
        <time>2014-05-04T10:40:27Z</time>
      </trkpt>
      <trkpt lat="44.45931" lon="6.12533">
        <ele>925.8869629</ele>
        <time>2014-05-04T10:40:29Z</time>
      </trkpt>
      <trkpt lat="44.4593" lon="6.12539">
        <ele>925.8869629</ele>
        <time>2014-05-04T10:40:32Z</time>
      </trkpt>
      <trkpt lat="44.45928" lon="6.12549">
        <ele>927.3291016</ele>
        <time>2014-05-04T10:40:37Z</time>
      </trkpt>
      <trkpt lat="44.45929" lon="6.12575">
        <ele>929.7321777</ele>
        <time>2014-05-04T10:40:51Z</time>
      </trkpt>
      <trkpt lat="44.45933" lon="6.12605">
        <ele>931.1743164</ele>
        <time>2014-05-04T10:41:04Z</time>
      </trkpt>
      <trkpt lat="44.45933" lon="6.12614">
        <ele>931.6547852</ele>
        <time>2014-05-04T10:41:08Z</time>
      </trkpt>
      <trkpt lat="44.4594" lon="6.12644">
        <ele>934.0581055</ele>
        <time>2014-05-04T10:41:22Z</time>
      </trkpt>
      <trkpt lat="44.45942" lon="6.12673">
        <ele>935.5</ele>
        <time>2014-05-04T10:41:34Z</time>
      </trkpt>
      <trkpt lat="44.45948" lon="6.12709">
        <ele>937.9033203</ele>
        <time>2014-05-04T10:41:49Z</time>
      </trkpt>
      <trkpt lat="44.45949" lon="6.12721">
        <ele>938.3840332</ele>
        <time>2014-05-04T10:41:54Z</time>
      </trkpt>
      <trkpt lat="44.4595" lon="6.1273">
        <ele>939.3452148</ele>
        <time>2014-05-04T10:41:59Z</time>
      </trkpt>
      <trkpt lat="44.45949" lon="6.12736">
        <ele>940.3068848</ele>
        <time>2014-05-04T10:42:02Z</time>
      </trkpt>
      <trkpt lat="44.45949" lon="6.12745">
        <ele>940.7873535</ele>
        <time>2014-05-04T10:42:06Z</time>
      </trkpt>
      <trkpt lat="44.45951" lon="6.12753">
        <ele>941.7487793</ele>
        <time>2014-05-04T10:42:10Z</time>
      </trkpt>
      <trkpt lat="44.45949" lon="6.1276">
        <ele>942.2294922</ele>
        <time>2014-05-04T10:42:13Z</time>
      </trkpt>
      <trkpt lat="44.45946" lon="6.12786">
        <ele>945.1132813</ele>
        <time>2014-05-04T10:42:27Z</time>
      </trkpt>
      <trkpt lat="44.45946" lon="6.1279">
        <ele>945.5939941</ele>
        <time>2014-05-04T10:42:29Z</time>
      </trkpt>
      <trkpt lat="44.45938" lon="6.12813">
        <ele>947.5166016</ele>
        <time>2014-05-04T10:42:41Z</time>
      </trkpt>
      <trkpt lat="44.45927" lon="6.12844">
        <ele>950.4006348</ele>
        <time>2014-05-04T10:42:57Z</time>
      </trkpt>
      <trkpt lat="44.45913" lon="6.12859">
        <ele>952.322998</ele>
        <time>2014-05-04T10:43:09Z</time>
      </trkpt>
      <trkpt lat="44.45903" lon="6.12882">
        <ele>954.2458496</ele>
        <time>2014-05-04T10:43:22Z</time>
      </trkpt>
      <trkpt lat="44.459" lon="6.12892">
        <ele>954.7263184</ele>
        <time>2014-05-04T10:43:27Z</time>
      </trkpt>
      <trkpt lat="44.45899" lon="6.12898">
        <ele>955.2070313</ele>
        <time>2014-05-04T10:43:30Z</time>
      </trkpt>
      <trkpt lat="44.4589" lon="6.12926">
        <ele>957.1298828</ele>
        <time>2014-05-04T10:43:45Z</time>
      </trkpt>
      <trkpt lat="44.45883" lon="6.12947">
        <ele>959.5332031</ele>
        <time>2014-05-04T10:43:57Z</time>
      </trkpt>
      <trkpt lat="44.45883" lon="6.12949">
        <ele>959.5332031</ele>
        <time>2014-05-04T10:43:58Z</time>
      </trkpt>
      <trkpt lat="44.45877" lon="6.12958">
        <ele>960.9750977</ele>
        <time>2014-05-04T10:44:05Z</time>
      </trkpt>
      <trkpt lat="44.45872" lon="6.12959">
        <ele>961.9365234</ele>
        <time>2014-05-04T10:44:09Z</time>
      </trkpt>
      <trkpt lat="44.45868" lon="6.12954">
        <ele>962.4169922</ele>
        <time>2014-05-04T10:44:13Z</time>
      </trkpt>
      <trkpt lat="44.45875" lon="6.12917">
        <ele>964.3395996</ele>
        <time>2014-05-04T10:44:29Z</time>
      </trkpt>
      <trkpt lat="44.45882" lon="6.12885">
        <ele>965.3010254</ele>
        <time>2014-05-04T10:44:43Z</time>
      </trkpt>
      <trkpt lat="44.45887" lon="6.12838">
        <ele>968.1848145</ele>
        <time>2014-05-04T10:45:05Z</time>
      </trkpt>
      <trkpt lat="44.45889" lon="6.12806">
        <ele>970.5881348</ele>
        <time>2014-05-04T10:45:21Z</time>
      </trkpt>
      <trkpt lat="44.45883" lon="6.12758">
        <ele>973.9528809</ele>
        <time>2014-05-04T10:45:44Z</time>
      </trkpt>
      <trkpt lat="44.45874" lon="6.12716">
        <ele>976.8369141</ele>
        <time>2014-05-04T10:46:05Z</time>
      </trkpt>
      <trkpt lat="44.45856" lon="6.12675">
        <ele>979.2399902</ele>
        <time>2014-05-04T10:46:26Z</time>
      </trkpt>
      <trkpt lat="44.45842" lon="6.12659">
        <ele>981.1628418</ele>
        <time>2014-05-04T10:46:39Z</time>
      </trkpt>
      <trkpt lat="44.45837" lon="6.12656">
        <ele>982.1240234</ele>
        <time>2014-05-04T10:46:42Z</time>
      </trkpt>
      <trkpt lat="44.45812" lon="6.12627">
        <ele>985.4885254</ele>
        <time>2014-05-04T10:47:03Z</time>
      </trkpt>
      <trkpt lat="44.4579" lon="6.12611">
        <ele>987.4111328</ele>
        <time>2014-05-04T10:47:19Z</time>
      </trkpt>
      <trkpt lat="44.45757" lon="6.12593">
        <ele>989.8146973</ele>
        <time>2014-05-04T10:47:40Z</time>
      </trkpt>
      <trkpt lat="44.45716" lon="6.12583">
        <ele>992.6987305</ele>
        <time>2014-05-04T10:48:03Z</time>
      </trkpt>
      <trkpt lat="44.45685" lon="6.1258">
        <ele>994.6210938</ele>
        <time>2014-05-04T10:48:21Z</time>
      </trkpt>
      <trkpt lat="44.45658" lon="6.12579">
        <ele>996.0632324</ele>
        <time>2014-05-04T10:48:36Z</time>
      </trkpt>
      <trkpt lat="44.45616" lon="6.12571">
        <ele>998.9470215</ele>
        <time>2014-05-04T10:48:58Z</time>
      </trkpt>
      <trkpt lat="44.45614" lon="6.12572">
        <ele>998.9470215</ele>
        <time>2014-05-04T10:48:59Z</time>
      </trkpt>
      <trkpt lat="44.45608" lon="6.12571">
        <ele>999.4277344</ele>
        <time>2014-05-04T10:49:02Z</time>
      </trkpt>
      <trkpt lat="44.45575" lon="6.12558">
        <ele>1001.3503418</ele>
        <time>2014-05-04T10:49:21Z</time>
      </trkpt>
      <trkpt lat="44.45537" lon="6.1254">
        <ele>1003.7536621</ele>
        <time>2014-05-04T10:49:44Z</time>
      </trkpt>
      <trkpt lat="44.45503" lon="6.12527">
        <ele>1006.1569824</ele>
        <time>2014-05-04T10:50:02Z</time>
      </trkpt>
      <trkpt lat="44.45472" lon="6.12521">
        <ele>1008.079834</ele>
        <time>2014-05-04T10:50:20Z</time>
      </trkpt>
      <trkpt lat="44.45447" lon="6.12543">
        <ele>1010.963623</ele>
        <time>2014-05-04T10:50:38Z</time>
      </trkpt>
      <trkpt lat="44.45433" lon="6.12573">
        <ele>1013.3669434</ele>
        <time>2014-05-04T10:50:53Z</time>
      </trkpt>
      <trkpt lat="44.4541" lon="6.12599">
        <ele>1016.2507324</ele>
        <time>2014-05-04T10:51:11Z</time>
      </trkpt>
      <trkpt lat="44.45386" lon="6.12615">
        <ele>1018.6540527</ele>
        <time>2014-05-04T10:51:28Z</time>
      </trkpt>
      <trkpt lat="44.45363" lon="6.12619">
        <ele>1022.0187988</ele>
        <time>2014-05-04T10:51:44Z</time>
      </trkpt>
      <trkpt lat="44.45343" lon="6.12629">
        <ele>1023.9414063</ele>
        <time>2014-05-04T10:51:57Z</time>
      </trkpt>
      <trkpt lat="44.45336" lon="6.12633">
        <ele>1024.902832</ele>
        <time>2014-05-04T10:52:02Z</time>
      </trkpt>
      <trkpt lat="44.45327" lon="6.12639">
        <ele>1025.8640137</ele>
        <time>2014-05-04T10:52:08Z</time>
      </trkpt>
      <trkpt lat="44.45324" lon="6.12646">
        <ele>1026.3447266</ele>
        <time>2014-05-04T10:52:12Z</time>
      </trkpt>
      <trkpt lat="44.4532" lon="6.12651">
        <ele>1027.3061523</ele>
        <time>2014-05-04T10:52:16Z</time>
      </trkpt>
      <trkpt lat="44.45315" lon="6.12659">
        <ele>1028.267334</ele>
        <time>2014-05-04T10:52:21Z</time>
      </trkpt>
      <trkpt lat="44.4531" lon="6.12668">
        <ele>1029.2285156</ele>
        <time>2014-05-04T10:52:27Z</time>
      </trkpt>
      <trkpt lat="44.45294" lon="6.1268">
        <ele>1032.1125488</ele>
        <time>2014-05-04T10:52:41Z</time>
      </trkpt>
      <trkpt lat="44.45286" lon="6.12689">
        <ele>1033.0737305</ele>
        <time>2014-05-04T10:52:49Z</time>
      </trkpt>
      <trkpt lat="44.45273" lon="6.12708">
        <ele>1034.996582</ele>
        <time>2014-05-04T10:53:01Z</time>
      </trkpt>
      <trkpt lat="44.45272" lon="6.12709">
        <ele>1035.4770508</ele>
        <time>2014-05-04T10:53:02Z</time>
      </trkpt>
      <trkpt lat="44.45262" lon="6.12722">
        <ele>1036.9191895</ele>
        <time>2014-05-04T10:53:11Z</time>
      </trkpt>
      <trkpt lat="44.45247" lon="6.12743">
        <ele>1038.3613281</ele>
        <time>2014-05-04T10:53:25Z</time>
      </trkpt>
      <trkpt lat="44.45232" lon="6.12748">
        <ele>1040.7644043</ele>
        <time>2014-05-04T10:53:36Z</time>
      </trkpt>
      <trkpt lat="44.45208" lon="6.12759">
        <ele>1041.7258301</ele>
        <time>2014-05-04T10:53:50Z</time>
      </trkpt>
      <trkpt lat="44.45202" lon="6.12764">
        <ele>1040.7644043</ele>
        <time>2014-05-04T10:53:55Z</time>
      </trkpt>
      <trkpt lat="44.45203" lon="6.12769">
        <ele>1040.7644043</ele>
        <time>2014-05-04T10:54:11Z</time>
      </trkpt>
      <trkpt lat="44.45202" lon="6.12773">
        <ele>1041.7258301</ele>
        <time>2014-05-04T10:54:29Z</time>
      </trkpt>
      <trkpt lat="44.45204" lon="6.12774">
        <ele>1041.2451172</ele>
        <time>2014-05-04T10:55:13Z</time>
      </trkpt>
      <trkpt lat="44.45203" lon="6.12776">
        <ele>1042.6872559</ele>
        <time>2014-05-04T10:55:43Z</time>
      </trkpt>
      <trkpt lat="44.45199" lon="6.12778">
        <ele>1042.6872559</ele>
        <time>2014-05-04T10:55:57Z</time>
      </trkpt>
      <trkpt lat="44.45198" lon="6.1278">
        <ele>1043.1677246</ele>
        <time>2014-05-04T10:56:01Z</time>
      </trkpt>
      <trkpt lat="44.45177" lon="6.12824">
        <ele>1041.2451172</ele>
        <time>2014-05-04T10:56:12Z</time>
      </trkpt>
      <trkpt lat="44.45163" lon="6.12862">
        <ele>1040.2839355</ele>
        <time>2014-05-04T10:56:18Z</time>
      </trkpt>
      <trkpt lat="44.4516" lon="6.12892">
        <ele>1040.2839355</ele>
        <time>2014-05-04T10:56:23Z</time>
      </trkpt>
      <trkpt lat="44.45162" lon="6.12911">
        <ele>1040.7644043</ele>
        <time>2014-05-04T10:56:35Z</time>
      </trkpt>
      <trkpt lat="44.45158" lon="6.12913">
        <ele>1040.7644043</ele>
        <time>2014-05-04T10:57:10Z</time>
      </trkpt>
      <trkpt lat="44.45162" lon="6.12919">
        <ele>1040.7644043</ele>
        <time>2014-05-04T10:58:19Z</time>
      </trkpt>
      <trkpt lat="44.45162" lon="6.12917">
        <ele>1040.7644043</ele>
        <time>2014-05-04T10:59:20Z</time>
      </trkpt>
      <trkpt lat="44.45162" lon="6.12915">
        <ele>1040.7644043</ele>
        <time>2014-05-04T10:59:29Z</time>
      </trkpt>
      <trkpt lat="44.45161" lon="6.12901">
        <ele>1041.2451172</ele>
        <time>2014-05-04T10:59:36Z</time>
      </trkpt>
      <trkpt lat="44.45158" lon="6.12872">
        <ele>1041.2451172</ele>
        <time>2014-05-04T10:59:45Z</time>
      </trkpt>
      <trkpt lat="44.45143" lon="6.12858">
        <ele>1039.3225098</ele>
        <time>2014-05-04T10:59:52Z</time>
      </trkpt>
      <trkpt lat="44.45116" lon="6.12874">
        <ele>1036.9191895</ele>
        <time>2014-05-04T11:00:00Z</time>
      </trkpt>
      <trkpt lat="44.45084" lon="6.12891">
        <ele>1034.996582</ele>
        <time>2014-05-04T11:00:08Z</time>
      </trkpt>
      <trkpt lat="44.4507" lon="6.12915">
        <ele>1032.5932617</ele>
        <time>2014-05-04T11:00:12Z</time>
      </trkpt>
      <trkpt lat="44.45064" lon="6.12933">
        <ele>1033.0737305</ele>
        <time>2014-05-04T11:00:14Z</time>
      </trkpt>
      <trkpt lat="44.45056" lon="6.12948">
        <ele>1031.6318359</ele>
        <time>2014-05-04T11:00:16Z</time>
      </trkpt>
      <trkpt lat="44.45022" lon="6.12959">
        <ele>1031.6318359</ele>
        <time>2014-05-04T11:00:22Z</time>
      </trkpt>
      <trkpt lat="44.45002" lon="6.12952">
        <ele>1032.1125488</ele>
        <time>2014-05-04T11:00:27Z</time>
      </trkpt>
      <trkpt lat="44.44974" lon="6.12927">
        <ele>1032.5932617</ele>
        <time>2014-05-04T11:00:34Z</time>
      </trkpt>
      <trkpt lat="44.44965" lon="6.12904">
        <ele>1032.1125488</ele>
        <time>2014-05-04T11:00:38Z</time>
      </trkpt>
      <trkpt lat="44.44957" lon="6.12876">
        <ele>1032.5932617</ele>
        <time>2014-05-04T11:00:43Z</time>
      </trkpt>
      <trkpt lat="44.44949" lon="6.12847">
        <ele>1031.1513672</ele>
        <time>2014-05-04T11:00:48Z</time>
      </trkpt>
      <trkpt lat="44.44944" lon="6.12835">
        <ele>1030.1899414</ele>
        <time>2014-05-04T11:00:50Z</time>
      </trkpt>
      <trkpt lat="44.44923" lon="6.12771">
        <ele>1026.3447266</ele>
        <time>2014-05-04T11:00:59Z</time>
      </trkpt>
      <trkpt lat="44.4492" lon="6.12764">
        <ele>1026.3447266</ele>
        <time>2014-05-04T11:01:00Z</time>
      </trkpt>
      <trkpt lat="44.44888" lon="6.12733">
        <ele>1026.8254395</ele>
        <time>2014-05-04T11:01:07Z</time>
      </trkpt>
      <trkpt lat="44.44847" lon="6.12735">
        <ele>1029.7092285</ele>
        <time>2014-05-04T11:01:19Z</time>
      </trkpt>
      <trkpt lat="44.44822" lon="6.12755">
        <ele>1029.2285156</ele>
        <time>2014-05-04T11:01:30Z</time>
      </trkpt>
      <trkpt lat="44.44797" lon="6.12761">
        <ele>1029.7092285</ele>
        <time>2014-05-04T11:01:37Z</time>
      </trkpt>
      <trkpt lat="44.44784" lon="6.12771">
        <ele>1030.1899414</ele>
        <time>2014-05-04T11:01:41Z</time>
      </trkpt>
      <trkpt lat="44.44767" lon="6.12758">
        <ele>1032.1125488</ele>
        <time>2014-05-04T11:01:47Z</time>
      </trkpt>
      <trkpt lat="44.44797" lon="6.12713">
        <ele>1033.0737305</ele>
        <time>2014-05-04T11:02:01Z</time>
      </trkpt>
      <trkpt lat="44.44801" lon="6.12661">
        <ele>1034.996582</ele>
        <time>2014-05-04T11:02:14Z</time>
      </trkpt>
      <trkpt lat="44.44793" lon="6.12604">
        <ele>1035.9577637</ele>
        <time>2014-05-04T11:02:28Z</time>
      </trkpt>
      <trkpt lat="44.44784" lon="6.1259">
        <ele>1034.996582</ele>
        <time>2014-05-04T11:02:31Z</time>
      </trkpt>
      <trkpt lat="44.4476" lon="6.12566">
        <ele>1033.0737305</ele>
        <time>2014-05-04T11:02:36Z</time>
      </trkpt>
      <trkpt lat="44.44736" lon="6.12553">
        <ele>1032.5932617</ele>
        <time>2014-05-04T11:02:40Z</time>
      </trkpt>
      <trkpt lat="44.44681" lon="6.12539">
        <ele>1029.7092285</ele>
        <time>2014-05-04T11:02:47Z</time>
      </trkpt>
      <trkpt lat="44.44674" lon="6.12537">
        <ele>1029.2285156</ele>
        <time>2014-05-04T11:02:48Z</time>
      </trkpt>
      <trkpt lat="44.44655" lon="6.12535">
        <ele>1028.267334</ele>
        <time>2014-05-04T11:02:51Z</time>
      </trkpt>
      <trkpt lat="44.44643" lon="6.12533">
        <ele>1027.7866211</ele>
        <time>2014-05-04T11:02:54Z</time>
      </trkpt>
      <trkpt lat="44.44649" lon="6.12503">
        <ele>1027.7866211</ele>
        <time>2014-05-04T11:02:58Z</time>
      </trkpt>
      <trkpt lat="44.44699" lon="6.12482">
        <ele>1026.3447266</ele>
        <time>2014-05-04T11:03:07Z</time>
      </trkpt>
      <trkpt lat="44.44728" lon="6.1245">
        <ele>1025.3833008</ele>
        <time>2014-05-04T11:03:17Z</time>
      </trkpt>
      <trkpt lat="44.44772" lon="6.12422">
        <ele>1024.902832</ele>
        <time>2014-05-04T11:03:30Z</time>
      </trkpt>
      <trkpt lat="44.44836" lon="6.12421">
        <ele>1023.9414063</ele>
        <time>2014-05-04T11:03:42Z</time>
      </trkpt>
      <trkpt lat="44.4489" lon="6.12402">
        <ele>1020.5769043</ele>
        <time>2014-05-04T11:03:50Z</time>
      </trkpt>
      <trkpt lat="44.44896" lon="6.12399">
        <ele>1019.6154785</ele>
        <time>2014-05-04T11:03:51Z</time>
      </trkpt>
      <trkpt lat="44.4492" lon="6.1237">
        <ele>1016.7314453</ele>
        <time>2014-05-04T11:03:56Z</time>
      </trkpt>
      <trkpt lat="44.44928" lon="6.12339">
        <ele>1014.8088379</ele>
        <time>2014-05-04T11:03:59Z</time>
      </trkpt>
      <trkpt lat="44.44929" lon="6.12327">
        <ele>1014.328125</ele>
        <time>2014-05-04T11:04:00Z</time>
      </trkpt>
      <trkpt lat="44.44936" lon="6.12253">
        <ele>1011.4443359</ele>
        <time>2014-05-04T11:04:06Z</time>
      </trkpt>
      <trkpt lat="44.44936" lon="6.1224">
        <ele>1010.963623</ele>
        <time>2014-05-04T11:04:07Z</time>
      </trkpt>
      <trkpt lat="44.44932" lon="6.12188">
        <ele>1010.4829102</ele>
        <time>2014-05-04T11:04:12Z</time>
      </trkpt>
      <trkpt lat="44.44937" lon="6.12161">
        <ele>1009.0410156</ele>
        <time>2014-05-04T11:04:15Z</time>
      </trkpt>
      <trkpt lat="44.4494" lon="6.12153">
        <ele>1008.079834</ele>
        <time>2014-05-04T11:04:16Z</time>
      </trkpt>
      <trkpt lat="44.44936" lon="6.12115">
        <ele>1006.6376953</ele>
        <time>2014-05-04T11:04:20Z</time>
      </trkpt>
      <trkpt lat="44.44898" lon="6.1198">
        <ele>1004.2346191</ele>
        <time>2014-05-04T11:04:35Z</time>
      </trkpt>
      <trkpt lat="44.44894" lon="6.11883">
        <ele>1005.1958008</ele>
        <time>2014-05-04T11:04:47Z</time>
      </trkpt>
      <trkpt lat="44.44883" lon="6.1183">
        <ele>1007.5991211</ele>
        <time>2014-05-04T11:05:02Z</time>
      </trkpt>
      <trkpt lat="44.44859" lon="6.11773">
        <ele>1010.0021973</ele>
        <time>2014-05-04T11:05:23Z</time>
      </trkpt>
      <trkpt lat="44.44836" lon="6.11727">
        <ele>1010.4829102</ele>
        <time>2014-05-04T11:05:39Z</time>
      </trkpt>
      <trkpt lat="44.44809" lon="6.1172">
        <ele>1010.0021973</ele>
        <time>2014-05-04T11:05:49Z</time>
      </trkpt>
      <trkpt lat="44.44778" lon="6.11762">
        <ele>1010.0021973</ele>
        <time>2014-05-04T11:06:01Z</time>
      </trkpt>
      <trkpt lat="44.44766" lon="6.11748">
        <ele>1009.5217285</ele>
        <time>2014-05-04T11:06:06Z</time>
      </trkpt>
      <trkpt lat="44.44771" lon="6.1173">
        <ele>1010.0021973</ele>
        <time>2014-05-04T11:06:11Z</time>
      </trkpt>
      <trkpt lat="44.44771" lon="6.11705">
        <ele>1011.4443359</ele>
        <time>2014-05-04T11:06:20Z</time>
      </trkpt>
      <trkpt lat="44.44771" lon="6.117">
        <ele>1012.4055176</ele>
        <time>2014-05-04T11:06:22Z</time>
      </trkpt>
      <trkpt lat="44.44761" lon="6.11674">
        <ele>1013.3669434</ele>
        <time>2014-05-04T11:06:31Z</time>
      </trkpt>
      <trkpt lat="44.44761" lon="6.11617">
        <ele>1014.8088379</ele>
        <time>2014-05-04T11:06:46Z</time>
      </trkpt>
      <trkpt lat="44.44775" lon="6.1157">
        <ele>1015.7702637</ele>
        <time>2014-05-04T11:06:58Z</time>
      </trkpt>
      <trkpt lat="44.44778" lon="6.11556">
        <ele>1015.2895508</ele>
        <time>2014-05-04T11:07:02Z</time>
      </trkpt>
      <trkpt lat="44.4479" lon="6.11518">
        <ele>1011.9250488</ele>
        <time>2014-05-04T11:07:10Z</time>
      </trkpt>
      <trkpt lat="44.44795" lon="6.11461">
        <ele>1011.9250488</ele>
        <time>2014-05-04T11:07:18Z</time>
      </trkpt>
      <trkpt lat="44.44794" lon="6.11432">
        <ele>1012.4055176</ele>
        <time>2014-05-04T11:07:22Z</time>
      </trkpt>
      <trkpt lat="44.44792" lon="6.11412">
        <ele>1010.963623</ele>
        <time>2014-05-04T11:07:25Z</time>
      </trkpt>
      <trkpt lat="44.44786" lon="6.11401">
        <ele>1010.4829102</ele>
        <time>2014-05-04T11:07:27Z</time>
      </trkpt>
      <trkpt lat="44.44783" lon="6.11344">
        <ele>1009.0410156</ele>
        <time>2014-05-04T11:07:33Z</time>
      </trkpt>
      <trkpt lat="44.44787" lon="6.11271">
        <ele>1007.1184082</ele>
        <time>2014-05-04T11:07:39Z</time>
      </trkpt>
      <trkpt lat="44.44789" lon="6.11245">
        <ele>1005.6765137</ele>
        <time>2014-05-04T11:07:41Z</time>
      </trkpt>
      <trkpt lat="44.44786" lon="6.11064">
        <ele>1004.7150879</ele>
        <time>2014-05-04T11:07:57Z</time>
      </trkpt>
      <trkpt lat="44.44788" lon="6.11032">
        <ele>1002.3115234</ele>
        <time>2014-05-04T11:08:00Z</time>
      </trkpt>
      <trkpt lat="44.44787" lon="6.11009">
        <ele>1000.3891602</ele>
        <time>2014-05-04T11:08:02Z</time>
      </trkpt>
      <trkpt lat="44.44783" lon="6.10986">
        <ele>998.9470215</ele>
        <time>2014-05-04T11:08:04Z</time>
      </trkpt>
      <trkpt lat="44.44769" lon="6.10929">
        <ele>1000.8696289</ele>
        <time>2014-05-04T11:08:10Z</time>
      </trkpt>
      <trkpt lat="44.44765" lon="6.10873">
        <ele>1002.7922363</ele>
        <time>2014-05-04T11:08:21Z</time>
      </trkpt>
      <trkpt lat="44.4473" lon="6.10838">
        <ele>1002.7922363</ele>
        <time>2014-05-04T11:08:35Z</time>
      </trkpt>
      <trkpt lat="44.44702" lon="6.10813">
        <ele>1004.2346191</ele>
        <time>2014-05-04T11:08:47Z</time>
      </trkpt>
      <trkpt lat="44.44676" lon="6.10802">
        <ele>1005.6765137</ele>
        <time>2014-05-04T11:08:57Z</time>
      </trkpt>
      <trkpt lat="44.44667" lon="6.1079">
        <ele>1007.1184082</ele>
        <time>2014-05-04T11:09:04Z</time>
      </trkpt>
      <trkpt lat="44.44669" lon="6.10779">
        <ele>1009.5217285</ele>
        <time>2014-05-04T11:09:09Z</time>
      </trkpt>
      <trkpt lat="44.44667" lon="6.10742">
        <ele>1011.9250488</ele>
        <time>2014-05-04T11:09:25Z</time>
      </trkpt>
      <trkpt lat="44.44663" lon="6.10706">
        <ele>1014.328125</ele>
        <time>2014-05-04T11:09:39Z</time>
      </trkpt>
      <trkpt lat="44.44661" lon="6.1066">
        <ele>1016.7314453</ele>
        <time>2014-05-04T11:09:57Z</time>
      </trkpt>
      <trkpt lat="44.44655" lon="6.10613">
        <ele>1018.1733398</ele>
        <time>2014-05-04T11:10:16Z</time>
      </trkpt>
      <trkpt lat="44.44628" lon="6.10574">
        <ele>1020.5769043</ele>
        <time>2014-05-04T11:10:36Z</time>
      </trkpt>
      <trkpt lat="44.4461" lon="6.10531">
        <ele>1019.1347656</ele>
        <time>2014-05-04T11:10:50Z</time>
      </trkpt>
      <trkpt lat="44.44604" lon="6.10513">
        <ele>1018.6540527</ele>
        <time>2014-05-04T11:10:53Z</time>
      </trkpt>
      <trkpt lat="44.44596" lon="6.10492">
        <ele>1018.1733398</ele>
        <time>2014-05-04T11:10:56Z</time>
      </trkpt>
      <trkpt lat="44.44579" lon="6.10471">
        <ele>1017.692627</ele>
        <time>2014-05-04T11:11:00Z</time>
      </trkpt>
      <trkpt lat="44.44547" lon="6.10442">
        <ele>1019.1347656</ele>
        <time>2014-05-04T11:11:12Z</time>
      </trkpt>
      <trkpt lat="44.44542" lon="6.10436">
        <ele>1019.6154785</ele>
        <time>2014-05-04T11:11:14Z</time>
      </trkpt>
      <trkpt lat="44.44514" lon="6.10414">
        <ele>1021.5380859</ele>
        <time>2014-05-04T11:11:28Z</time>
      </trkpt>
      <trkpt lat="44.44508" lon="6.10412">
        <ele>1022.4995117</ele>
        <time>2014-05-04T11:11:31Z</time>
      </trkpt>
      <trkpt lat="44.44494" lon="6.10407">
        <ele>1023.9414063</ele>
        <time>2014-05-04T11:11:38Z</time>
      </trkpt>
      <trkpt lat="44.44488" lon="6.10403">
        <ele>1023.9414063</ele>
        <time>2014-05-04T11:11:42Z</time>
      </trkpt>
      <trkpt lat="44.44473" lon="6.10397">
        <ele>1025.3833008</ele>
        <time>2014-05-04T11:11:50Z</time>
      </trkpt>
      <trkpt lat="44.44447" lon="6.10385">
        <ele>1027.3061523</ele>
        <time>2014-05-04T11:12:05Z</time>
      </trkpt>
      <trkpt lat="44.44442" lon="6.10382">
        <ele>1028.267334</ele>
        <time>2014-05-04T11:12:08Z</time>
      </trkpt>
      <trkpt lat="44.44421" lon="6.10361">
        <ele>1030.6706543</ele>
        <time>2014-05-04T11:12:23Z</time>
      </trkpt>
      <trkpt lat="44.44391" lon="6.1035">
        <ele>1032.5932617</ele>
        <time>2014-05-04T11:12:40Z</time>
      </trkpt>
      <trkpt lat="44.44368" lon="6.10367">
        <ele>1034.5158691</ele>
        <time>2014-05-04T11:12:54Z</time>
      </trkpt>
      <trkpt lat="44.44343" lon="6.10382">
        <ele>1036.9191895</ele>
        <time>2014-05-04T11:13:09Z</time>
      </trkpt>
      <trkpt lat="44.44321" lon="6.104">
        <ele>1037.8806152</ele>
        <time>2014-05-04T11:13:24Z</time>
      </trkpt>
      <trkpt lat="44.44301" lon="6.10418">
        <ele>1039.8032227</ele>
        <time>2014-05-04T11:13:38Z</time>
      </trkpt>
      <trkpt lat="44.4429" lon="6.10418">
        <ele>1040.7644043</ele>
        <time>2014-05-04T11:13:43Z</time>
      </trkpt>
      <trkpt lat="44.44286" lon="6.10408">
        <ele>1041.2451172</ele>
        <time>2014-05-04T11:13:48Z</time>
      </trkpt>
      <trkpt lat="44.44296" lon="6.10381">
        <ele>1042.206543</ele>
        <time>2014-05-04T11:13:59Z</time>
      </trkpt>
      <trkpt lat="44.44301" lon="6.10334">
        <ele>1045.090332</ele>
        <time>2014-05-04T11:14:18Z</time>
      </trkpt>
      <trkpt lat="44.443" lon="6.10291">
        <ele>1047.0129395</ele>
        <time>2014-05-04T11:14:34Z</time>
      </trkpt>
      <trkpt lat="44.44277" lon="6.10249">
        <ele>1049.4162598</ele>
        <time>2014-05-04T11:14:55Z</time>
      </trkpt>
      <trkpt lat="44.44258" lon="6.1022">
        <ele>1048.454834</ele>
        <time>2014-05-04T11:15:09Z</time>
      </trkpt>
      <trkpt lat="44.44236" lon="6.1018">
        <ele>1049.8969727</ele>
        <time>2014-05-04T11:15:26Z</time>
      </trkpt>
      <trkpt lat="44.44234" lon="6.10168">
        <ele>1049.8969727</ele>
        <time>2014-05-04T11:15:29Z</time>
      </trkpt>
      <trkpt lat="44.4424" lon="6.10151">
        <ele>1049.8969727</ele>
        <time>2014-05-04T11:15:33Z</time>
      </trkpt>
      <trkpt lat="44.44278" lon="6.10115">
        <ele>1050.8581543</ele>
        <time>2014-05-04T11:15:49Z</time>
      </trkpt>
      <trkpt lat="44.44308" lon="6.10077">
        <ele>1052.300293</ele>
        <time>2014-05-04T11:16:04Z</time>
      </trkpt>
      <trkpt lat="44.44333" lon="6.10042">
        <ele>1052.7810059</ele>
        <time>2014-05-04T11:16:17Z</time>
      </trkpt>
      <trkpt lat="44.44379" lon="6.10035">
        <ele>1052.7810059</ele>
        <time>2014-05-04T11:16:29Z</time>
      </trkpt>
      <trkpt lat="44.4442" lon="6.10006">
        <ele>1055.6650391</ele>
        <time>2014-05-04T11:16:44Z</time>
      </trkpt>
      <trkpt lat="44.44466" lon="6.09967">
        <ele>1055.1843262</ele>
        <time>2014-05-04T11:17:01Z</time>
      </trkpt>
      <trkpt lat="44.44494" lon="6.09929">
        <ele>1053.7424316</ele>
        <time>2014-05-04T11:17:13Z</time>
      </trkpt>
      <trkpt lat="44.445" lon="6.09906">
        <ele>1052.300293</ele>
        <time>2014-05-04T11:17:23Z</time>
      </trkpt>
      <trkpt lat="44.445" lon="6.09906">
        <ele>1050.8581543</ele>
        <time>2014-05-04T11:17:57Z</time>
      </trkpt>
      <trkpt lat="44.445" lon="6.09907">
        <ele>1051.3388672</ele>
        <time>2014-05-04T11:18:34Z</time>
      </trkpt>
      <trkpt lat="44.445" lon="6.09907">
        <ele>1050.3776855</ele>
        <time>2014-05-04T11:19:03Z</time>
      </trkpt>
      <trkpt lat="44.44522" lon="6.09873">
        <ele>1048.9355469</ele>
        <time>2014-05-04T11:19:13Z</time>
      </trkpt>
      <trkpt lat="44.44553" lon="6.09823">
        <ele>1048.454834</ele>
        <time>2014-05-04T11:19:22Z</time>
      </trkpt>
      <trkpt lat="44.44593" lon="6.09742">
        <ele>1046.0517578</ele>
        <time>2014-05-04T11:19:33Z</time>
      </trkpt>
      <trkpt lat="44.44601" lon="6.09679">
        <ele>1045.090332</ele>
        <time>2014-05-04T11:19:39Z</time>
      </trkpt>
      <trkpt lat="44.44599" lon="6.09656">
        <ele>1043.1677246</ele>
        <time>2014-05-04T11:19:41Z</time>
      </trkpt>
      <trkpt lat="44.44595" lon="6.09608">
        <ele>1040.2839355</ele>
        <time>2014-05-04T11:19:45Z</time>
      </trkpt>
      <trkpt lat="44.44589" lon="6.09552">
        <ele>1039.3225098</ele>
        <time>2014-05-04T11:19:50Z</time>
      </trkpt>
      <trkpt lat="44.44578" lon="6.09504">
        <ele>1037.3999023</ele>
        <time>2014-05-04T11:19:55Z</time>
      </trkpt>
      <trkpt lat="44.44576" lon="6.09496">
        <ele>1036.4387207</ele>
        <time>2014-05-04T11:19:56Z</time>
      </trkpt>
      <trkpt lat="44.44582" lon="6.09434">
        <ele>1032.5932617</ele>
        <time>2014-05-04T11:20:03Z</time>
      </trkpt>
      <trkpt lat="44.44586" lon="6.09426">
        <ele>1032.5932617</ele>
        <time>2014-05-04T11:20:04Z</time>
      </trkpt>
      <trkpt lat="44.4462" lon="6.09396">
        <ele>1030.6706543</ele>
        <time>2014-05-04T11:20:10Z</time>
      </trkpt>
      <trkpt lat="44.44634" lon="6.09393">
        <ele>1029.2285156</ele>
        <time>2014-05-04T11:20:12Z</time>
      </trkpt>
      <trkpt lat="44.4466" lon="6.09377">
        <ele>1027.3061523</ele>
        <time>2014-05-04T11:20:16Z</time>
      </trkpt>
      <trkpt lat="44.44672" lon="6.09367">
        <ele>1027.3061523</ele>
        <time>2014-05-04T11:20:18Z</time>
      </trkpt>
      <trkpt lat="44.44701" lon="6.09356">
        <ele>1025.3833008</ele>
        <time>2014-05-04T11:20:22Z</time>
      </trkpt>
      <trkpt lat="44.44723" lon="6.09353">
        <ele>1024.902832</ele>
        <time>2014-05-04T11:20:25Z</time>
      </trkpt>
      <trkpt lat="44.44788" lon="6.0931">
        <ele>1021.5380859</ele>
        <time>2014-05-04T11:20:35Z</time>
      </trkpt>
      <trkpt lat="44.44821" lon="6.09291">
        <ele>1019.1347656</ele>
        <time>2014-05-04T11:20:40Z</time>
      </trkpt>
      <trkpt lat="44.44853" lon="6.09266">
        <ele>1017.692627</ele>
        <time>2014-05-04T11:20:45Z</time>
      </trkpt>
      <trkpt lat="44.44873" lon="6.09225">
        <ele>1017.2121582</ele>
        <time>2014-05-04T11:20:50Z</time>
      </trkpt>
      <trkpt lat="44.44894" lon="6.09132">
        <ele>1013.8474121</ele>
        <time>2014-05-04T11:21:00Z</time>
      </trkpt>
      <trkpt lat="44.44921" lon="6.09046">
        <ele>1012.4055176</ele>
        <time>2014-05-04T11:21:11Z</time>
      </trkpt>
      <trkpt lat="44.44937" lon="6.09004">
        <ele>1010.4829102</ele>
        <time>2014-05-04T11:21:16Z</time>
      </trkpt>
      <trkpt lat="44.4495" lon="6.08966">
        <ele>1007.5991211</ele>
        <time>2014-05-04T11:21:21Z</time>
      </trkpt>
      <trkpt lat="44.44952" lon="6.08961">
        <ele>1008.5603027</ele>
        <time>2014-05-04T11:21:22Z</time>
      </trkpt>
      <trkpt lat="44.44982" lon="6.08915">
        <ele>1009.5217285</ele>
        <time>2014-05-04T11:21:35Z</time>
      </trkpt>
      <trkpt lat="44.45014" lon="6.08864">
        <ele>1011.9250488</ele>
        <time>2014-05-04T11:21:50Z</time>
      </trkpt>
      <trkpt lat="44.45022" lon="6.08847">
        <ele>1010.963623</ele>
        <time>2014-05-04T11:21:53Z</time>
      </trkpt>
      <trkpt lat="44.45042" lon="6.08824">
        <ele>1007.5991211</ele>
        <time>2014-05-04T11:21:57Z</time>
      </trkpt>
      <trkpt lat="44.45048" lon="6.08819">
        <ele>1007.5991211</ele>
        <time>2014-05-04T11:21:58Z</time>
      </trkpt>
      <trkpt lat="44.45072" lon="6.08801">
        <ele>1008.079834</ele>
        <time>2014-05-04T11:22:02Z</time>
      </trkpt>
      <trkpt lat="44.45098" lon="6.08748">
        <ele>1005.6765137</ele>
        <time>2014-05-04T11:22:09Z</time>
      </trkpt>
      <trkpt lat="44.45105" lon="6.08718">
        <ele>1005.1958008</ele>
        <time>2014-05-04T11:22:12Z</time>
      </trkpt>
      <trkpt lat="44.45113" lon="6.08703">
        <ele>1003.2729492</ele>
        <time>2014-05-04T11:22:14Z</time>
      </trkpt>
      <trkpt lat="44.45124" lon="6.0869">
        <ele>1002.3115234</ele>
        <time>2014-05-04T11:22:16Z</time>
      </trkpt>
      <trkpt lat="44.45144" lon="6.08645">
        <ele>1000.8696289</ele>
        <time>2014-05-04T11:22:22Z</time>
      </trkpt>
      <trkpt lat="44.45145" lon="6.08624">
        <ele>999.9084473</ele>
        <time>2014-05-04T11:22:24Z</time>
      </trkpt>
      <trkpt lat="44.45144" lon="6.08585">
        <ele>998.9470215</ele>
        <time>2014-05-04T11:22:28Z</time>
      </trkpt>
      <trkpt lat="44.45145" lon="6.08568">
        <ele>997.505127</ele>
        <time>2014-05-04T11:22:30Z</time>
      </trkpt>
      <trkpt lat="44.45158" lon="6.08512">
        <ele>994.140625</ele>
        <time>2014-05-04T11:22:36Z</time>
      </trkpt>
      <trkpt lat="44.45159" lon="6.08502">
        <ele>994.140625</ele>
        <time>2014-05-04T11:22:37Z</time>
      </trkpt>
      <trkpt lat="44.45179" lon="6.08465">
        <ele>991.7373047</ele>
        <time>2014-05-04T11:22:42Z</time>
      </trkpt>
      <trkpt lat="44.45185" lon="6.0846">
        <ele>988.3728027</ele>
        <time>2014-05-04T11:22:43Z</time>
      </trkpt>
      <trkpt lat="44.45192" lon="6.08457">
        <ele>988.3728027</ele>
        <time>2014-05-04T11:22:44Z</time>
      </trkpt>
      <trkpt lat="44.452" lon="6.08455">
        <ele>988.8535156</ele>
        <time>2014-05-04T11:22:45Z</time>
      </trkpt>
      <trkpt lat="44.45212" lon="6.08452">
        <ele>986.9304199</ele>
        <time>2014-05-04T11:22:47Z</time>
      </trkpt>
      <trkpt lat="44.45229" lon="6.08418">
        <ele>985.9692383</ele>
        <time>2014-05-04T11:22:52Z</time>
      </trkpt>
      <trkpt lat="44.45238" lon="6.08339">
        <ele>984.5273438</ele>
        <time>2014-05-04T11:23:02Z</time>
      </trkpt>
      <trkpt lat="44.45236" lon="6.08292">
        <ele>984.0466309</ele>
        <time>2014-05-04T11:23:08Z</time>
      </trkpt>
      <trkpt lat="44.4524" lon="6.08263">
        <ele>982.6047363</ele>
        <time>2014-05-04T11:23:12Z</time>
      </trkpt>
      <trkpt lat="44.45265" lon="6.08253">
        <ele>979.7207031</ele>
        <time>2014-05-04T11:23:17Z</time>
      </trkpt>
      <trkpt lat="44.45302" lon="6.08265">
        <ele>976.3562012</ele>
        <time>2014-05-04T11:23:22Z</time>
      </trkpt>
      <trkpt lat="44.45309" lon="6.08266">
        <ele>976.3562012</ele>
        <time>2014-05-04T11:23:23Z</time>
      </trkpt>
      <trkpt lat="44.4534" lon="6.08247">
        <ele>974.4335938</ele>
        <time>2014-05-04T11:23:29Z</time>
      </trkpt>
      <trkpt lat="44.45351" lon="6.08223">
        <ele>973.4724121</ele>
        <time>2014-05-04T11:23:32Z</time>
      </trkpt>
      <trkpt lat="44.45366" lon="6.08206">
        <ele>973.4724121</ele>
        <time>2014-05-04T11:23:35Z</time>
      </trkpt>
      <trkpt lat="44.45378" lon="6.082">
        <ele>971.5493164</ele>
        <time>2014-05-04T11:23:37Z</time>
      </trkpt>
      <trkpt lat="44.45392" lon="6.08203">
        <ele>970.5881348</ele>
        <time>2014-05-04T11:23:39Z</time>
      </trkpt>
      <trkpt lat="44.45413" lon="6.08214">
        <ele>967.7041016</ele>
        <time>2014-05-04T11:23:42Z</time>
      </trkpt>
      <trkpt lat="44.45442" lon="6.0823">
        <ele>965.7817383</ele>
        <time>2014-05-04T11:23:46Z</time>
      </trkpt>
      <trkpt lat="44.45464" lon="6.08239">
        <ele>965.3010254</ele>
        <time>2014-05-04T11:23:49Z</time>
      </trkpt>
      <trkpt lat="44.45477" lon="6.08247">
        <ele>963.8588867</ele>
        <time>2014-05-04T11:23:51Z</time>
      </trkpt>
      <trkpt lat="44.45489" lon="6.08257">
        <ele>962.4169922</ele>
        <time>2014-05-04T11:23:53Z</time>
      </trkpt>
      <trkpt lat="44.45501" lon="6.08262">
        <ele>960.9750977</ele>
        <time>2014-05-04T11:23:55Z</time>
      </trkpt>
      <trkpt lat="44.45534" lon="6.08233">
        <ele>958.0913086</ele>
        <time>2014-05-04T11:24:01Z</time>
      </trkpt>
      <trkpt lat="44.45545" lon="6.08216">
        <ele>957.1298828</ele>
        <time>2014-05-04T11:24:03Z</time>
      </trkpt>
      <trkpt lat="44.45549" lon="6.08208">
        <ele>956.168457</ele>
        <time>2014-05-04T11:24:04Z</time>
      </trkpt>
      <trkpt lat="44.45558" lon="6.08189">
        <ele>953.7651367</ele>
        <time>2014-05-04T11:24:07Z</time>
      </trkpt>
      <trkpt lat="44.45558" lon="6.08163">
        <ele>951.8425293</ele>
        <time>2014-05-04T11:24:10Z</time>
      </trkpt>
      <trkpt lat="44.45554" lon="6.08136">
        <ele>949.9199219</ele>
        <time>2014-05-04T11:24:13Z</time>
      </trkpt>
      <trkpt lat="44.45567" lon="6.08104">
        <ele>947.0358887</ele>
        <time>2014-05-04T11:24:19Z</time>
      </trkpt>
      <trkpt lat="44.45581" lon="6.0811">
        <ele>945.5939941</ele>
        <time>2014-05-04T11:24:22Z</time>
      </trkpt>
      <trkpt lat="44.45604" lon="6.08129">
        <ele>944.1520996</ele>
        <time>2014-05-04T11:24:26Z</time>
      </trkpt>
      <trkpt lat="44.4563" lon="6.08138">
        <ele>942.2294922</ele>
        <time>2014-05-04T11:24:30Z</time>
      </trkpt>
      <trkpt lat="44.45636" lon="6.08138">
        <ele>941.7487793</ele>
        <time>2014-05-04T11:24:31Z</time>
      </trkpt>
      <trkpt lat="44.45648" lon="6.08136">
        <ele>940.3068848</ele>
        <time>2014-05-04T11:24:33Z</time>
      </trkpt>
      <trkpt lat="44.45662" lon="6.08134">
        <ele>938.8647461</ele>
        <time>2014-05-04T11:24:35Z</time>
      </trkpt>
      <trkpt lat="44.45687" lon="6.08131">
        <ele>935.9807129</ele>
        <time>2014-05-04T11:24:39Z</time>
      </trkpt>
      <trkpt lat="44.45693" lon="6.08131">
        <ele>935.9807129</ele>
        <time>2014-05-04T11:24:40Z</time>
      </trkpt>
      <trkpt lat="44.4572" lon="6.08144">
        <ele>934.5388184</ele>
        <time>2014-05-04T11:24:44Z</time>
      </trkpt>
      <trkpt lat="44.45739" lon="6.08164">
        <ele>932.135498</ele>
        <time>2014-05-04T11:24:47Z</time>
      </trkpt>
      <trkpt lat="44.45744" lon="6.0817">
        <ele>930.6936035</ele>
        <time>2014-05-04T11:24:48Z</time>
      </trkpt>
      <trkpt lat="44.45764" lon="6.08187">
        <ele>929.2514648</ele>
        <time>2014-05-04T11:24:51Z</time>
      </trkpt>
      <trkpt lat="44.45782" lon="6.08203">
        <ele>926.8483887</ele>
        <time>2014-05-04T11:24:54Z</time>
      </trkpt>
      <trkpt lat="44.45792" lon="6.08212">
        <ele>925.40625</ele>
        <time>2014-05-04T11:24:56Z</time>
      </trkpt>
      <trkpt lat="44.45797" lon="6.08215">
        <ele>924.9257813</ele>
        <time>2014-05-04T11:24:57Z</time>
      </trkpt>
      <trkpt lat="44.45812" lon="6.0825">
        <ele>922.0415039</ele>
        <time>2014-05-04T11:25:02Z</time>
      </trkpt>
      <trkpt lat="44.45812" lon="6.0826">
        <ele>922.0415039</ele>
        <time>2014-05-04T11:25:03Z</time>
      </trkpt>
      <trkpt lat="44.45811" lon="6.0827">
        <ele>921.0803223</ele>
        <time>2014-05-04T11:25:04Z</time>
      </trkpt>
      <trkpt lat="44.45805" lon="6.08314">
        <ele>918.1962891</ele>
        <time>2014-05-04T11:25:08Z</time>
      </trkpt>
      <trkpt lat="44.45806" lon="6.08334">
        <ele>917.7155762</ele>
        <time>2014-05-04T11:25:10Z</time>
      </trkpt>
      <trkpt lat="44.45813" lon="6.08354">
        <ele>916.7543945</ele>
        <time>2014-05-04T11:25:12Z</time>
      </trkpt>
      <trkpt lat="44.45822" lon="6.08374">
        <ele>914.8317871</ele>
        <time>2014-05-04T11:25:14Z</time>
      </trkpt>
      <trkpt lat="44.45827" lon="6.08384">
        <ele>913.8703613</ele>
        <time>2014-05-04T11:25:15Z</time>
      </trkpt>
      <trkpt lat="44.45838" lon="6.08406">
        <ele>912.4284668</ele>
        <time>2014-05-04T11:25:17Z</time>
      </trkpt>
      <trkpt lat="44.45862" lon="6.08442">
        <ele>910.5058594</ele>
        <time>2014-05-04T11:25:21Z</time>
      </trkpt>
      <trkpt lat="44.45884" lon="6.08461">
        <ele>909.5446777</ele>
        <time>2014-05-04T11:25:24Z</time>
      </trkpt>
      <trkpt lat="44.45899" lon="6.0847">
        <ele>908.583252</ele>
        <time>2014-05-04T11:25:26Z</time>
      </trkpt>
      <trkpt lat="44.45947" lon="6.08472">
        <ele>905.2185059</ele>
        <time>2014-05-04T11:25:32Z</time>
      </trkpt>
      <trkpt lat="44.46003" lon="6.08439">
        <ele>902.8151855</ele>
        <time>2014-05-04T11:25:40Z</time>
      </trkpt>
      <trkpt lat="44.46016" lon="6.08432">
        <ele>903.7766113</ele>
        <time>2014-05-04T11:25:42Z</time>
      </trkpt>
      <trkpt lat="44.46029" lon="6.0843">
        <ele>902.3344727</ele>
        <time>2014-05-04T11:25:44Z</time>
      </trkpt>
      <trkpt lat="44.46047" lon="6.08435">
        <ele>901.373291</ele>
        <time>2014-05-04T11:25:47Z</time>
      </trkpt>
      <trkpt lat="44.46095" lon="6.08461">
        <ele>900.4121094</ele>
        <time>2014-05-04T11:25:59Z</time>
      </trkpt>
      <trkpt lat="44.461" lon="6.08466">
        <ele>899.4506836</ele>
        <time>2014-05-04T11:26:10Z</time>
      </trkpt>
      <trkpt lat="44.461" lon="6.08467">
        <ele>899.4506836</ele>
        <time>2014-05-04T11:26:52Z</time>
      </trkpt>
      <trkpt lat="44.46097" lon="6.08485">
        <ele>899.4506836</ele>
        <time>2014-05-04T11:26:58Z</time>
      </trkpt>
      <trkpt lat="44.46081" lon="6.08524">
        <ele>897.5280762</ele>
        <time>2014-05-04T11:27:05Z</time>
      </trkpt>
      <trkpt lat="44.46059" lon="6.08564">
        <ele>896.0861816</ele>
        <time>2014-05-04T11:27:11Z</time>
      </trkpt>
      <trkpt lat="44.46033" lon="6.08629">
        <ele>892.2409668</ele>
        <time>2014-05-04T11:27:18Z</time>
      </trkpt>
      <trkpt lat="44.46029" lon="6.08638">
        <ele>892.2409668</ele>
        <time>2014-05-04T11:27:19Z</time>
      </trkpt>
      <trkpt lat="44.46026" lon="6.08645">
        <ele>891.7600098</ele>
        <time>2014-05-04T11:27:20Z</time>
      </trkpt>
      <trkpt lat="44.46019" lon="6.08658">
        <ele>890.798584</ele>
        <time>2014-05-04T11:27:22Z</time>
      </trkpt>
      <trkpt lat="44.46003" lon="6.08672">
        <ele>888.3955078</ele>
        <time>2014-05-04T11:27:25Z</time>
      </trkpt>
      <trkpt lat="44.45976" lon="6.08685">
        <ele>887.434082</ele>
        <time>2014-05-04T11:27:29Z</time>
      </trkpt>
      <trkpt lat="44.45944" lon="6.08703">
        <ele>884.0695801</ele>
        <time>2014-05-04T11:27:34Z</time>
      </trkpt>
      <trkpt lat="44.45933" lon="6.0871">
        <ele>883.1081543</ele>
        <time>2014-05-04T11:27:36Z</time>
      </trkpt>
      <trkpt lat="44.45929" lon="6.08712">
        <ele>882.6276855</ele>
        <time>2014-05-04T11:27:37Z</time>
      </trkpt>
      <trkpt lat="44.45932" lon="6.08747">
        <ele>880.2243652</ele>
        <time>2014-05-04T11:27:44Z</time>
      </trkpt>
      <trkpt lat="44.45942" lon="6.08751">
        <ele>880.7050781</ele>
        <time>2014-05-04T11:27:46Z</time>
      </trkpt>
      <trkpt lat="44.45987" lon="6.08761">
        <ele>879.2629395</ele>
        <time>2014-05-04T11:27:53Z</time>
      </trkpt>
      <trkpt lat="44.46001" lon="6.08775">
        <ele>877.8210449</ele>
        <time>2014-05-04T11:27:56Z</time>
      </trkpt>
      <trkpt lat="44.46001" lon="6.0881">
        <ele>876.8598633</ele>
        <time>2014-05-04T11:28:01Z</time>
      </trkpt>
      <trkpt lat="44.45996" lon="6.0883">
        <ele>876.3791504</ele>
        <time>2014-05-04T11:28:04Z</time>
      </trkpt>
      <trkpt lat="44.45995" lon="6.08846">
        <ele>876.3791504</ele>
        <time>2014-05-04T11:28:06Z</time>
      </trkpt>
      <trkpt lat="44.4601" lon="6.08895">
        <ele>875.4174805</ele>
        <time>2014-05-04T11:28:13Z</time>
      </trkpt>
      <trkpt lat="44.46023" lon="6.08912">
        <ele>874.4562988</ele>
        <time>2014-05-04T11:28:16Z</time>
      </trkpt>
      <trkpt lat="44.46054" lon="6.08969">
        <ele>871.5722656</ele>
        <time>2014-05-04T11:28:24Z</time>
      </trkpt>
      <trkpt lat="44.46064" lon="6.08997">
        <ele>869.6499023</ele>
        <time>2014-05-04T11:28:27Z</time>
      </trkpt>
      <trkpt lat="44.46076" lon="6.09023">
        <ele>866.7658691</ele>
        <time>2014-05-04T11:28:30Z</time>
      </trkpt>
      <trkpt lat="44.4608" lon="6.09033">
        <ele>866.7658691</ele>
        <time>2014-05-04T11:28:31Z</time>
      </trkpt>
      <trkpt lat="44.46093" lon="6.09059">
        <ele>864.8432617</ele>
        <time>2014-05-04T11:28:34Z</time>
      </trkpt>
      <trkpt lat="44.46097" lon="6.09068">
        <ele>862.4399414</ele>
        <time>2014-05-04T11:28:35Z</time>
      </trkpt>
      <trkpt lat="44.46114" lon="6.0909">
        <ele>860.9980469</ele>
        <time>2014-05-04T11:28:38Z</time>
      </trkpt>
      <trkpt lat="44.46121" lon="6.09096">
        <ele>859.0751953</ele>
        <time>2014-05-04T11:28:39Z</time>
      </trkpt>
      <trkpt lat="44.46131" lon="6.09105">
        <ele>858.1140137</ele>
        <time>2014-05-04T11:28:41Z</time>
      </trkpt>
      <trkpt lat="44.46138" lon="6.09117">
        <ele>856.671875</ele>
        <time>2014-05-04T11:28:43Z</time>
      </trkpt>
      <trkpt lat="44.46139" lon="6.09136">
        <ele>855.7106934</ele>
        <time>2014-05-04T11:28:45Z</time>
      </trkpt>
      <trkpt lat="44.46138" lon="6.09155">
        <ele>854.2687988</ele>
        <time>2014-05-04T11:28:47Z</time>
      </trkpt>
      <trkpt lat="44.46146" lon="6.09179">
        <ele>852.3459473</ele>
        <time>2014-05-04T11:28:50Z</time>
      </trkpt>
      <trkpt lat="44.46157" lon="6.09187">
        <ele>851.8654785</ele>
        <time>2014-05-04T11:28:52Z</time>
      </trkpt>
      <trkpt lat="44.46171" lon="6.09192">
        <ele>849.9428711</ele>
        <time>2014-05-04T11:28:54Z</time>
      </trkpt>
      <trkpt lat="44.46186" lon="6.09196">
        <ele>848.0202637</ele>
        <time>2014-05-04T11:28:56Z</time>
      </trkpt>
      <trkpt lat="44.46218" lon="6.09218">
        <ele>845.1362305</ele>
        <time>2014-05-04T11:29:01Z</time>
      </trkpt>
      <trkpt lat="44.46237" lon="6.09261">
        <ele>843.2133789</ele>
        <time>2014-05-04T11:29:06Z</time>
      </trkpt>
      <trkpt lat="44.46249" lon="6.09306">
        <ele>840.8100586</ele>
        <time>2014-05-04T11:29:11Z</time>
      </trkpt>
      <trkpt lat="44.46254" lon="6.09332">
        <ele>839.3681641</ele>
        <time>2014-05-04T11:29:14Z</time>
      </trkpt>
      <trkpt lat="44.46268" lon="6.09368">
        <ele>837.9262695</ele>
        <time>2014-05-04T11:29:18Z</time>
      </trkpt>
      <trkpt lat="44.4628" lon="6.09386">
        <ele>836.9648438</ele>
        <time>2014-05-04T11:29:20Z</time>
      </trkpt>
      <trkpt lat="44.46292" lon="6.09403">
        <ele>835.5229492</ele>
        <time>2014-05-04T11:29:22Z</time>
      </trkpt>
      <trkpt lat="44.46297" lon="6.09411">
        <ele>835.5229492</ele>
        <time>2014-05-04T11:29:23Z</time>
      </trkpt>
      <trkpt lat="44.46305" lon="6.09453">
        <ele>832.6391602</ele>
        <time>2014-05-04T11:29:28Z</time>
      </trkpt>
      <trkpt lat="44.463" lon="6.09469">
        <ele>832.6391602</ele>
        <time>2014-05-04T11:29:30Z</time>
      </trkpt>
      <trkpt lat="44.46297" lon="6.09494">
        <ele>831.6777344</ele>
        <time>2014-05-04T11:29:33Z</time>
      </trkpt>
      <trkpt lat="44.46305" lon="6.09527">
        <ele>829.2744141</ele>
        <time>2014-05-04T11:29:37Z</time>
      </trkpt>
      <trkpt lat="44.46325" lon="6.09561">
        <ele>826.8710938</ele>
        <time>2014-05-04T11:29:41Z</time>
      </trkpt>
      <trkpt lat="44.46345" lon="6.09601">
        <ele>824.9484863</ele>
        <time>2014-05-04T11:29:45Z</time>
      </trkpt>
      <trkpt lat="44.4636" lon="6.09621">
        <ele>822.0644531</ele>
        <time>2014-05-04T11:29:48Z</time>
      </trkpt>
      <trkpt lat="44.46372" lon="6.09631">
        <ele>820.6225586</ele>
        <time>2014-05-04T11:29:50Z</time>
      </trkpt>
      <trkpt lat="44.46387" lon="6.09633">
        <ele>818.6999512</ele>
        <time>2014-05-04T11:29:52Z</time>
      </trkpt>
      <trkpt lat="44.46404" lon="6.09628">
        <ele>814.8547363</ele>
        <time>2014-05-04T11:29:54Z</time>
      </trkpt>
      <trkpt lat="44.46412" lon="6.09624">
        <ele>814.8547363</ele>
        <time>2014-05-04T11:29:55Z</time>
      </trkpt>
      <trkpt lat="44.46428" lon="6.09613">
        <ele>812.9321289</ele>
        <time>2014-05-04T11:29:57Z</time>
      </trkpt>
      <trkpt lat="44.46463" lon="6.09585">
        <ele>811.0092773</ele>
        <time>2014-05-04T11:30:02Z</time>
      </trkpt>
      <trkpt lat="44.46474" lon="6.0958">
        <ele>809.5673828</ele>
        <time>2014-05-04T11:30:04Z</time>
      </trkpt>
      <trkpt lat="44.46485" lon="6.09585">
        <ele>808.1254883</ele>
        <time>2014-05-04T11:30:06Z</time>
      </trkpt>
      <trkpt lat="44.46492" lon="6.096">
        <ele>807.1640625</ele>
        <time>2014-05-04T11:30:08Z</time>
      </trkpt>
      <trkpt lat="44.46497" lon="6.09614">
        <ele>806.6833496</ele>
        <time>2014-05-04T11:30:10Z</time>
      </trkpt>
      <trkpt lat="44.46505" lon="6.09626">
        <ele>805.2414551</ele>
        <time>2014-05-04T11:30:13Z</time>
      </trkpt>
      <trkpt lat="44.46511" lon="6.09624">
        <ele>803.7995605</ele>
        <time>2014-05-04T11:30:21Z</time>
      </trkpt>
      <trkpt lat="44.46511" lon="6.09624">
        <ele>803.3188477</ele>
        <time>2014-05-04T11:30:25Z</time>
      </trkpt>
      <trkpt lat="44.46507" lon="6.09612">
        <ele>803.7995605</ele>
        <time>2014-05-04T11:30:32Z</time>
      </trkpt>
      <trkpt lat="44.46504" lon="6.0959">
        <ele>802.8381348</ele>
        <time>2014-05-04T11:30:37Z</time>
      </trkpt>
      <trkpt lat="44.46505" lon="6.09547">
        <ele>800.9155273</ele>
        <time>2014-05-04T11:30:43Z</time>
      </trkpt>
      <trkpt lat="44.46515" lon="6.09521">
        <ele>798.9929199</ele>
        <time>2014-05-04T11:30:46Z</time>
      </trkpt>
      <trkpt lat="44.46518" lon="6.09507">
        <ele>798.0317383</ele>
        <time>2014-05-04T11:30:48Z</time>
      </trkpt>
      <trkpt lat="44.46498" lon="6.09474">
        <ele>796.1091309</ele>
        <time>2014-05-04T11:30:55Z</time>
      </trkpt>
      <trkpt lat="44.46489" lon="6.09472">
        <ele>795.1474609</ele>
        <time>2014-05-04T11:30:57Z</time>
      </trkpt>
      <trkpt lat="44.46492" lon="6.09441">
        <ele>793.7055664</ele>
        <time>2014-05-04T11:31:05Z</time>
      </trkpt>
      <trkpt lat="44.46507" lon="6.09435">
        <ele>792.2636719</ele>
        <time>2014-05-04T11:31:08Z</time>
      </trkpt>
      <trkpt lat="44.46528" lon="6.09438">
        <ele>790.8215332</ele>
        <time>2014-05-04T11:31:11Z</time>
      </trkpt>
      <trkpt lat="44.46557" lon="6.09463">
        <ele>787.9377441</ele>
        <time>2014-05-04T11:31:17Z</time>
      </trkpt>
      <trkpt lat="44.46582" lon="6.09466">
        <ele>784.0925293</ele>
        <time>2014-05-04T11:31:22Z</time>
      </trkpt>
      <trkpt lat="44.46585" lon="6.09461">
        <ele>784.0925293</ele>
        <time>2014-05-04T11:31:23Z</time>
      </trkpt>
      <trkpt lat="44.46587" lon="6.09446">
        <ele>782.6506348</ele>
        <time>2014-05-04T11:31:25Z</time>
      </trkpt>
      <trkpt lat="44.46586" lon="6.0943">
        <ele>781.2087402</ele>
        <time>2014-05-04T11:31:27Z</time>
      </trkpt>
      <trkpt lat="44.46585" lon="6.09422">
        <ele>779.7663574</ele>
        <time>2014-05-04T11:31:28Z</time>
      </trkpt>
      <trkpt lat="44.46586" lon="6.09397">
        <ele>775.4404297</ele>
        <time>2014-05-04T11:31:31Z</time>
      </trkpt>
      <trkpt lat="44.46586" lon="6.09388">
        <ele>775.4404297</ele>
        <time>2014-05-04T11:31:32Z</time>
      </trkpt>
      <trkpt lat="44.46585" lon="6.09373">
        <ele>774.479248</ele>
        <time>2014-05-04T11:31:34Z</time>
      </trkpt>
      <trkpt lat="44.46581" lon="6.09347">
        <ele>772.5566406</ele>
        <time>2014-05-04T11:31:37Z</time>
      </trkpt>
      <trkpt lat="44.46576" lon="6.09328">
        <ele>772.0759277</ele>
        <time>2014-05-04T11:31:39Z</time>
      </trkpt>
      <trkpt lat="44.46574" lon="6.09304">
        <ele>770.1533203</ele>
        <time>2014-05-04T11:31:41Z</time>
      </trkpt>
      <trkpt lat="44.46569" lon="6.09283">
        <ele>769.1921387</ele>
        <time>2014-05-04T11:31:43Z</time>
      </trkpt>
      <trkpt lat="44.46568" lon="6.09274">
        <ele>767.75</ele>
        <time>2014-05-04T11:31:44Z</time>
      </trkpt>
      <trkpt lat="44.46565" lon="6.09255">
        <ele>766.3081055</ele>
        <time>2014-05-04T11:31:46Z</time>
      </trkpt>
      <trkpt lat="44.46564" lon="6.09237">
        <ele>764.8662109</ele>
        <time>2014-05-04T11:31:48Z</time>
      </trkpt>
      <trkpt lat="44.46569" lon="6.09186">
        <ele>761.5014648</ele>
        <time>2014-05-04T11:31:53Z</time>
      </trkpt>
      <trkpt lat="44.46572" lon="6.09168">
        <ele>759.5788574</ele>
        <time>2014-05-04T11:31:55Z</time>
      </trkpt>
      <trkpt lat="44.46575" lon="6.09153">
        <ele>758.1369629</ele>
        <time>2014-05-04T11:31:57Z</time>
      </trkpt>
      <trkpt lat="44.46583" lon="6.09136">
        <ele>755.7336426</ele>
        <time>2014-05-04T11:32:00Z</time>
      </trkpt>
      <trkpt lat="44.46587" lon="6.09131">
        <ele>754.291748</ele>
        <time>2014-05-04T11:32:01Z</time>
      </trkpt>
      <trkpt lat="44.46597" lon="6.09124">
        <ele>752.8496094</ele>
        <time>2014-05-04T11:32:03Z</time>
      </trkpt>
      <trkpt lat="44.46614" lon="6.09118">
        <ele>749.9658203</ele>
        <time>2014-05-04T11:32:07Z</time>
      </trkpt>
      <trkpt lat="44.46609" lon="6.09103">
        <ele>748.0432129</ele>
        <time>2014-05-04T11:32:13Z</time>
      </trkpt>
      <trkpt lat="44.46594" lon="6.09102">
        <ele>746.1203613</ele>
        <time>2014-05-04T11:32:16Z</time>
      </trkpt>
      <trkpt lat="44.46578" lon="6.09067">
        <ele>743.2363281</ele>
        <time>2014-05-04T11:32:23Z</time>
      </trkpt>
      <trkpt lat="44.46597" lon="6.09049">
        <ele>740.8330078</ele>
        <time>2014-05-04T11:32:27Z</time>
      </trkpt>
      <trkpt lat="44.4661" lon="6.09048">
        <ele>737.4685059</ele>
        <time>2014-05-04T11:32:29Z</time>
      </trkpt>
      <trkpt lat="44.4663" lon="6.09045">
        <ele>736.0266113</ele>
        <time>2014-05-04T11:32:32Z</time>
      </trkpt>
      <trkpt lat="44.46636" lon="6.09044">
        <ele>734.1040039</ele>
        <time>2014-05-04T11:32:33Z</time>
      </trkpt>
      <trkpt lat="44.46662" lon="6.09025">
        <ele>730.2585449</ele>
        <time>2014-05-04T11:32:38Z</time>
      </trkpt>
      <trkpt lat="44.46665" lon="6.09018">
        <ele>730.2585449</ele>
        <time>2014-05-04T11:32:39Z</time>
      </trkpt>
      <trkpt lat="44.46667" lon="6.09003">
        <ele>727.8552246</ele>
        <time>2014-05-04T11:32:41Z</time>
      </trkpt>
      <trkpt lat="44.46666" lon="6.08985">
        <ele>724.9714355</ele>
        <time>2014-05-04T11:32:43Z</time>
      </trkpt>
      <trkpt lat="44.46664" lon="6.08976">
        <ele>724.9714355</ele>
        <time>2014-05-04T11:32:44Z</time>
      </trkpt>
      <trkpt lat="44.46661" lon="6.08968">
        <ele>723.529541</ele>
        <time>2014-05-04T11:32:45Z</time>
      </trkpt>
      <trkpt lat="44.46654" lon="6.08943">
        <ele>721.6066895</ele>
        <time>2014-05-04T11:32:48Z</time>
      </trkpt>
      <trkpt lat="44.46653" lon="6.08935">
        <ele>720.1647949</ele>
        <time>2014-05-04T11:32:49Z</time>
      </trkpt>
      <trkpt lat="44.46652" lon="6.0892">
        <ele>718.7229004</ele>
        <time>2014-05-04T11:32:51Z</time>
      </trkpt>
      <trkpt lat="44.46651" lon="6.08891">
        <ele>716.3195801</ele>
        <time>2014-05-04T11:32:55Z</time>
      </trkpt>
      <trkpt lat="44.46652" lon="6.08878">
        <ele>715.3581543</ele>
        <time>2014-05-04T11:32:57Z</time>
      </trkpt>
      <trkpt lat="44.4666" lon="6.08846">
        <ele>712.4741211</ele>
        <time>2014-05-04T11:33:02Z</time>
      </trkpt>
      <trkpt lat="44.46663" lon="6.08839">
        <ele>711.0322266</ele>
        <time>2014-05-04T11:33:03Z</time>
      </trkpt>
      <trkpt lat="44.4668" lon="6.0882">
        <ele>708.6289063</ele>
        <time>2014-05-04T11:33:07Z</time>
      </trkpt>
      <trkpt lat="44.46686" lon="6.08814">
        <ele>707.1870117</ele>
        <time>2014-05-04T11:33:09Z</time>
      </trkpt>
      <trkpt lat="44.4669" lon="6.08811">
        <ele>707.1870117</ele>
        <time>2014-05-04T11:33:10Z</time>
      </trkpt>
      <trkpt lat="44.46709" lon="6.088">
        <ele>705.7451172</ele>
        <time>2014-05-04T11:33:14Z</time>
      </trkpt>
      <trkpt lat="44.46719" lon="6.08792">
        <ele>704.3032227</ele>
        <time>2014-05-04T11:33:16Z</time>
      </trkpt>
      <trkpt lat="44.46734" lon="6.0878">
        <ele>700.4580078</ele>
        <time>2014-05-04T11:33:20Z</time>
      </trkpt>
      <trkpt lat="44.46756" lon="6.0878">
        <ele>698.5349121</ele>
        <time>2014-05-04T11:33:23Z</time>
      </trkpt>
      <trkpt lat="44.46769" lon="6.08779">
        <ele>696.6125488</ele>
        <time>2014-05-04T11:33:25Z</time>
      </trkpt>
      <trkpt lat="44.46779" lon="6.08772">
        <ele>694.2092285</ele>
        <time>2014-05-04T11:33:27Z</time>
      </trkpt>
      <trkpt lat="44.46793" lon="6.08751">
        <ele>692.2866211</ele>
        <time>2014-05-04T11:33:31Z</time>
      </trkpt>
      <trkpt lat="44.46811" lon="6.08715">
        <ele>688.4414063</ele>
        <time>2014-05-04T11:33:36Z</time>
      </trkpt>
      <trkpt lat="44.46814" lon="6.08708">
        <ele>688.4414063</ele>
        <time>2014-05-04T11:33:37Z</time>
      </trkpt>
      <trkpt lat="44.46818" lon="6.08701">
        <ele>686.9992676</ele>
        <time>2014-05-04T11:33:38Z</time>
      </trkpt>
      <trkpt lat="44.46823" lon="6.08673">
        <ele>685.0769043</ele>
        <time>2014-05-04T11:33:41Z</time>
      </trkpt>
      <trkpt lat="44.46825" lon="6.08654">
        <ele>681.2314453</ele>
        <time>2014-05-04T11:33:43Z</time>
      </trkpt>
      <trkpt lat="44.46826" lon="6.08644">
        <ele>681.2314453</ele>
        <time>2014-05-04T11:33:44Z</time>
      </trkpt>
      <trkpt lat="44.46826" lon="6.08626">
        <ele>679.3085938</ele>
        <time>2014-05-04T11:33:46Z</time>
      </trkpt>
      <trkpt lat="44.46827" lon="6.08608">
        <ele>677.8666992</ele>
        <time>2014-05-04T11:33:48Z</time>
      </trkpt>
      <trkpt lat="44.46823" lon="6.08582">
        <ele>674.5021973</ele>
        <time>2014-05-04T11:33:51Z</time>
      </trkpt>
      <trkpt lat="44.46821" lon="6.08575">
        <ele>673.5410156</ele>
        <time>2014-05-04T11:33:52Z</time>
      </trkpt>
      <trkpt lat="44.46815" lon="6.08561">
        <ele>672.098877</ele>
        <time>2014-05-04T11:33:54Z</time>
      </trkpt>
      <trkpt lat="44.46814" lon="6.08536">
        <ele>670.1762695</ele>
        <time>2014-05-04T11:33:58Z</time>
      </trkpt>
      <trkpt lat="44.46827" lon="6.08514">
        <ele>667.7727051</ele>
        <time>2014-05-04T11:34:02Z</time>
      </trkpt>
      <trkpt lat="44.46832" lon="6.08504">
        <ele>665.8503418</ele>
        <time>2014-05-04T11:34:04Z</time>
      </trkpt>
      <trkpt lat="44.46834" lon="6.0847">
        <ele>663.4470215</ele>
        <time>2014-05-04T11:34:08Z</time>
      </trkpt>
      <trkpt lat="44.46827" lon="6.08426">
        <ele>661.5244141</ele>
        <time>2014-05-04T11:34:12Z</time>
      </trkpt>
      <trkpt lat="44.46809" lon="6.08317">
        <ele>661.0437012</ele>
        <time>2014-05-04T11:34:24Z</time>
      </trkpt>
      <trkpt lat="44.46806" lon="6.08267">
        <ele>661.0437012</ele>
        <time>2014-05-04T11:34:33Z</time>
      </trkpt>
      <trkpt lat="44.46811" lon="6.08259">
        <ele>661.0437012</ele>
        <time>2014-05-04T11:34:35Z</time>
      </trkpt>
      <trkpt lat="44.46811" lon="6.08211">
        <ele>658.6403809</ele>
        <time>2014-05-04T11:34:42Z</time>
      </trkpt>
      <trkpt lat="44.46796" lon="6.08189">
        <ele>656.2370605</ele>
        <time>2014-05-04T11:34:46Z</time>
      </trkpt>
      <trkpt lat="44.46782" lon="6.08183">
        <ele>654.795166</ele>
        <time>2014-05-04T11:34:49Z</time>
      </trkpt>
      <trkpt lat="44.46778" lon="6.08185">
        <ele>653.3532715</ele>
        <time>2014-05-04T11:34:50Z</time>
      </trkpt>
      <trkpt lat="44.46772" lon="6.08188">
        <ele>652.3918457</ele>
        <time>2014-05-04T11:34:52Z</time>
      </trkpt>
      <trkpt lat="44.4677" lon="6.08177">
        <ele>650.949707</ele>
        <time>2014-05-04T11:34:56Z</time>
      </trkpt>
      <trkpt lat="44.46773" lon="6.08175">
        <ele>649.9885254</ele>
        <time>2014-05-04T11:34:57Z</time>
      </trkpt>
      <trkpt lat="44.46781" lon="6.08164">
        <ele>648.5463867</ele>
        <time>2014-05-04T11:34:59Z</time>
      </trkpt>
      <trkpt lat="44.46796" lon="6.0814">
        <ele>646.6240234</ele>
        <time>2014-05-04T11:35:02Z</time>
      </trkpt>
      <trkpt lat="44.46807" lon="6.08122">
        <ele>643.2592773</ele>
        <time>2014-05-04T11:35:04Z</time>
      </trkpt>
      <trkpt lat="44.46812" lon="6.08111">
        <ele>643.2592773</ele>
        <time>2014-05-04T11:35:05Z</time>
      </trkpt>
      <trkpt lat="44.46829" lon="6.08086">
        <ele>639.8947754</ele>
        <time>2014-05-04T11:35:08Z</time>
      </trkpt>
      <trkpt lat="44.46834" lon="6.08077">
        <ele>639.8947754</ele>
        <time>2014-05-04T11:35:09Z</time>
      </trkpt>
      <trkpt lat="44.46845" lon="6.08061">
        <ele>636.5302734</ele>
        <time>2014-05-04T11:35:11Z</time>
      </trkpt>
      <trkpt lat="44.4685" lon="6.08053">
        <ele>636.5302734</ele>
        <time>2014-05-04T11:35:12Z</time>
      </trkpt>
      <trkpt lat="44.46859" lon="6.08037">
        <ele>634.6074219</ele>
        <time>2014-05-04T11:35:14Z</time>
      </trkpt>
      <trkpt lat="44.46869" lon="6.08023">
        <ele>633.6459961</ele>
        <time>2014-05-04T11:35:16Z</time>
      </trkpt>
      <trkpt lat="44.46876" lon="6.07998">
        <ele>630.762207</ele>
        <time>2014-05-04T11:35:19Z</time>
      </trkpt>
      <trkpt lat="44.46876" lon="6.07979">
        <ele>630.2814941</ele>
        <time>2014-05-04T11:35:21Z</time>
      </trkpt>
      <trkpt lat="44.46874" lon="6.0796">
        <ele>628.8395996</ele>
        <time>2014-05-04T11:35:23Z</time>
      </trkpt>
      <trkpt lat="44.46871" lon="6.07939">
        <ele>625.9555664</ele>
        <time>2014-05-04T11:35:25Z</time>
      </trkpt>
      <trkpt lat="44.4687" lon="6.07928">
        <ele>625.9555664</ele>
        <time>2014-05-04T11:35:26Z</time>
      </trkpt>
      <trkpt lat="44.46868" lon="6.07907">
        <ele>624.032959</ele>
        <time>2014-05-04T11:35:28Z</time>
      </trkpt>
      <trkpt lat="44.46867" lon="6.07878">
        <ele>620.668457</ele>
        <time>2014-05-04T11:35:32Z</time>
      </trkpt>
      <trkpt lat="44.46848" lon="6.07861">
        <ele>619.2263184</ele>
        <time>2014-05-04T11:35:38Z</time>
      </trkpt>
      <trkpt lat="44.46823" lon="6.07855">
        <ele>618.2648926</ele>
        <time>2014-05-04T11:35:43Z</time>
      </trkpt>
      <trkpt lat="44.46816" lon="6.07808">
        <ele>616.3422852</ele>
        <time>2014-05-04T11:35:49Z</time>
      </trkpt>
      <trkpt lat="44.46797" lon="6.07774">
        <ele>613.9389648</ele>
        <time>2014-05-04T11:35:54Z</time>
      </trkpt>
      <trkpt lat="44.46785" lon="6.07765">
        <ele>612.0166016</ele>
        <time>2014-05-04T11:35:56Z</time>
      </trkpt>
      <trkpt lat="44.46771" lon="6.07757">
        <ele>610.5744629</ele>
        <time>2014-05-04T11:35:58Z</time>
      </trkpt>
      <trkpt lat="44.46734" lon="6.07735">
        <ele>608.6518555</ele>
        <time>2014-05-04T11:36:03Z</time>
      </trkpt>
      <trkpt lat="44.46691" lon="6.07701">
        <ele>609.6132813</ele>
        <time>2014-05-04T11:36:09Z</time>
      </trkpt>
      <trkpt lat="44.46662" lon="6.0767">
        <ele>608.6518555</ele>
        <time>2014-05-04T11:36:14Z</time>
      </trkpt>
      <trkpt lat="44.46644" lon="6.0766">
        <ele>606.2485352</ele>
        <time>2014-05-04T11:36:17Z</time>
      </trkpt>
      <trkpt lat="44.4663" lon="6.07652">
        <ele>604.3261719</ele>
        <time>2014-05-04T11:36:19Z</time>
      </trkpt>
      <trkpt lat="44.46617" lon="6.07643">
        <ele>603.8452148</ele>
        <time>2014-05-04T11:36:21Z</time>
      </trkpt>
      <trkpt lat="44.466" lon="6.07625">
        <ele>605.2873535</ele>
        <time>2014-05-04T11:36:24Z</time>
      </trkpt>
      <trkpt lat="44.46588" lon="6.07615">
        <ele>606.729248</ele>
        <time>2014-05-04T11:36:26Z</time>
      </trkpt>
      <trkpt lat="44.46576" lon="6.07601">
        <ele>607.2099609</ele>
        <time>2014-05-04T11:36:29Z</time>
      </trkpt>
      <trkpt lat="44.46554" lon="6.07561">
        <ele>605.7680664</ele>
        <time>2014-05-04T11:36:35Z</time>
      </trkpt>
      <trkpt lat="44.46546" lon="6.07547">
        <ele>606.2485352</ele>
        <time>2014-05-04T11:36:37Z</time>
      </trkpt>
      <trkpt lat="44.46515" lon="6.07499">
        <ele>605.2873535</ele>
        <time>2014-05-04T11:36:45Z</time>
      </trkpt>
      <trkpt lat="44.46507" lon="6.0748">
        <ele>605.7680664</ele>
        <time>2014-05-04T11:36:48Z</time>
      </trkpt>
      <trkpt lat="44.46498" lon="6.07449">
        <ele>605.2873535</ele>
        <time>2014-05-04T11:36:52Z</time>
      </trkpt>
      <trkpt lat="44.46489" lon="6.07427">
        <ele>604.8066406</ele>
        <time>2014-05-04T11:36:55Z</time>
      </trkpt>
      <trkpt lat="44.4648" lon="6.07397">
        <ele>605.2873535</ele>
        <time>2014-05-04T11:36:59Z</time>
      </trkpt>
      <trkpt lat="44.46457" lon="6.07327">
        <ele>605.2873535</ele>
        <time>2014-05-04T11:37:10Z</time>
      </trkpt>
      <trkpt lat="44.46448" lon="6.07288">
        <ele>606.2485352</ele>
        <time>2014-05-04T11:37:17Z</time>
      </trkpt>
      <trkpt lat="44.46428" lon="6.07205">
        <ele>606.2485352</ele>
        <time>2014-05-04T11:37:33Z</time>
      </trkpt>
      <trkpt lat="44.46424" lon="6.07177">
        <ele>607.6906738</ele>
        <time>2014-05-04T11:37:39Z</time>
      </trkpt>
      <trkpt lat="44.46418" lon="6.07156">
        <ele>609.1325684</ele>
        <time>2014-05-04T11:37:45Z</time>
      </trkpt>
      <trkpt lat="44.46417" lon="6.07141">
        <ele>608.6518555</ele>
        <time>2014-05-04T11:37:49Z</time>
      </trkpt>
      <trkpt lat="44.46387" lon="6.07096">
        <ele>612.4970703</ele>
        <time>2014-05-04T11:38:07Z</time>
      </trkpt>
      <trkpt lat="44.46385" lon="6.07095">
        <ele>612.4970703</ele>
        <time>2014-05-04T11:38:08Z</time>
      </trkpt>
      <trkpt lat="44.46364" lon="6.07082">
        <ele>613.4584961</ele>
        <time>2014-05-04T11:38:19Z</time>
      </trkpt>
      <trkpt lat="44.46335" lon="6.0705">
        <ele>615.3811035</ele>
        <time>2014-05-04T11:38:35Z</time>
      </trkpt>
      <trkpt lat="44.46302" lon="6.07019">
        <ele>617.3037109</ele>
        <time>2014-05-04T11:38:51Z</time>
      </trkpt>
      <trkpt lat="44.46287" lon="6.07001">
        <ele>619.2263184</ele>
        <time>2014-05-04T11:39:01Z</time>
      </trkpt>
      <trkpt lat="44.46275" lon="6.06963">
        <ele>621.1491699</ele>
        <time>2014-05-04T11:39:17Z</time>
      </trkpt>
      <trkpt lat="44.46274" lon="6.06948">
        <ele>622.1103516</ele>
        <time>2014-05-04T11:39:22Z</time>
      </trkpt>
      <trkpt lat="44.46275" lon="6.06934">
        <ele>623.0717773</ele>
        <time>2014-05-04T11:39:27Z</time>
      </trkpt>
      <trkpt lat="44.46277" lon="6.06898">
        <ele>624.9943848</ele>
        <time>2014-05-04T11:39:40Z</time>
      </trkpt>
      <trkpt lat="44.46267" lon="6.06849">
        <ele>626.4362793</ele>
        <time>2014-05-04T11:39:58Z</time>
      </trkpt>
      <trkpt lat="44.46261" lon="6.0684">
        <ele>626.4362793</ele>
        <time>2014-05-04T11:40:02Z</time>
      </trkpt>
      <trkpt lat="44.46231" lon="6.06798">
        <ele>627.3977051</ele>
        <time>2014-05-04T11:40:19Z</time>
      </trkpt>
      <trkpt lat="44.46194" lon="6.06741">
        <ele>626.9169922</ele>
        <time>2014-05-04T11:40:36Z</time>
      </trkpt>
      <trkpt lat="44.46164" lon="6.06644">
        <ele>626.9169922</ele>
        <time>2014-05-04T11:40:57Z</time>
      </trkpt>
      <trkpt lat="44.46129" lon="6.06586">
        <ele>627.3977051</ele>
        <time>2014-05-04T11:41:12Z</time>
      </trkpt>
      <trkpt lat="44.46073" lon="6.06553">
        <ele>627.3977051</ele>
        <time>2014-05-04T11:41:30Z</time>
      </trkpt>
      <trkpt lat="44.46046" lon="6.06523">
        <ele>626.9169922</ele>
        <time>2014-05-04T11:41:39Z</time>
      </trkpt>
      <trkpt lat="44.46046" lon="6.06493">
        <ele>625.9555664</ele>
        <time>2014-05-04T11:41:44Z</time>
      </trkpt>
      <trkpt lat="44.46054" lon="6.0648">
        <ele>624.5136719</ele>
        <time>2014-05-04T11:41:46Z</time>
      </trkpt>
      <trkpt lat="44.46064" lon="6.06467">
        <ele>624.032959</ele>
        <time>2014-05-04T11:41:48Z</time>
      </trkpt>
      <trkpt lat="44.46099" lon="6.06429">
        <ele>620.1877441</ele>
        <time>2014-05-04T11:41:53Z</time>
      </trkpt>
      <trkpt lat="44.46114" lon="6.06412">
        <ele>619.2263184</ele>
        <time>2014-05-04T11:41:55Z</time>
      </trkpt>
      <trkpt lat="44.46157" lon="6.06362">
        <ele>615.8618164</ele>
        <time>2014-05-04T11:42:01Z</time>
      </trkpt>
      <trkpt lat="44.46209" lon="6.06302">
        <ele>612.4970703</ele>
        <time>2014-05-04T11:42:10Z</time>
      </trkpt>
      <trkpt lat="44.46217" lon="6.06278">
        <ele>611.5358887</ele>
        <time>2014-05-04T11:42:14Z</time>
      </trkpt>
      <trkpt lat="44.4621" lon="6.06249">
        <ele>610.09375</ele>
        <time>2014-05-04T11:42:19Z</time>
      </trkpt>
      <trkpt lat="44.46188" lon="6.0621">
        <ele>607.6906738</ele>
        <time>2014-05-04T11:42:25Z</time>
      </trkpt>
      <trkpt lat="44.4618" lon="6.06157">
        <ele>605.2873535</ele>
        <time>2014-05-04T11:42:30Z</time>
      </trkpt>
      <trkpt lat="44.4618" lon="6.06131">
        <ele>603.364502</ele>
        <time>2014-05-04T11:42:32Z</time>
      </trkpt>
      <trkpt lat="44.46179" lon="6.05997">
        <ele>600.4807129</ele>
        <time>2014-05-04T11:42:42Z</time>
      </trkpt>
      <trkpt lat="44.46179" lon="6.05986">
        <ele>600.4807129</ele>
        <time>2014-05-04T11:42:43Z</time>
      </trkpt>
      <trkpt lat="44.46191" lon="6.05919">
        <ele>599.0385742</ele>
        <time>2014-05-04T11:42:50Z</time>
      </trkpt>
      <trkpt lat="44.4622" lon="6.05784">
        <ele>597.5966797</ele>
        <time>2014-05-04T11:43:05Z</time>
      </trkpt>
      <trkpt lat="44.46232" lon="6.05765">
        <ele>598.5578613</ele>
        <time>2014-05-04T11:43:09Z</time>
      </trkpt>
      <trkpt lat="44.46279" lon="6.05723">
        <ele>599.0385742</ele>
        <time>2014-05-04T11:43:27Z</time>
      </trkpt>
      <trkpt lat="44.46302" lon="6.05723">
        <ele>600</ele>
        <time>2014-05-04T11:43:35Z</time>
      </trkpt>
      <trkpt lat="44.46324" lon="6.05719">
        <ele>601.9226074</ele>
        <time>2014-05-04T11:43:44Z</time>
      </trkpt>
      <trkpt lat="44.46325" lon="6.05716">
        <ele>601.9226074</ele>
        <time>2014-05-04T11:43:45Z</time>
      </trkpt>
      <trkpt lat="44.463" lon="6.05697">
        <ele>604.3261719</ele>
        <time>2014-05-04T11:43:58Z</time>
      </trkpt>
      <trkpt lat="44.46272" lon="6.05665">
        <ele>605.7680664</ele>
        <time>2014-05-04T11:44:11Z</time>
      </trkpt>
      <trkpt lat="44.46265" lon="6.05641">
        <ele>606.2485352</ele>
        <time>2014-05-04T11:44:18Z</time>
      </trkpt>
      <trkpt lat="44.46272" lon="6.05621">
        <ele>607.6906738</ele>
        <time>2014-05-04T11:44:24Z</time>
      </trkpt>
      <trkpt lat="44.46276" lon="6.05614">
        <ele>607.6906738</ele>
        <time>2014-05-04T11:44:27Z</time>
      </trkpt>
      <trkpt lat="44.4628" lon="6.05601">
        <ele>608.6518555</ele>
        <time>2014-05-04T11:44:42Z</time>
      </trkpt>
      <trkpt lat="44.46279" lon="6.056">
        <ele>608.1713867</ele>
        <time>2014-05-04T11:44:54Z</time>
      </trkpt>
      <trkpt lat="44.46267" lon="6.05579">
        <ele>608.6518555</ele>
        <time>2014-05-04T11:45:04Z</time>
      </trkpt>
      <trkpt lat="44.46232" lon="6.05548">
        <ele>609.1325684</ele>
        <time>2014-05-04T11:45:17Z</time>
      </trkpt>
      <trkpt lat="44.46197" lon="6.05522">
        <ele>609.6132813</ele>
        <time>2014-05-04T11:45:31Z</time>
      </trkpt>
      <trkpt lat="44.46185" lon="6.05518">
        <ele>610.09375</ele>
        <time>2014-05-04T11:45:35Z</time>
      </trkpt>
      <trkpt lat="44.46186" lon="6.05497">
        <ele>610.5744629</ele>
        <time>2014-05-04T11:45:40Z</time>
      </trkpt>
      <trkpt lat="44.46189" lon="6.05477">
        <ele>610.5744629</ele>
        <time>2014-05-04T11:45:45Z</time>
      </trkpt>
      <trkpt lat="44.46194" lon="6.05466">
        <ele>610.5744629</ele>
        <time>2014-05-04T11:46:01Z</time>
      </trkpt>
      <trkpt lat="44.46195" lon="6.05464">
        <ele>609.1325684</ele>
        <time>2014-05-04T11:46:46Z</time>
      </trkpt>
      <trkpt lat="44.46196" lon="6.05462">
        <ele>609.1325684</ele>
        <time>2014-05-04T11:47:33Z</time>
      </trkpt>
      <trkpt lat="44.46196" lon="6.05462">
        <ele>609.6132813</ele>
        <time>2014-05-04T11:47:36Z</time>
      </trkpt>
      <trkpt lat="44.462" lon="6.05454">
        <ele>610.09375</ele>
        <time>2014-05-04T11:47:40Z</time>
      </trkpt>
      <trkpt lat="44.46203" lon="6.05446">
        <ele>610.5744629</ele>
        <time>2014-05-04T11:47:43Z</time>
      </trkpt>
      <trkpt lat="44.46233" lon="6.05418">
        <ele>611.5358887</ele>
        <time>2014-05-04T11:47:58Z</time>
      </trkpt>
      <trkpt lat="44.46242" lon="6.0541">
        <ele>613.4584961</ele>
        <time>2014-05-04T11:48:03Z</time>
      </trkpt>
      <trkpt lat="44.46256" lon="6.05396">
        <ele>615.8618164</ele>
        <time>2014-05-04T11:48:10Z</time>
      </trkpt>
      <trkpt lat="44.46278" lon="6.05373">
        <ele>616.822998</ele>
        <time>2014-05-04T11:48:22Z</time>
      </trkpt>
      <trkpt lat="44.46286" lon="6.05362">
        <ele>617.3037109</ele>
        <time>2014-05-04T11:48:26Z</time>
      </trkpt>
      <trkpt lat="44.46319" lon="6.0533">
        <ele>617.7841797</ele>
        <time>2014-05-04T11:48:40Z</time>
      </trkpt>
      <trkpt lat="44.46341" lon="6.05305">
        <ele>620.668457</ele>
        <time>2014-05-04T11:48:51Z</time>
      </trkpt>
      <trkpt lat="44.46372" lon="6.05271">
        <ele>621.6296387</ele>
        <time>2014-05-04T11:49:05Z</time>
      </trkpt>
      <trkpt lat="44.464" lon="6.05215">
        <ele>621.6296387</ele>
        <time>2014-05-04T11:49:22Z</time>
      </trkpt>
      <trkpt lat="44.46401" lon="6.05206">
        <ele>620.668457</ele>
        <time>2014-05-04T11:49:24Z</time>
      </trkpt>
      <trkpt lat="44.46406" lon="6.05123">
        <ele>620.668457</ele>
        <time>2014-05-04T11:49:38Z</time>
      </trkpt>
      <trkpt lat="44.46408" lon="6.05103">
        <ele>620.1877441</ele>
        <time>2014-05-04T11:49:41Z</time>
      </trkpt>
      <trkpt lat="44.4641" lon="6.05056">
        <ele>621.1491699</ele>
        <time>2014-05-04T11:49:48Z</time>
      </trkpt>
      <trkpt lat="44.46413" lon="6.04892">
        <ele>621.1491699</ele>
        <time>2014-05-04T11:50:12Z</time>
      </trkpt>
      <trkpt lat="44.46409" lon="6.04771">
        <ele>621.1491699</ele>
        <time>2014-05-04T11:50:31Z</time>
      </trkpt>
      <trkpt lat="44.46397" lon="6.04695">
        <ele>621.6296387</ele>
        <time>2014-05-04T11:50:44Z</time>
      </trkpt>
      <trkpt lat="44.46393" lon="6.04672">
        <ele>621.1491699</ele>
        <time>2014-05-04T11:50:48Z</time>
      </trkpt>
      <trkpt lat="44.46385" lon="6.04639">
        <ele>621.6296387</ele>
        <time>2014-05-04T11:50:54Z</time>
      </trkpt>
      <trkpt lat="44.46366" lon="6.04544">
        <ele>623.0717773</ele>
        <time>2014-05-04T11:51:13Z</time>
      </trkpt>
      <trkpt lat="44.46359" lon="6.04507">
        <ele>622.5910645</ele>
        <time>2014-05-04T11:51:20Z</time>
      </trkpt>
      <trkpt lat="44.46341" lon="6.04438">
        <ele>621.1491699</ele>
        <time>2014-05-04T11:51:31Z</time>
      </trkpt>
      <trkpt lat="44.46333" lon="6.04416">
        <ele>620.668457</ele>
        <time>2014-05-04T11:51:34Z</time>
      </trkpt>
      <trkpt lat="44.46272" lon="6.04296">
        <ele>616.822998</ele>
        <time>2014-05-04T11:51:49Z</time>
      </trkpt>
      <trkpt lat="44.46268" lon="6.04289">
        <ele>616.822998</ele>
        <time>2014-05-04T11:51:50Z</time>
      </trkpt>
      <trkpt lat="44.46228" lon="6.04193">
        <ele>614.9003906</ele>
        <time>2014-05-04T11:52:03Z</time>
      </trkpt>
      <trkpt lat="44.46198" lon="6.04028">
        <ele>613.9389648</ele>
        <time>2014-05-04T11:52:24Z</time>
      </trkpt>
      <trkpt lat="44.46176" lon="6.03959">
        <ele>612.0166016</ele>
        <time>2014-05-04T11:52:33Z</time>
      </trkpt>
      <trkpt lat="44.46138" lon="6.03819">
        <ele>612.4970703</ele>
        <time>2014-05-04T11:52:52Z</time>
      </trkpt>
      <trkpt lat="44.46121" lon="6.03754">
        <ele>611.5358887</ele>
        <time>2014-05-04T11:53:01Z</time>
      </trkpt>
      <trkpt lat="44.46098" lon="6.03664">
        <ele>612.0166016</ele>
        <time>2014-05-04T11:53:14Z</time>
      </trkpt>
      <trkpt lat="44.46082" lon="6.03643">
        <ele>611.0551758</ele>
        <time>2014-05-04T11:53:19Z</time>
      </trkpt>
      <trkpt lat="44.46052" lon="6.03623">
        <ele>609.6132813</ele>
        <time>2014-05-04T11:53:25Z</time>
      </trkpt>
      <trkpt lat="44.46039" lon="6.03615">
        <ele>608.6518555</ele>
        <time>2014-05-04T11:53:27Z</time>
      </trkpt>
      <trkpt lat="44.45981" lon="6.03577">
        <ele>605.2873535</ele>
        <time>2014-05-04T11:53:35Z</time>
      </trkpt>
      <trkpt lat="44.45968" lon="6.03566">
        <ele>605.7680664</ele>
        <time>2014-05-04T11:53:37Z</time>
      </trkpt>
      <trkpt lat="44.45946" lon="6.03528">
        <ele>605.2873535</ele>
        <time>2014-05-04T11:53:42Z</time>
      </trkpt>
      <trkpt lat="44.45941" lon="6.03502">
        <ele>605.2873535</ele>
        <time>2014-05-04T11:53:45Z</time>
      </trkpt>
      <trkpt lat="44.45905" lon="6.03468">
        <ele>604.8066406</ele>
        <time>2014-05-04T11:53:53Z</time>
      </trkpt>
      <trkpt lat="44.45786" lon="6.03447">
        <ele>602.4030762</ele>
        <time>2014-05-04T11:54:13Z</time>
      </trkpt>
      <trkpt lat="44.45768" lon="6.03445">
        <ele>601.9226074</ele>
        <time>2014-05-04T11:54:16Z</time>
      </trkpt>
      <trkpt lat="44.45741" lon="6.03407">
        <ele>601.9226074</ele>
        <time>2014-05-04T11:54:24Z</time>
      </trkpt>
      <trkpt lat="44.45737" lon="6.03388">
        <ele>602.4030762</ele>
        <time>2014-05-04T11:54:28Z</time>
      </trkpt>
      <trkpt lat="44.45759" lon="6.03373">
        <ele>602.4030762</ele>
        <time>2014-05-04T11:54:36Z</time>
      </trkpt>
      <trkpt lat="44.45826" lon="6.03381">
        <ele>603.8452148</ele>
        <time>2014-05-04T11:54:53Z</time>
      </trkpt>
      <trkpt lat="44.45836" lon="6.03376">
        <ele>603.364502</ele>
        <time>2014-05-04T11:55:03Z</time>
      </trkpt>
      <trkpt lat="44.45835" lon="6.03376">
        <ele>602.4030762</ele>
        <time>2014-05-04T11:55:16Z</time>
      </trkpt>
      <trkpt lat="44.45803" lon="6.0337">
        <ele>602.4030762</ele>
        <time>2014-05-04T11:55:29Z</time>
      </trkpt>
      <trkpt lat="44.45795" lon="6.03369">
        <ele>602.8837891</ele>
        <time>2014-05-04T11:55:33Z</time>
      </trkpt>
      <trkpt lat="44.4579" lon="6.03366">
        <ele>603.364502</ele>
        <time>2014-05-04T11:55:39Z</time>
      </trkpt>
      <trkpt lat="44.45791" lon="6.03364">
        <ele>604.3261719</ele>
        <time>2014-05-04T11:56:00Z</time>
      </trkpt>
      <trkpt lat="44.45831" lon="6.03366">
        <ele>604.3261719</ele>
        <time>2014-05-04T11:56:13Z</time>
      </trkpt>
      <trkpt lat="44.45881" lon="6.03373">
        <ele>604.8066406</ele>
        <time>2014-05-04T11:56:26Z</time>
      </trkpt>
      <trkpt lat="44.45934" lon="6.03381">
        <ele>606.2485352</ele>
        <time>2014-05-04T11:56:41Z</time>
      </trkpt>
      <trkpt lat="44.4601" lon="6.03393">
        <ele>607.6906738</ele>
        <time>2014-05-04T11:57:05Z</time>
      </trkpt>
      <trkpt lat="44.46031" lon="6.03395">
        <ele>609.6132813</ele>
        <time>2014-05-04T11:57:12Z</time>
      </trkpt>
      <trkpt lat="44.4608" lon="6.03401">
        <ele>612.9777832</ele>
        <time>2014-05-04T11:57:29Z</time>
      </trkpt>
      <trkpt lat="44.46136" lon="6.03409">
        <ele>615.3811035</ele>
        <time>2014-05-04T11:57:49Z</time>
      </trkpt>
      <trkpt lat="44.46184" lon="6.03416">
        <ele>617.3037109</ele>
        <time>2014-05-04T11:58:05Z</time>
      </trkpt>
      <trkpt lat="44.46235" lon="6.03425">
        <ele>618.7456055</ele>
        <time>2014-05-04T11:58:22Z</time>
      </trkpt>
      <trkpt lat="44.46298" lon="6.03432">
        <ele>620.1877441</ele>
        <time>2014-05-04T11:58:41Z</time>
      </trkpt>
      <trkpt lat="44.46349" lon="6.03439">
        <ele>620.1877441</ele>
        <time>2014-05-04T11:58:54Z</time>
      </trkpt>
      <trkpt lat="44.46398" lon="6.03446">
        <ele>620.668457</ele>
        <time>2014-05-04T11:59:05Z</time>
      </trkpt>
      <trkpt lat="44.46493" lon="6.03453">
        <ele>620.1877441</ele>
        <time>2014-05-04T11:59:25Z</time>
      </trkpt>
      <trkpt lat="44.46571" lon="6.03441">
        <ele>621.6296387</ele>
        <time>2014-05-04T11:59:44Z</time>
      </trkpt>
      <trkpt lat="44.46625" lon="6.0343">
        <ele>622.1103516</ele>
        <time>2014-05-04T11:59:57Z</time>
      </trkpt>
      <trkpt lat="44.46661" lon="6.03429">
        <ele>622.5910645</ele>
        <time>2014-05-04T12:00:06Z</time>
      </trkpt>
      <trkpt lat="44.46678" lon="6.03427">
        <ele>623.0717773</ele>
        <time>2014-05-04T12:00:10Z</time>
      </trkpt>
      <trkpt lat="44.4675" lon="6.03413">
        <ele>622.5910645</ele>
        <time>2014-05-04T12:00:26Z</time>
      </trkpt>
      <trkpt lat="44.46794" lon="6.03403">
        <ele>622.1103516</ele>
        <time>2014-05-04T12:00:35Z</time>
      </trkpt>
      <trkpt lat="44.46897" lon="6.03387">
        <ele>619.7070313</ele>
        <time>2014-05-04T12:00:55Z</time>
      </trkpt>
      <trkpt lat="44.46925" lon="6.03382">
        <ele>619.2263184</ele>
        <time>2014-05-04T12:01:00Z</time>
      </trkpt>
      <trkpt lat="44.47025" lon="6.03369">
        <ele>618.7456055</ele>
        <time>2014-05-04T12:01:20Z</time>
      </trkpt>
      <trkpt lat="44.47074" lon="6.0337">
        <ele>619.2263184</ele>
        <time>2014-05-04T12:01:31Z</time>
      </trkpt>
      <trkpt lat="44.4714" lon="6.03382">
        <ele>620.668457</ele>
        <time>2014-05-04T12:01:50Z</time>
      </trkpt>
      <trkpt lat="44.47207" lon="6.03391">
        <ele>622.5910645</ele>
        <time>2014-05-04T12:02:10Z</time>
      </trkpt>
      <trkpt lat="44.47264" lon="6.03398">
        <ele>623.5524902</ele>
        <time>2014-05-04T12:02:27Z</time>
      </trkpt>
      <trkpt lat="44.47305" lon="6.03386">
        <ele>624.5136719</ele>
        <time>2014-05-04T12:02:42Z</time>
      </trkpt>
      <trkpt lat="44.47309" lon="6.03371">
        <ele>624.032959</ele>
        <time>2014-05-04T12:02:45Z</time>
      </trkpt>
      <trkpt lat="44.47324" lon="6.03348">
        <ele>624.032959</ele>
        <time>2014-05-04T12:02:51Z</time>
      </trkpt>
      <trkpt lat="44.47361" lon="6.03326">
        <ele>624.9943848</ele>
        <time>2014-05-04T12:03:05Z</time>
      </trkpt>
      <trkpt lat="44.47405" lon="6.0331">
        <ele>623.5524902</ele>
        <time>2014-05-04T12:03:18Z</time>
      </trkpt>
      <trkpt lat="44.4746" lon="6.03288">
        <ele>624.5136719</ele>
        <time>2014-05-04T12:03:34Z</time>
      </trkpt>
      <trkpt lat="44.47504" lon="6.03249">
        <ele>625.4748535</ele>
        <time>2014-05-04T12:03:49Z</time>
      </trkpt>
      <trkpt lat="44.47544" lon="6.03241">
        <ele>625.4748535</ele>
        <time>2014-05-04T12:04:01Z</time>
      </trkpt>
      <trkpt lat="44.47575" lon="6.03247">
        <ele>626.4362793</ele>
        <time>2014-05-04T12:04:10Z</time>
      </trkpt>
      <trkpt lat="44.47601" lon="6.03249">
        <ele>627.3977051</ele>
        <time>2014-05-04T12:04:17Z</time>
      </trkpt>
      <trkpt lat="44.47662" lon="6.03251">
        <ele>626.9169922</ele>
        <time>2014-05-04T12:04:35Z</time>
      </trkpt>
      <trkpt lat="44.47701" lon="6.03263">
        <ele>629.3200684</ele>
        <time>2014-05-04T12:04:49Z</time>
      </trkpt>
      <trkpt lat="44.4774" lon="6.03266">
        <ele>632.2041016</ele>
        <time>2014-05-04T12:05:03Z</time>
      </trkpt>
      <trkpt lat="44.47776" lon="6.03267">
        <ele>634.6074219</ele>
        <time>2014-05-04T12:05:18Z</time>
      </trkpt>
      <trkpt lat="44.47812" lon="6.03266">
        <ele>637.0107422</ele>
        <time>2014-05-04T12:05:34Z</time>
      </trkpt>
      <trkpt lat="44.47855" lon="6.03267">
        <ele>638.4528809</ele>
        <time>2014-05-04T12:05:53Z</time>
      </trkpt>
      <trkpt lat="44.47897" lon="6.03266">
        <ele>637.0107422</ele>
        <time>2014-05-04T12:06:02Z</time>
      </trkpt>
      <trkpt lat="44.47921" lon="6.0327">
        <ele>636.0495605</ele>
        <time>2014-05-04T12:06:06Z</time>
      </trkpt>
      <trkpt lat="44.47962" lon="6.03245">
        <ele>634.6074219</ele>
        <time>2014-05-04T12:06:13Z</time>
      </trkpt>
      <trkpt lat="44.47988" lon="6.03192">
        <ele>633.6459961</ele>
        <time>2014-05-04T12:06:20Z</time>
      </trkpt>
      <trkpt lat="44.48003" lon="6.03174">
        <ele>634.126709</ele>
        <time>2014-05-04T12:06:24Z</time>
      </trkpt>
      <trkpt lat="44.48049" lon="6.03157">
        <ele>636.0495605</ele>
        <time>2014-05-04T12:06:39Z</time>
      </trkpt>
      <trkpt lat="44.48098" lon="6.03142">
        <ele>637.0107422</ele>
        <time>2014-05-04T12:06:55Z</time>
      </trkpt>
      <trkpt lat="44.48147" lon="6.03122">
        <ele>638.4528809</ele>
        <time>2014-05-04T12:07:12Z</time>
      </trkpt>
      <trkpt lat="44.48179" lon="6.03111">
        <ele>639.4140625</ele>
        <time>2014-05-04T12:07:23Z</time>
      </trkpt>
      <trkpt lat="44.48192" lon="6.03108">
        <ele>640.3754883</ele>
        <time>2014-05-04T12:07:28Z</time>
      </trkpt>
      <trkpt lat="44.4822" lon="6.03099">
        <ele>641.3366699</ele>
        <time>2014-05-04T12:07:38Z</time>
      </trkpt>
      <trkpt lat="44.48234" lon="6.03089">
        <ele>640.3754883</ele>
        <time>2014-05-04T12:07:42Z</time>
      </trkpt>
      <trkpt lat="44.48257" lon="6.03035">
        <ele>638.4528809</ele>
        <time>2014-05-04T12:07:52Z</time>
      </trkpt>
      <trkpt lat="44.48283" lon="6.02927">
        <ele>637.4914551</ele>
        <time>2014-05-04T12:08:06Z</time>
      </trkpt>
      <trkpt lat="44.48304" lon="6.02875">
        <ele>636.5302734</ele>
        <time>2014-05-04T12:08:14Z</time>
      </trkpt>
      <trkpt lat="44.48334" lon="6.02822">
        <ele>637.972168</ele>
        <time>2014-05-04T12:08:29Z</time>
      </trkpt>
      <trkpt lat="44.48364" lon="6.02809">
        <ele>640.3754883</ele>
        <time>2014-05-04T12:08:45Z</time>
      </trkpt>
      <trkpt lat="44.48402" lon="6.02796">
        <ele>643.2592773</ele>
        <time>2014-05-04T12:09:04Z</time>
      </trkpt>
      <trkpt lat="44.48412" lon="6.02791">
        <ele>644.2207031</ele>
        <time>2014-05-04T12:09:09Z</time>
      </trkpt>
      <trkpt lat="44.48434" lon="6.02759">
        <ele>647.1044922</ele>
        <time>2014-05-04T12:09:28Z</time>
      </trkpt>
      <trkpt lat="44.48447" lon="6.0275">
        <ele>648.5463867</ele>
        <time>2014-05-04T12:09:44Z</time>
      </trkpt>
      <trkpt lat="44.48447" lon="6.02749">
        <ele>648.5463867</ele>
        <time>2014-05-04T12:10:10Z</time>
      </trkpt>
      <trkpt lat="44.48447" lon="6.02748">
        <ele>647.5852051</ele>
        <time>2014-05-04T12:11:24Z</time>
      </trkpt>
      <trkpt lat="44.4845" lon="6.02745">
        <ele>647.5852051</ele>
        <time>2014-05-04T12:12:08Z</time>
      </trkpt>
      <trkpt lat="44.48461" lon="6.02701">
        <ele>649.0270996</ele>
        <time>2014-05-04T12:12:24Z</time>
      </trkpt>
      <trkpt lat="44.48465" lon="6.02685">
        <ele>651.4304199</ele>
        <time>2014-05-04T12:12:31Z</time>
      </trkpt>
      <trkpt lat="44.48481" lon="6.02642">
        <ele>654.795166</ele>
        <time>2014-05-04T12:12:50Z</time>
      </trkpt>
      <trkpt lat="44.48482" lon="6.02636">
        <ele>654.795166</ele>
        <time>2014-05-04T12:12:52Z</time>
      </trkpt>
      <trkpt lat="44.48503" lon="6.02601">
        <ele>657.6791992</ele>
        <time>2014-05-04T12:13:10Z</time>
      </trkpt>
      <trkpt lat="44.4853" lon="6.02573">
        <ele>659.6018066</ele>
        <time>2014-05-04T12:13:27Z</time>
      </trkpt>
      <trkpt lat="44.48566" lon="6.02532">
        <ele>661.5244141</ele>
        <time>2014-05-04T12:13:50Z</time>
      </trkpt>
      <trkpt lat="44.48591" lon="6.02493">
        <ele>663.9274902</ele>
        <time>2014-05-04T12:14:11Z</time>
      </trkpt>
      <trkpt lat="44.48616" lon="6.02458">
        <ele>666.8115234</ele>
        <time>2014-05-04T12:14:30Z</time>
      </trkpt>
      <trkpt lat="44.48634" lon="6.02424">
        <ele>669.6958008</ele>
        <time>2014-05-04T12:14:47Z</time>
      </trkpt>
      <trkpt lat="44.48647" lon="6.02393">
        <ele>672.098877</ele>
        <time>2014-05-04T12:15:02Z</time>
      </trkpt>
      <trkpt lat="44.48674" lon="6.02377">
        <ele>674.5021973</ele>
        <time>2014-05-04T12:15:19Z</time>
      </trkpt>
      <trkpt lat="44.48718" lon="6.02367">
        <ele>676.4248047</ele>
        <time>2014-05-04T12:15:41Z</time>
      </trkpt>
      <trkpt lat="44.48766" lon="6.02353">
        <ele>678.828125</ele>
        <time>2014-05-04T12:16:05Z</time>
      </trkpt>
      <trkpt lat="44.48822" lon="6.02356">
        <ele>681.2314453</ele>
        <time>2014-05-04T12:16:32Z</time>
      </trkpt>
      <trkpt lat="44.48855" lon="6.02362">
        <ele>683.1538086</ele>
        <time>2014-05-04T12:16:49Z</time>
      </trkpt>
      <trkpt lat="44.48891" lon="6.02372">
        <ele>686.0380859</ele>
        <time>2014-05-04T12:17:08Z</time>
      </trkpt>
      <trkpt lat="44.48917" lon="6.02377">
        <ele>687.4799805</ele>
        <time>2014-05-04T12:17:23Z</time>
      </trkpt>
      <trkpt lat="44.4895" lon="6.02377">
        <ele>689.8833008</ele>
        <time>2014-05-04T12:17:41Z</time>
      </trkpt>
      <trkpt lat="44.48976" lon="6.02371">
        <ele>692.2866211</ele>
        <time>2014-05-04T12:17:57Z</time>
      </trkpt>
      <trkpt lat="44.49001" lon="6.02365">
        <ele>694.2092285</ele>
        <time>2014-05-04T12:18:12Z</time>
      </trkpt>
      <trkpt lat="44.49035" lon="6.02346">
        <ele>697.0930176</ele>
        <time>2014-05-04T12:18:35Z</time>
      </trkpt>
      <trkpt lat="44.49039" lon="6.02342">
        <ele>697.5737305</ele>
        <time>2014-05-04T12:18:38Z</time>
      </trkpt>
      <trkpt lat="44.49066" lon="6.02328">
        <ele>700.4580078</ele>
        <time>2014-05-04T12:18:56Z</time>
      </trkpt>
      <trkpt lat="44.49095" lon="6.02315">
        <ele>702.861084</ele>
        <time>2014-05-04T12:19:15Z</time>
      </trkpt>
      <trkpt lat="44.49125" lon="6.02301">
        <ele>705.7451172</ele>
        <time>2014-05-04T12:19:35Z</time>
      </trkpt>
      <trkpt lat="44.49156" lon="6.02293">
        <ele>708.1484375</ele>
        <time>2014-05-04T12:19:53Z</time>
      </trkpt>
      <trkpt lat="44.49188" lon="6.02298">
        <ele>709.590332</ele>
        <time>2014-05-04T12:20:09Z</time>
      </trkpt>
      <trkpt lat="44.49218" lon="6.02301">
        <ele>710.0708008</ele>
        <time>2014-05-04T12:20:22Z</time>
      </trkpt>
      <trkpt lat="44.4924" lon="6.02295">
        <ele>711.0322266</ele>
        <time>2014-05-04T12:20:32Z</time>
      </trkpt>
      <trkpt lat="44.49245" lon="6.02293">
        <ele>709.1096191</ele>
        <time>2014-05-04T12:20:34Z</time>
      </trkpt>
      <trkpt lat="44.49283" lon="6.02269">
        <ele>709.1096191</ele>
        <time>2014-05-04T12:20:50Z</time>
      </trkpt>
      <trkpt lat="44.49295" lon="6.0226">
        <ele>711.0322266</ele>
        <time>2014-05-04T12:20:55Z</time>
      </trkpt>
      <trkpt lat="44.49347" lon="6.02257">
        <ele>712.954834</ele>
        <time>2014-05-04T12:21:14Z</time>
      </trkpt>
      <trkpt lat="44.49389" lon="6.02262">
        <ele>712.4741211</ele>
        <time>2014-05-04T12:21:28Z</time>
      </trkpt>
      <trkpt lat="44.49396" lon="6.02263">
        <ele>713.9160156</ele>
        <time>2014-05-04T12:21:30Z</time>
      </trkpt>
      <trkpt lat="44.49448" lon="6.02276">
        <ele>714.3967285</ele>
        <time>2014-05-04T12:21:46Z</time>
      </trkpt>
      <trkpt lat="44.49497" lon="6.02316">
        <ele>711.9936523</ele>
        <time>2014-05-04T12:21:58Z</time>
      </trkpt>
      <trkpt lat="44.49525" lon="6.02337">
        <ele>710.0708008</ele>
        <time>2014-05-04T12:22:03Z</time>
      </trkpt>
      <trkpt lat="44.49567" lon="6.02366">
        <ele>706.7062988</ele>
        <time>2014-05-04T12:22:09Z</time>
      </trkpt>
      <trkpt lat="44.49575" lon="6.02371">
        <ele>706.7062988</ele>
        <time>2014-05-04T12:22:10Z</time>
      </trkpt>
      <trkpt lat="44.49624" lon="6.02403">
        <ele>702.861084</ele>
        <time>2014-05-04T12:22:16Z</time>
      </trkpt>
      <trkpt lat="44.49633" lon="6.02407">
        <ele>702.861084</ele>
        <time>2014-05-04T12:22:17Z</time>
      </trkpt>
      <trkpt lat="44.4965" lon="6.02413">
        <ele>701.8999023</ele>
        <time>2014-05-04T12:22:19Z</time>
      </trkpt>
      <trkpt lat="44.49714" lon="6.0242">
        <ele>699.4963379</ele>
        <time>2014-05-04T12:22:26Z</time>
      </trkpt>
      <trkpt lat="44.49757" lon="6.02422">
        <ele>698.5349121</ele>
        <time>2014-05-04T12:22:31Z</time>
      </trkpt>
      <trkpt lat="44.49791" lon="6.02386">
        <ele>698.0544434</ele>
        <time>2014-05-04T12:22:38Z</time>
      </trkpt>
      <trkpt lat="44.49792" lon="6.02376">
        <ele>697.5737305</ele>
        <time>2014-05-04T12:22:39Z</time>
      </trkpt>
      <trkpt lat="44.49795" lon="6.02359">
        <ele>697.0930176</ele>
        <time>2014-05-04T12:22:41Z</time>
      </trkpt>
      <trkpt lat="44.49808" lon="6.02312">
        <ele>697.0930176</ele>
        <time>2014-05-04T12:22:47Z</time>
      </trkpt>
      <trkpt lat="44.49833" lon="6.02283">
        <ele>696.6125488</ele>
        <time>2014-05-04T12:22:53Z</time>
      </trkpt>
      <trkpt lat="44.49866" lon="6.0227">
        <ele>696.6125488</ele>
        <time>2014-05-04T12:23:00Z</time>
      </trkpt>
      <trkpt lat="44.49926" lon="6.02251">
        <ele>696.1318359</ele>
        <time>2014-05-04T12:23:14Z</time>
      </trkpt>
      <trkpt lat="44.49951" lon="6.02276">
        <ele>697.0930176</ele>
        <time>2014-05-04T12:23:23Z</time>
      </trkpt>
      <trkpt lat="44.49946" lon="6.02318">
        <ele>699.015625</ele>
        <time>2014-05-04T12:23:37Z</time>
      </trkpt>
      <trkpt lat="44.49945" lon="6.02352">
        <ele>702.3803711</ele>
        <time>2014-05-04T12:23:50Z</time>
      </trkpt>
      <trkpt lat="44.49949" lon="6.02366">
        <ele>703.3417969</ele>
        <time>2014-05-04T12:23:56Z</time>
      </trkpt>
      <trkpt lat="44.49977" lon="6.02386">
        <ele>703.8225098</ele>
        <time>2014-05-04T12:24:14Z</time>
      </trkpt>
      <trkpt lat="44.49983" lon="6.02386">
        <ele>705.2644043</ele>
        <time>2014-05-04T12:24:17Z</time>
      </trkpt>
      <trkpt lat="44.50006" lon="6.02383">
        <ele>707.6677246</ele>
        <time>2014-05-04T12:24:30Z</time>
      </trkpt>
      <trkpt lat="44.50028" lon="6.0238">
        <ele>711.5129395</ele>
        <time>2014-05-04T12:24:43Z</time>
      </trkpt>
      <trkpt lat="44.50049" lon="6.02378">
        <ele>709.590332</ele>
        <time>2014-05-04T12:24:56Z</time>
      </trkpt>
      <trkpt lat="44.50072" lon="6.02378">
        <ele>712.954834</ele>
        <time>2014-05-04T12:25:09Z</time>
      </trkpt>
      <trkpt lat="44.501" lon="6.0237">
        <ele>714.3967285</ele>
        <time>2014-05-04T12:25:26Z</time>
      </trkpt>
      <trkpt lat="44.50112" lon="6.02366">
        <ele>715.8388672</ele>
        <time>2014-05-04T12:25:33Z</time>
      </trkpt>
      <trkpt lat="44.50136" lon="6.02354">
        <ele>719.6843262</ele>
        <time>2014-05-04T12:25:48Z</time>
      </trkpt>
      <trkpt lat="44.50164" lon="6.02344">
        <ele>722.0874023</ele>
        <time>2014-05-04T12:26:05Z</time>
      </trkpt>
      <trkpt lat="44.50172" lon="6.0234">
        <ele>722.5681152</ele>
        <time>2014-05-04T12:26:10Z</time>
      </trkpt>
      <trkpt lat="44.50198" lon="6.02337">
        <ele>725.9326172</ele>
        <time>2014-05-04T12:26:26Z</time>
      </trkpt>
      <trkpt lat="44.50232" lon="6.02347">
        <ele>727.8552246</ele>
        <time>2014-05-04T12:26:45Z</time>
      </trkpt>
      <trkpt lat="44.50262" lon="6.02369">
        <ele>729.2971191</ele>
        <time>2014-05-04T12:27:01Z</time>
      </trkpt>
      <trkpt lat="44.50298" lon="6.02399">
        <ele>730.7392578</ele>
        <time>2014-05-04T12:27:19Z</time>
      </trkpt>
      <trkpt lat="44.50343" lon="6.02434">
        <ele>732.1813965</ele>
        <time>2014-05-04T12:27:41Z</time>
      </trkpt>
      <trkpt lat="44.50388" lon="6.02472">
        <ele>735.0654297</ele>
        <time>2014-05-04T12:28:04Z</time>
      </trkpt>
      <trkpt lat="44.50399" lon="6.0248">
        <ele>736.0266113</ele>
        <time>2014-05-04T12:28:09Z</time>
      </trkpt>
      <trkpt lat="44.50425" lon="6.02503">
        <ele>736.987793</ele>
        <time>2014-05-04T12:28:23Z</time>
      </trkpt>
      <trkpt lat="44.50429" lon="6.02506">
        <ele>735.0654297</ele>
        <time>2014-05-04T12:28:25Z</time>
      </trkpt>
      <trkpt lat="44.50448" lon="6.02522">
        <ele>737.9492188</ele>
        <time>2014-05-04T12:28:34Z</time>
      </trkpt>
      <trkpt lat="44.50484" lon="6.02542">
        <ele>737.4685059</ele>
        <time>2014-05-04T12:28:48Z</time>
      </trkpt>
      <trkpt lat="44.50505" lon="6.02548">
        <ele>738.4299316</ele>
        <time>2014-05-04T12:28:55Z</time>
      </trkpt>
      <trkpt lat="44.50553" lon="6.02569">
        <ele>736.5073242</ele>
        <time>2014-05-04T12:29:11Z</time>
      </trkpt>
      <trkpt lat="44.50597" lon="6.02605">
        <ele>737.9492188</ele>
        <time>2014-05-04T12:29:25Z</time>
      </trkpt>
      <trkpt lat="44.50603" lon="6.02607">
        <ele>739.3911133</ele>
        <time>2014-05-04T12:29:27Z</time>
      </trkpt>
      <trkpt lat="44.5062" lon="6.02618">
        <ele>737.9492188</ele>
        <time>2014-05-04T12:29:32Z</time>
      </trkpt>
      <trkpt lat="44.50639" lon="6.02638">
        <ele>736.5073242</ele>
        <time>2014-05-04T12:29:37Z</time>
      </trkpt>
      <trkpt lat="44.50646" lon="6.02646">
        <ele>735.0654297</ele>
        <time>2014-05-04T12:29:39Z</time>
      </trkpt>
      <trkpt lat="44.50654" lon="6.02656">
        <ele>735.5458984</ele>
        <time>2014-05-04T12:29:41Z</time>
      </trkpt>
      <trkpt lat="44.50665" lon="6.0267">
        <ele>735.5458984</ele>
        <time>2014-05-04T12:29:44Z</time>
      </trkpt>
      <trkpt lat="44.50714" lon="6.0273">
        <ele>737.4685059</ele>
        <time>2014-05-04T12:30:01Z</time>
      </trkpt>
      <trkpt lat="44.50761" lon="6.02805">
        <ele>739.8718262</ele>
        <time>2014-05-04T12:30:22Z</time>
      </trkpt>
      <trkpt lat="44.50792" lon="6.02845">
        <ele>738.4299316</ele>
        <time>2014-05-04T12:30:32Z</time>
      </trkpt>
      <trkpt lat="44.50818" lon="6.02868">
        <ele>736.5073242</ele>
        <time>2014-05-04T12:30:37Z</time>
      </trkpt>
      <trkpt lat="44.50829" lon="6.02882">
        <ele>734.5847168</ele>
        <time>2014-05-04T12:30:39Z</time>
      </trkpt>
      <trkpt lat="44.50852" lon="6.02917">
        <ele>730.2585449</ele>
        <time>2014-05-04T12:30:43Z</time>
      </trkpt>
      <trkpt lat="44.50858" lon="6.02928">
        <ele>730.2585449</ele>
        <time>2014-05-04T12:30:44Z</time>
      </trkpt>
      <trkpt lat="44.50878" lon="6.02973">
        <ele>728.3359375</ele>
        <time>2014-05-04T12:30:48Z</time>
      </trkpt>
      <trkpt lat="44.50948" lon="6.03101">
        <ele>726.894043</ele>
        <time>2014-05-04T12:31:01Z</time>
      </trkpt>
      <trkpt lat="44.51013" lon="6.03165">
        <ele>729.777832</ele>
        <time>2014-05-04T12:31:14Z</time>
      </trkpt>
      <trkpt lat="44.51058" lon="6.03212">
        <ele>732.1813965</ele>
        <time>2014-05-04T12:31:30Z</time>
      </trkpt>
      <trkpt lat="44.51096" lon="6.03256">
        <ele>734.5847168</ele>
        <time>2014-05-04T12:31:48Z</time>
      </trkpt>
      <trkpt lat="44.51137" lon="6.03285">
        <ele>734.1040039</ele>
        <time>2014-05-04T12:32:04Z</time>
      </trkpt>
      <trkpt lat="44.51169" lon="6.03302">
        <ele>733.1425781</ele>
        <time>2014-05-04T12:32:14Z</time>
      </trkpt>
      <trkpt lat="44.51193" lon="6.03313">
        <ele>731.7004395</ele>
        <time>2014-05-04T12:32:20Z</time>
      </trkpt>
      <trkpt lat="44.51207" lon="6.03322">
        <ele>732.1813965</ele>
        <time>2014-05-04T12:32:23Z</time>
      </trkpt>
      <trkpt lat="44.51217" lon="6.03326">
        <ele>730.7392578</ele>
        <time>2014-05-04T12:32:25Z</time>
      </trkpt>
      <trkpt lat="44.51271" lon="6.03351">
        <ele>726.894043</ele>
        <time>2014-05-04T12:32:33Z</time>
      </trkpt>
      <trkpt lat="44.51287" lon="6.03358">
        <ele>725.4519043</ele>
        <time>2014-05-04T12:32:35Z</time>
      </trkpt>
      <trkpt lat="44.51323" lon="6.03379">
        <ele>723.529541</ele>
        <time>2014-05-04T12:32:39Z</time>
      </trkpt>
      <trkpt lat="44.5135" lon="6.03399">
        <ele>721.1262207</ele>
        <time>2014-05-04T12:32:42Z</time>
      </trkpt>
      <trkpt lat="44.51384" lon="6.03429">
        <ele>718.7229004</ele>
        <time>2014-05-04T12:32:46Z</time>
      </trkpt>
      <trkpt lat="44.51471" lon="6.03491">
        <ele>717.2810059</ele>
        <time>2014-05-04T12:32:57Z</time>
      </trkpt>
      <trkpt lat="44.51592" lon="6.03525">
        <ele>717.2810059</ele>
        <time>2014-05-04T12:33:13Z</time>
      </trkpt>
      <trkpt lat="44.51646" lon="6.0354">
        <ele>715.8388672</ele>
        <time>2014-05-04T12:33:23Z</time>
      </trkpt>
      <trkpt lat="44.51718" lon="6.03552">
        <ele>715.3581543</ele>
        <time>2014-05-04T12:33:38Z</time>
      </trkpt>
      <trkpt lat="44.51781" lon="6.03538">
        <ele>718.2421875</ele>
        <time>2014-05-04T12:33:53Z</time>
      </trkpt>
      <trkpt lat="44.51793" lon="6.03536">
        <ele>716.3195801</ele>
        <time>2014-05-04T12:33:56Z</time>
      </trkpt>
      <trkpt lat="44.51809" lon="6.0354">
        <ele>718.2421875</ele>
        <time>2014-05-04T12:34:00Z</time>
      </trkpt>
      <trkpt lat="44.51867" lon="6.03579">
        <ele>718.7229004</ele>
        <time>2014-05-04T12:34:15Z</time>
      </trkpt>
      <trkpt lat="44.51953" lon="6.03613">
        <ele>718.7229004</ele>
        <time>2014-05-04T12:34:35Z</time>
      </trkpt>
      <trkpt lat="44.52031" lon="6.03634">
        <ele>719.2036133</ele>
        <time>2014-05-04T12:34:53Z</time>
      </trkpt>
      <trkpt lat="44.52099" lon="6.03643">
        <ele>719.6843262</ele>
        <time>2014-05-04T12:35:10Z</time>
      </trkpt>
      <trkpt lat="44.52155" lon="6.0367">
        <ele>720.6455078</ele>
        <time>2014-05-04T12:35:25Z</time>
      </trkpt>
      <trkpt lat="44.52237" lon="6.03746">
        <ele>721.1262207</ele>
        <time>2014-05-04T12:35:48Z</time>
      </trkpt>
      <trkpt lat="44.52328" lon="6.03818">
        <ele>724.0100098</ele>
        <time>2014-05-04T12:36:13Z</time>
      </trkpt>
      <trkpt lat="44.52381" lon="6.03845">
        <ele>724.0100098</ele>
        <time>2014-05-04T12:36:26Z</time>
      </trkpt>
      <trkpt lat="44.52465" lon="6.03887">
        <ele>723.529541</ele>
        <time>2014-05-04T12:36:47Z</time>
      </trkpt>
      <trkpt lat="44.52483" lon="6.03898">
        <ele>724.0100098</ele>
        <time>2014-05-04T12:36:52Z</time>
      </trkpt>
      <trkpt lat="44.52538" lon="6.03952">
        <ele>725.4519043</ele>
        <time>2014-05-04T12:37:07Z</time>
      </trkpt>
      <trkpt lat="44.52592" lon="6.0401">
        <ele>724.9714355</ele>
        <time>2014-05-04T12:37:22Z</time>
      </trkpt>
      <trkpt lat="44.52652" lon="6.04069">
        <ele>727.3747559</ele>
        <time>2014-05-04T12:37:41Z</time>
      </trkpt>
      <trkpt lat="44.52674" lon="6.04089">
        <ele>728.8166504</ele>
        <time>2014-05-04T12:37:55Z</time>
      </trkpt>
      <trkpt lat="44.52675" lon="6.0409">
        <ele>728.8166504</ele>
        <time>2014-05-04T12:38:57Z</time>
      </trkpt>
      <trkpt lat="44.52675" lon="6.0409">
        <ele>728.8166504</ele>
        <time>2014-05-04T12:39:45Z</time>
      </trkpt>
      <trkpt lat="44.52675" lon="6.0409">
        <ele>728.8166504</ele>
        <time>2014-05-04T12:40:04Z</time>
      </trkpt>
      <trkpt lat="44.52737" lon="6.04107">
        <ele>718.2421875</ele>
        <time>2014-05-04T12:40:29Z</time>
      </trkpt>
      <trkpt lat="44.52747" lon="6.04113">
        <ele>739.8718262</ele>
        <time>2014-05-04T12:40:33Z</time>
      </trkpt>
      <trkpt lat="44.52749" lon="6.04115">
        <ele>739.3911133</ele>
        <time>2014-05-04T12:40:34Z</time>
      </trkpt>
      <trkpt lat="44.52756" lon="6.04122">
        <ele>742.2751465</ele>
        <time>2014-05-04T12:40:38Z</time>
      </trkpt>
      <trkpt lat="44.52767" lon="6.04126">
        <ele>743.717041</ele>
        <time>2014-05-04T12:40:42Z</time>
      </trkpt>
      <trkpt lat="44.52804" lon="6.04138">
        <ele>740.3525391</ele>
        <time>2014-05-04T12:40:56Z</time>
      </trkpt>
      <trkpt lat="44.52837" lon="6.04151">
        <ele>736.5073242</ele>
        <time>2014-05-04T12:41:09Z</time>
      </trkpt>
      <trkpt lat="44.52839" lon="6.04152">
        <ele>736.5073242</ele>
        <time>2014-05-04T12:41:10Z</time>
      </trkpt>
      <trkpt lat="44.52893" lon="6.04185">
        <ele>735.0654297</ele>
        <time>2014-05-04T12:41:33Z</time>
      </trkpt>
      <trkpt lat="44.52905" lon="6.04193">
        <ele>735.5458984</ele>
        <time>2014-05-04T12:41:38Z</time>
      </trkpt>
      <trkpt lat="44.5295" lon="6.04222">
        <ele>736.5073242</ele>
        <time>2014-05-04T12:41:58Z</time>
      </trkpt>
      <trkpt lat="44.52987" lon="6.04244">
        <ele>738.9106445</ele>
        <time>2014-05-04T12:42:15Z</time>
      </trkpt>
      <trkpt lat="44.53018" lon="6.04264">
        <ele>739.8718262</ele>
        <time>2014-05-04T12:42:29Z</time>
      </trkpt>
      <trkpt lat="44.53027" lon="6.0427">
        <ele>740.3525391</ele>
        <time>2014-05-04T12:42:33Z</time>
      </trkpt>
      <trkpt lat="44.53062" lon="6.04292">
        <ele>741.7944336</ele>
        <time>2014-05-04T12:42:49Z</time>
      </trkpt>
      <trkpt lat="44.5307" lon="6.04297">
        <ele>740.3525391</ele>
        <time>2014-05-04T12:42:52Z</time>
      </trkpt>
      <trkpt lat="44.53122" lon="6.0432">
        <ele>740.8330078</ele>
        <time>2014-05-04T12:43:10Z</time>
      </trkpt>
      <trkpt lat="44.5318" lon="6.04341">
        <ele>742.7558594</ele>
        <time>2014-05-04T12:43:30Z</time>
      </trkpt>
      <trkpt lat="44.53227" lon="6.04356">
        <ele>745.6396484</ele>
        <time>2014-05-04T12:43:50Z</time>
      </trkpt>
      <trkpt lat="44.53268" lon="6.04364">
        <ele>748.5236816</ele>
        <time>2014-05-04T12:44:07Z</time>
      </trkpt>
      <trkpt lat="44.53315" lon="6.04381">
        <ele>749.0043945</ele>
        <time>2014-05-04T12:44:26Z</time>
      </trkpt>
      <trkpt lat="44.53348" lon="6.04411">
        <ele>749.4851074</ele>
        <time>2014-05-04T12:44:41Z</time>
      </trkpt>
      <trkpt lat="44.53387" lon="6.04453">
        <ele>749.0043945</ele>
        <time>2014-05-04T12:44:56Z</time>
      </trkpt>
      <trkpt lat="44.53439" lon="6.04512">
        <ele>749.4851074</ele>
        <time>2014-05-04T12:45:15Z</time>
      </trkpt>
      <trkpt lat="44.53497" lon="6.04591">
        <ele>749.0043945</ele>
        <time>2014-05-04T12:45:34Z</time>
      </trkpt>
      <trkpt lat="44.53537" lon="6.04657">
        <ele>749.4851074</ele>
        <time>2014-05-04T12:45:49Z</time>
      </trkpt>
      <trkpt lat="44.53585" lon="6.04735">
        <ele>749.9658203</ele>
        <time>2014-05-04T12:46:08Z</time>
      </trkpt>
      <trkpt lat="44.53621" lon="6.04805">
        <ele>750.927002</ele>
        <time>2014-05-04T12:46:25Z</time>
      </trkpt>
      <trkpt lat="44.53665" lon="6.04882">
        <ele>753.8110352</ele>
        <time>2014-05-04T12:46:44Z</time>
      </trkpt>
      <trkpt lat="44.53709" lon="6.04933">
        <ele>754.7722168</ele>
        <time>2014-05-04T12:47:00Z</time>
      </trkpt>
      <trkpt lat="44.53747" lon="6.04988">
        <ele>757.65625</ele>
        <time>2014-05-04T12:47:18Z</time>
      </trkpt>
      <trkpt lat="44.53766" lon="6.05132">
        <ele>758.6174316</ele>
        <time>2014-05-04T12:47:54Z</time>
      </trkpt>
      <trkpt lat="44.53763" lon="6.05162">
        <ele>757.1755371</ele>
        <time>2014-05-04T12:48:04Z</time>
      </trkpt>
      <trkpt lat="44.53769" lon="6.05194">
        <ele>756.6948242</ele>
        <time>2014-05-04T12:48:11Z</time>
      </trkpt>
      <trkpt lat="44.53786" lon="6.05255">
        <ele>755.7336426</ele>
        <time>2014-05-04T12:48:24Z</time>
      </trkpt>
      <trkpt lat="44.53782" lon="6.0527">
        <ele>755.2529297</ele>
        <time>2014-05-04T12:48:28Z</time>
      </trkpt>
      <trkpt lat="44.53763" lon="6.05294">
        <ele>754.291748</ele>
        <time>2014-05-04T12:48:35Z</time>
      </trkpt>
      <trkpt lat="44.53767" lon="6.05332">
        <ele>752.3688965</ele>
        <time>2014-05-04T12:48:43Z</time>
      </trkpt>
      <trkpt lat="44.53821" lon="6.05403">
        <ele>749.4851074</ele>
        <time>2014-05-04T12:48:58Z</time>
      </trkpt>
      <trkpt lat="44.5389" lon="6.05486">
        <ele>746.6010742</ele>
        <time>2014-05-04T12:49:14Z</time>
      </trkpt>
      <trkpt lat="44.53934" lon="6.05539">
        <ele>743.717041</ele>
        <time>2014-05-04T12:49:25Z</time>
      </trkpt>
      <trkpt lat="44.53945" lon="6.05561">
        <ele>744.1977539</ele>
        <time>2014-05-04T12:49:29Z</time>
      </trkpt>
      <trkpt lat="44.53996" lon="6.05624">
        <ele>740.8330078</ele>
        <time>2014-05-04T12:49:41Z</time>
      </trkpt>
      <trkpt lat="44.5406" lon="6.05702">
        <ele>737.4685059</ele>
        <time>2014-05-04T12:49:54Z</time>
      </trkpt>
      <trkpt lat="44.54093" lon="6.05742">
        <ele>735.5458984</ele>
        <time>2014-05-04T12:50:05Z</time>
      </trkpt>
      <trkpt lat="44.54103" lon="6.05754">
        <ele>735.0654297</ele>
        <time>2014-05-04T12:50:08Z</time>
      </trkpt>
      <trkpt lat="44.54115" lon="6.05764">
        <ele>734.1040039</ele>
        <time>2014-05-04T12:50:11Z</time>
      </trkpt>
      <trkpt lat="44.54142" lon="6.05792">
        <ele>733.623291</ele>
        <time>2014-05-04T12:50:18Z</time>
      </trkpt>
      <trkpt lat="44.54152" lon="6.05806">
        <ele>733.623291</ele>
        <time>2014-05-04T12:50:21Z</time>
      </trkpt>
      <trkpt lat="44.54204" lon="6.05868">
        <ele>730.7392578</ele>
        <time>2014-05-04T12:50:36Z</time>
      </trkpt>
      <trkpt lat="44.54265" lon="6.05941">
        <ele>727.3747559</ele>
        <time>2014-05-04T12:50:50Z</time>
      </trkpt>
      <trkpt lat="44.5427" lon="6.05947">
        <ele>727.3747559</ele>
        <time>2014-05-04T12:50:51Z</time>
      </trkpt>
      <trkpt lat="44.54315" lon="6.06007">
        <ele>727.3747559</ele>
        <time>2014-05-04T12:51:03Z</time>
      </trkpt>
      <trkpt lat="44.54326" lon="6.06015">
        <ele>727.3747559</ele>
        <time>2014-05-04T12:51:06Z</time>
      </trkpt>
      <trkpt lat="44.54357" lon="6.06055">
        <ele>727.8552246</ele>
        <time>2014-05-04T12:51:17Z</time>
      </trkpt>
      <trkpt lat="44.5438" lon="6.06083">
        <ele>729.777832</ele>
        <time>2014-05-04T12:51:25Z</time>
      </trkpt>
      <trkpt lat="44.54413" lon="6.06124">
        <ele>731.7004395</ele>
        <time>2014-05-04T12:51:38Z</time>
      </trkpt>
      <trkpt lat="44.54455" lon="6.06167">
        <ele>732.6621094</ele>
        <time>2014-05-04T12:51:54Z</time>
      </trkpt>
      <trkpt lat="44.54494" lon="6.06224">
        <ele>732.6621094</ele>
        <time>2014-05-04T12:52:10Z</time>
      </trkpt>
      <trkpt lat="44.54537" lon="6.06271">
        <ele>730.7392578</ele>
        <time>2014-05-04T12:52:24Z</time>
      </trkpt>
      <trkpt lat="44.54561" lon="6.06287">
        <ele>731.2199707</ele>
        <time>2014-05-04T12:52:35Z</time>
      </trkpt>
      <trkpt lat="44.54565" lon="6.06291">
        <ele>729.777832</ele>
        <time>2014-05-04T12:52:38Z</time>
      </trkpt>
      <trkpt lat="44.54582" lon="6.06326">
        <ele>730.7392578</ele>
        <time>2014-05-04T12:52:49Z</time>
      </trkpt>
      <trkpt lat="44.54594" lon="6.06348">
        <ele>730.2585449</ele>
        <time>2014-05-04T12:52:54Z</time>
      </trkpt>
      <trkpt lat="44.54646" lon="6.06413">
        <ele>729.2971191</ele>
        <time>2014-05-04T12:53:11Z</time>
      </trkpt>
      <trkpt lat="44.54705" lon="6.06485">
        <ele>728.3359375</ele>
        <time>2014-05-04T12:53:30Z</time>
      </trkpt>
      <trkpt lat="44.54762" lon="6.06554">
        <ele>728.3359375</ele>
        <time>2014-05-04T12:53:49Z</time>
      </trkpt>
      <trkpt lat="44.548" lon="6.06596">
        <ele>728.8166504</ele>
        <time>2014-05-04T12:54:02Z</time>
      </trkpt>
      <trkpt lat="44.54837" lon="6.06644">
        <ele>728.8166504</ele>
        <time>2014-05-04T12:54:15Z</time>
      </trkpt>
      <trkpt lat="44.54847" lon="6.06655">
        <ele>728.8166504</ele>
        <time>2014-05-04T12:54:18Z</time>
      </trkpt>
      <trkpt lat="44.54862" lon="6.06678">
        <ele>728.8166504</ele>
        <time>2014-05-04T12:54:23Z</time>
      </trkpt>
      <trkpt lat="44.54872" lon="6.06689">
        <ele>728.8166504</ele>
        <time>2014-05-04T12:54:26Z</time>
      </trkpt>
      <trkpt lat="44.54879" lon="6.06697">
        <ele>729.2971191</ele>
        <time>2014-05-04T12:54:28Z</time>
      </trkpt>
      <trkpt lat="44.5491" lon="6.06742">
        <ele>728.8166504</ele>
        <time>2014-05-04T12:54:39Z</time>
      </trkpt>
      <trkpt lat="44.54926" lon="6.06761">
        <ele>729.2971191</ele>
        <time>2014-05-04T12:54:44Z</time>
      </trkpt>
      <trkpt lat="44.54959" lon="6.06802">
        <ele>729.777832</ele>
        <time>2014-05-04T12:54:55Z</time>
      </trkpt>
      <trkpt lat="44.54996" lon="6.06844">
        <ele>729.2971191</ele>
        <time>2014-05-04T12:55:07Z</time>
      </trkpt>
      <trkpt lat="44.5503" lon="6.06884">
        <ele>729.777832</ele>
        <time>2014-05-04T12:55:20Z</time>
      </trkpt>
      <trkpt lat="44.5505" lon="6.06908">
        <ele>729.2971191</ele>
        <time>2014-05-04T12:55:27Z</time>
      </trkpt>
      <trkpt lat="44.55092" lon="6.06957">
        <ele>728.8166504</ele>
        <time>2014-05-04T12:55:41Z</time>
      </trkpt>
      <trkpt lat="44.55129" lon="6.07004">
        <ele>727.3747559</ele>
        <time>2014-05-04T12:55:52Z</time>
      </trkpt>
      <trkpt lat="44.55146" lon="6.07028">
        <ele>727.8552246</ele>
        <time>2014-05-04T12:55:58Z</time>
      </trkpt>
      <trkpt lat="44.5516" lon="6.07045">
        <ele>727.8552246</ele>
        <time>2014-05-04T12:56:02Z</time>
      </trkpt>
      <trkpt lat="44.55194" lon="6.07087">
        <ele>727.8552246</ele>
        <time>2014-05-04T12:56:13Z</time>
      </trkpt>
      <trkpt lat="44.55235" lon="6.07139">
        <ele>726.4133301</ele>
        <time>2014-05-04T12:56:24Z</time>
      </trkpt>
      <trkpt lat="44.55259" lon="6.07166">
        <ele>724.9714355</ele>
        <time>2014-05-04T12:56:30Z</time>
      </trkpt>
      <trkpt lat="44.55317" lon="6.07236">
        <ele>724.9714355</ele>
        <time>2014-05-04T12:56:46Z</time>
      </trkpt>
      <trkpt lat="44.55324" lon="6.07245">
        <ele>725.4519043</ele>
        <time>2014-05-04T12:56:48Z</time>
      </trkpt>
      <trkpt lat="44.55337" lon="6.07262">
        <ele>724.9714355</ele>
        <time>2014-05-04T12:56:52Z</time>
      </trkpt>
      <trkpt lat="44.55348" lon="6.07274">
        <ele>724.4907227</ele>
        <time>2014-05-04T12:56:55Z</time>
      </trkpt>
      <trkpt lat="44.55376" lon="6.07301">
        <ele>724.9714355</ele>
        <time>2014-05-04T12:57:04Z</time>
      </trkpt>
      <trkpt lat="44.55393" lon="6.0732">
        <ele>724.0100098</ele>
        <time>2014-05-04T12:57:09Z</time>
      </trkpt>
      <trkpt lat="44.55396" lon="6.07323">
        <ele>724.9714355</ele>
        <time>2014-05-04T12:57:10Z</time>
      </trkpt>
      <trkpt lat="44.55406" lon="6.07335">
        <ele>724.9714355</ele>
        <time>2014-05-04T12:57:13Z</time>
      </trkpt>
      <trkpt lat="44.55429" lon="6.07362">
        <ele>724.0100098</ele>
        <time>2014-05-04T12:57:20Z</time>
      </trkpt>
      <trkpt lat="44.55482" lon="6.07431">
        <ele>723.0488281</ele>
        <time>2014-05-04T12:57:36Z</time>
      </trkpt>
      <trkpt lat="44.5549" lon="6.07444">
        <ele>722.5681152</ele>
        <time>2014-05-04T12:57:39Z</time>
      </trkpt>
      <trkpt lat="44.55521" lon="6.07477">
        <ele>722.0874023</ele>
        <time>2014-05-04T12:57:49Z</time>
      </trkpt>
      <trkpt lat="44.55564" lon="6.07526">
        <ele>722.5681152</ele>
        <time>2014-05-04T12:58:02Z</time>
      </trkpt>
      <trkpt lat="44.55605" lon="6.07573">
        <ele>722.5681152</ele>
        <time>2014-05-04T12:58:18Z</time>
      </trkpt>
      <trkpt lat="44.55625" lon="6.07545">
        <ele>723.0488281</ele>
        <time>2014-05-04T12:58:29Z</time>
      </trkpt>
      <trkpt lat="44.55631" lon="6.07529">
        <ele>723.529541</ele>
        <time>2014-05-04T12:58:33Z</time>
      </trkpt>
      <trkpt lat="44.55648" lon="6.07534">
        <ele>724.0100098</ele>
        <time>2014-05-04T12:58:39Z</time>
      </trkpt>
      <trkpt lat="44.55683" lon="6.07568">
        <ele>725.4519043</ele>
        <time>2014-05-04T12:58:52Z</time>
      </trkpt>
      <trkpt lat="44.55685" lon="6.07569">
        <ele>725.4519043</ele>
        <time>2014-05-04T12:58:53Z</time>
      </trkpt>
      <trkpt lat="44.55709" lon="6.07542">
        <ele>726.894043</ele>
        <time>2014-05-04T12:59:05Z</time>
      </trkpt>
      <trkpt lat="44.55733" lon="6.07488">
        <ele>728.8166504</ele>
        <time>2014-05-04T12:59:22Z</time>
      </trkpt>
      <trkpt lat="44.55744" lon="6.07467">
        <ele>729.777832</ele>
        <time>2014-05-04T12:59:31Z</time>
      </trkpt>
      <trkpt lat="44.55749" lon="6.07454">
        <ele>730.2585449</ele>
        <time>2014-05-04T12:59:41Z</time>
      </trkpt>
      <trkpt lat="44.5575" lon="6.07453">
        <ele>730.2585449</ele>
        <time>2014-05-04T12:59:44Z</time>
      </trkpt>
      <trkpt lat="44.55757" lon="6.07453">
        <ele>730.2585449</ele>
        <time>2014-05-04T12:59:48Z</time>
      </trkpt>
      <trkpt lat="44.55788" lon="6.0745">
        <ele>732.1813965</ele>
        <time>2014-05-04T12:59:59Z</time>
      </trkpt>
      <trkpt lat="44.5579" lon="6.07451">
        <ele>732.1813965</ele>
        <time>2014-05-04T13:00:00Z</time>
      </trkpt>
      <trkpt lat="44.55798" lon="6.07444">
        <ele>732.1813965</ele>
        <time>2014-05-04T13:00:04Z</time>
      </trkpt>
      <trkpt lat="44.55802" lon="6.07438">
        <ele>732.6621094</ele>
        <time>2014-05-04T13:00:06Z</time>
      </trkpt>
      <trkpt lat="44.55808" lon="6.07428">
        <ele>733.1425781</ele>
        <time>2014-05-04T13:00:11Z</time>
      </trkpt>
      <trkpt lat="44.55839" lon="6.07444">
        <ele>733.623291</ele>
        <time>2014-05-04T13:00:24Z</time>
      </trkpt>
      <trkpt lat="44.55845" lon="6.07446">
        <ele>733.1425781</ele>
        <time>2014-05-04T13:00:30Z</time>
      </trkpt>
      <trkpt lat="44.55847" lon="6.07447">
        <ele>733.1425781</ele>
        <time>2014-05-04T13:00:32Z</time>
      </trkpt>
      <trkpt lat="44.5588" lon="6.07476">
        <ele>735.0654297</ele>
        <time>2014-05-04T13:00:50Z</time>
      </trkpt>
      <trkpt lat="44.55885" lon="6.0748">
        <ele>735.0654297</ele>
        <time>2014-05-04T13:01:01Z</time>
      </trkpt>
      <trkpt lat="44.55885" lon="6.0748">
        <ele>734.1040039</ele>
        <time>2014-05-04T13:01:07Z</time>
      </trkpt>
      <trkpt lat="44.55887" lon="6.07478">
        <ele>733.623291</ele>
        <time>2014-05-04T13:01:21Z</time>
      </trkpt>
    </trkseg>
  </trk>
</gpx>